<?xml version='1.0' encoding='UTF-8'?>
<gpx version="1.1" creator="https://www.komoot.de" xmlns="http://www.topografix.com/GPX/1/1" xmlns:xsi="http://www.w3.org/2001/XMLSchema-instance" xsi:schemaLocation="http://www.topografix.com/GPX/1/1 http://www.topografix.com/GPX/1/1/gpx.xsd">
  <metadata>
    <name>85_1150HauenstTuefelschl</name>
    <author>
      <link href="https://www.komoot.de">
        <text>komoot</text>
        <type>text/html</type>
      </link>
    </author>
  </metadata>
  <trk>
    <name>85_1150HauenstTuefelschl</name>
    <trkseg>
      <trkpt lat="47.541576" lon="7.870664">
        <ele>341.796709</ele>
        <time>2021-11-22T08:41:35.120Z</time>
      </trkpt>
      <trkpt lat="47.541576" lon="7.870664">
        <ele>341.796709</ele>
        <time>2021-11-22T08:41:35.159Z</time>
      </trkpt>
      <trkpt lat="47.541410" lon="7.870791">
        <ele>341.796709</ele>
        <time>2021-11-22T08:41:39.646Z</time>
      </trkpt>
      <trkpt lat="47.540933" lon="7.871187">
        <ele>341.796709</ele>
        <time>2021-11-22T08:41:52.530Z</time>
      </trkpt>
      <trkpt lat="47.540894" lon="7.871220">
        <ele>341.796709</ele>
        <time>2021-11-22T08:41:53.725Z</time>
      </trkpt>
      <trkpt lat="47.540693" lon="7.871390">
        <ele>342.022747</ele>
        <time>2021-11-22T08:41:59.316Z</time>
      </trkpt>
      <trkpt lat="47.540463" lon="7.871584">
        <ele>342.563283</ele>
        <time>2021-11-22T08:42:05.866Z</time>
      </trkpt>
      <trkpt lat="47.540265" lon="7.871808">
        <ele>343.072095</ele>
        <time>2021-11-22T08:42:11.596Z</time>
      </trkpt>
      <trkpt lat="47.540216" lon="7.871851">
        <ele>343.188409</ele>
        <time>2021-11-22T08:42:13.136Z</time>
      </trkpt>
      <trkpt lat="47.540034" lon="7.871970">
        <ele>343.594703</ele>
        <time>2021-11-22T08:42:17.795Z</time>
      </trkpt>
      <trkpt lat="47.539930" lon="7.872041">
        <ele>343.828572</ele>
        <time>2021-11-22T08:42:20.382Z</time>
      </trkpt>
      <trkpt lat="47.539841" lon="7.872151">
        <ele>344.065295</ele>
        <time>2021-11-22T08:42:23.413Z</time>
      </trkpt>
      <trkpt lat="47.539678" lon="7.872430">
        <ele>344.573998</ele>
        <time>2021-11-22T08:42:28.935Z</time>
      </trkpt>
      <trkpt lat="47.539222" lon="7.873416">
        <ele>345.863347</ele>
        <time>2021-11-22T08:42:46.476Z</time>
      </trkpt>
      <trkpt lat="47.538278" lon="7.874319">
        <ele>347.064006</ele>
        <time>2021-11-22T08:43:06.130Z</time>
      </trkpt>
      <trkpt lat="47.537716" lon="7.874966">
        <ele>348.041740</ele>
        <time>2021-11-22T08:43:20.105Z</time>
      </trkpt>
      <trkpt lat="47.537261" lon="7.875237">
        <ele>348.828780</ele>
        <time>2021-11-22T08:43:29.622Z</time>
      </trkpt>
      <trkpt lat="47.537182" lon="7.875293">
        <ele>348.969335</ele>
        <time>2021-11-22T08:43:31.610Z</time>
      </trkpt>
      <trkpt lat="47.536921" lon="7.875537">
        <ele>349.464658</ele>
        <time>2021-11-22T08:43:37.577Z</time>
      </trkpt>
      <trkpt lat="47.536757" lon="7.875759">
        <ele>349.821211</ele>
        <time>2021-11-22T08:43:42.179Z</time>
      </trkpt>
      <trkpt lat="47.536632" lon="7.875912">
        <ele>350.081450</ele>
        <time>2021-11-22T08:43:45.347Z</time>
      </trkpt>
      <trkpt lat="47.536444" lon="7.876177">
        <ele>350.881206</ele>
        <time>2021-11-22T08:43:52.309Z</time>
      </trkpt>
      <trkpt lat="47.535851" lon="7.877319">
        <ele>355.167574</ele>
        <time>2021-11-22T08:44:23.623Z</time>
      </trkpt>
      <trkpt lat="47.535770" lon="7.877432">
        <ele>355.657923</ele>
        <time>2021-11-22T08:44:27.803Z</time>
      </trkpt>
      <trkpt lat="47.535635" lon="7.877484">
        <ele>356.272631</ele>
        <time>2021-11-22T08:44:33.670Z</time>
      </trkpt>
      <trkpt lat="47.535551" lon="7.877487">
        <ele>356.642912</ele>
        <time>2021-11-22T08:44:35.578Z</time>
      </trkpt>
      <trkpt lat="47.535322" lon="7.877590">
        <ele>357.697577</ele>
        <time>2021-11-22T08:44:45.580Z</time>
      </trkpt>
      <trkpt lat="47.535088" lon="7.877742">
        <ele>358.945550</ele>
        <time>2021-11-22T08:44:53.433Z</time>
      </trkpt>
      <trkpt lat="47.534855" lon="7.878090">
        <ele>360.691138</ele>
        <time>2021-11-22T08:45:05.406Z</time>
      </trkpt>
      <trkpt lat="47.534778" lon="7.878270">
        <ele>361.450088</ele>
        <time>2021-11-22T08:45:12.700Z</time>
      </trkpt>
      <trkpt lat="47.534825" lon="7.878414">
        <ele>362.019753</ele>
        <time>2021-11-22T08:45:15.298Z</time>
      </trkpt>
      <trkpt lat="47.534946" lon="7.878790">
        <ele>363.503277</ele>
        <time>2021-11-22T08:45:27.366Z</time>
      </trkpt>
      <trkpt lat="47.534908" lon="7.878975">
        <ele>364.191999</ele>
        <time>2021-11-22T08:45:31.424Z</time>
      </trkpt>
      <trkpt lat="47.534701" lon="7.879341">
        <ele>365.892512</ele>
        <time>2021-11-22T08:45:44.068Z</time>
      </trkpt>
      <trkpt lat="47.534616" lon="7.879490">
        <ele>366.587276</ele>
        <time>2021-11-22T08:45:48.406Z</time>
      </trkpt>
      <trkpt lat="47.533892" lon="7.880353">
        <ele>369.672552</ele>
        <time>2021-11-22T08:46:16.091Z</time>
      </trkpt>
      <trkpt lat="47.533606" lon="7.880961">
        <ele>371.048486</ele>
        <time>2021-11-22T08:46:28.473Z</time>
      </trkpt>
      <trkpt lat="47.533374" lon="7.881639">
        <ele>372.459870</ele>
        <time>2021-11-22T08:46:39.525Z</time>
      </trkpt>
      <trkpt lat="47.533014" lon="7.882949">
        <ele>372.879140</ele>
        <time>2021-11-22T08:46:57.440Z</time>
      </trkpt>
      <trkpt lat="47.532859" lon="7.883508">
        <ele>372.988872</ele>
        <time>2021-11-22T08:47:03.317Z</time>
      </trkpt>
      <trkpt lat="47.532713" lon="7.884122">
        <ele>373.107077</ele>
        <time>2021-11-22T08:47:09.015Z</time>
      </trkpt>
      <trkpt lat="47.532699" lon="7.884224">
        <ele>373.111292</ele>
        <time>2021-11-22T08:47:09.969Z</time>
      </trkpt>
      <trkpt lat="47.532670" lon="7.884773">
        <ele>372.576618</ele>
        <time>2021-11-22T08:47:14.463Z</time>
      </trkpt>
      <trkpt lat="47.532658" lon="7.884989">
        <ele>372.366186</ele>
        <time>2021-11-22T08:47:16.075Z</time>
      </trkpt>
      <trkpt lat="47.532650" lon="7.885569">
        <ele>371.802924</ele>
        <time>2021-11-22T08:47:20.577Z</time>
      </trkpt>
      <trkpt lat="47.532505" lon="7.887120">
        <ele>370.236926</ele>
        <time>2021-11-22T08:47:32.528Z</time>
      </trkpt>
      <trkpt lat="47.532288" lon="7.887728">
        <ele>369.449264</ele>
        <time>2021-11-22T08:47:37.705Z</time>
      </trkpt>
      <trkpt lat="47.532011" lon="7.888896">
        <ele>368.031400</ele>
        <time>2021-11-22T08:47:46.935Z</time>
      </trkpt>
      <trkpt lat="47.531843" lon="7.889349">
        <ele>367.477562</ele>
        <time>2021-11-22T08:47:50.971Z</time>
      </trkpt>
      <trkpt lat="47.531560" lon="7.889776">
        <ele>367.353420</ele>
        <time>2021-11-22T08:47:55.911Z</time>
      </trkpt>
      <trkpt lat="47.531265" lon="7.889937">
        <ele>367.256810</ele>
        <time>2021-11-22T08:47:59.879Z</time>
      </trkpt>
      <trkpt lat="47.531076" lon="7.890029">
        <ele>367.195675</ele>
        <time>2021-11-22T08:48:02.721Z</time>
      </trkpt>
      <trkpt lat="47.530606" lon="7.890373">
        <ele>367.034575</ele>
        <time>2021-11-22T08:48:10.570Z</time>
      </trkpt>
      <trkpt lat="47.530322" lon="7.890690">
        <ele>366.959641</ele>
        <time>2021-11-22T08:48:16.563Z</time>
      </trkpt>
      <trkpt lat="47.529972" lon="7.891210">
        <ele>367.462082</ele>
        <time>2021-11-22T08:48:25.725Z</time>
      </trkpt>
      <trkpt lat="47.529714" lon="7.891609">
        <ele>367.840132</ele>
        <time>2021-11-22T08:48:33.059Z</time>
      </trkpt>
      <trkpt lat="47.529695" lon="7.891638">
        <ele>367.867784</ele>
        <time>2021-11-22T08:48:34.045Z</time>
      </trkpt>
      <trkpt lat="47.529235" lon="7.892158">
        <ele>368.454273</ele>
        <time>2021-11-22T08:48:44.979Z</time>
      </trkpt>
      <trkpt lat="47.528331" lon="7.892682">
        <ele>369.604833</ele>
        <time>2021-11-22T08:49:03.681Z</time>
      </trkpt>
      <trkpt lat="47.528003" lon="7.892732">
        <ele>370.020699</ele>
        <time>2021-11-22T08:49:09.387Z</time>
      </trkpt>
      <trkpt lat="47.527498" lon="7.892650">
        <ele>370.661432</ele>
        <time>2021-11-22T08:49:18.860Z</time>
      </trkpt>
      <trkpt lat="47.527011" lon="7.893061">
        <ele>371.762154</ele>
        <time>2021-11-22T08:49:32.052Z</time>
      </trkpt>
      <trkpt lat="47.526709" lon="7.893617">
        <ele>373.066046</ele>
        <time>2021-11-22T08:49:44.584Z</time>
      </trkpt>
      <trkpt lat="47.526504" lon="7.894030">
        <ele>374.002693</ele>
        <time>2021-11-22T08:49:54.765Z</time>
      </trkpt>
      <trkpt lat="47.526451" lon="7.893983">
        <ele>374.169867</ele>
        <time>2021-11-22T08:49:56.155Z</time>
      </trkpt>
      <trkpt lat="47.526401" lon="7.893964">
        <ele>374.309557</ele>
        <time>2021-11-22T08:49:56.972Z</time>
      </trkpt>
      <trkpt lat="47.526335" lon="7.893960">
        <ele>374.488313</ele>
        <time>2021-11-22T08:49:59.046Z</time>
      </trkpt>
      <trkpt lat="47.526257" lon="7.894278">
        <ele>375.106554</ele>
        <time>2021-11-22T08:50:05.258Z</time>
      </trkpt>
      <trkpt lat="47.525725" lon="7.895110">
        <ele>376.826554</ele>
        <time>2021-11-22T08:50:24.340Z</time>
      </trkpt>
      <trkpt lat="47.525603" lon="7.895265">
        <ele>377.137260</ele>
        <time>2021-11-22T08:50:29.956Z</time>
      </trkpt>
      <trkpt lat="47.525631" lon="7.895442">
        <ele>377.374539</ele>
        <time>2021-11-22T08:50:32.806Z</time>
      </trkpt>
      <trkpt lat="47.525631" lon="7.895583">
        <ele>377.558575</ele>
        <time>2021-11-22T08:50:33.997Z</time>
      </trkpt>
      <trkpt lat="47.525622" lon="7.895944">
        <ele>378.030082</ele>
        <time>2021-11-22T08:50:41.432Z</time>
      </trkpt>
      <trkpt lat="47.525590" lon="7.896117">
        <ele>378.264204</ele>
        <time>2021-11-22T08:50:42.985Z</time>
      </trkpt>
      <trkpt lat="47.525518" lon="7.896336">
        <ele>378.582127</ele>
        <time>2021-11-22T08:50:47.793Z</time>
      </trkpt>
      <trkpt lat="47.524834" lon="7.897636">
        <ele>379.391983</ele>
        <time>2021-11-22T08:51:04.716Z</time>
      </trkpt>
      <trkpt lat="47.524617" lon="7.898216">
        <ele>379.406756</ele>
        <time>2021-11-22T08:51:10.889Z</time>
      </trkpt>
      <trkpt lat="47.524360" lon="7.898951">
        <ele>379.425198</ele>
        <time>2021-11-22T08:51:18.430Z</time>
      </trkpt>
      <trkpt lat="47.524309" lon="7.899115">
        <ele>379.469555</ele>
        <time>2021-11-22T08:51:20.344Z</time>
      </trkpt>
      <trkpt lat="47.523896" lon="7.900001">
        <ele>380.310584</ele>
        <time>2021-11-22T08:51:32.267Z</time>
      </trkpt>
      <trkpt lat="47.523861" lon="7.900049">
        <ele>380.365770</ele>
        <time>2021-11-22T08:51:33.246Z</time>
      </trkpt>
      <trkpt lat="47.523890" lon="7.900131">
        <ele>380.438082</ele>
        <time>2021-11-22T08:51:34.201Z</time>
      </trkpt>
      <trkpt lat="47.523945" lon="7.900256">
        <ele>380.554632</ele>
        <time>2021-11-22T08:51:35.792Z</time>
      </trkpt>
      <trkpt lat="47.523989" lon="7.900340">
        <ele>380.637680</ele>
        <time>2021-11-22T08:51:36.842Z</time>
      </trkpt>
      <trkpt lat="47.523957" lon="7.900371">
        <ele>380.681917</ele>
        <time>2021-11-22T08:51:37.547Z</time>
      </trkpt>
      <trkpt lat="47.523878" lon="7.900445">
        <ele>380.790056</ele>
        <time>2021-11-22T08:51:39.664Z</time>
      </trkpt>
      <trkpt lat="47.523739" lon="7.900557">
        <ele>380.973121</ele>
        <time>2021-11-22T08:51:42.595Z</time>
      </trkpt>
      <trkpt lat="47.523648" lon="7.900606">
        <ele>381.085137</ele>
        <time>2021-11-22T08:51:44.774Z</time>
      </trkpt>
      <trkpt lat="47.523620" lon="7.900698">
        <ele>381.163970</ele>
        <time>2021-11-22T08:51:46.737Z</time>
      </trkpt>
      <trkpt lat="47.523567" lon="7.900820">
        <ele>381.277296</ele>
        <time>2021-11-22T08:51:48.835Z</time>
      </trkpt>
      <trkpt lat="47.523433" lon="7.901043">
        <ele>381.514631</ele>
        <time>2021-11-22T08:51:54.079Z</time>
      </trkpt>
      <trkpt lat="47.523340" lon="7.901197">
        <ele>382.070237</ele>
        <time>2021-11-22T08:51:58.121Z</time>
      </trkpt>
      <trkpt lat="47.523036" lon="7.901580">
        <ele>383.659782</ele>
        <time>2021-11-22T08:52:09.754Z</time>
      </trkpt>
      <trkpt lat="47.522688" lon="7.901843">
        <ele>385.215734</ele>
        <time>2021-11-22T08:52:22.161Z</time>
      </trkpt>
      <trkpt lat="47.522554" lon="7.901999">
        <ele>385.894554</ele>
        <time>2021-11-22T08:52:28.596Z</time>
      </trkpt>
      <trkpt lat="47.522260" lon="7.902356">
        <ele>387.408715</ele>
        <time>2021-11-22T08:52:41.051Z</time>
      </trkpt>
      <trkpt lat="47.522132" lon="7.902476">
        <ele>388.012042</ele>
        <time>2021-11-22T08:52:45.614Z</time>
      </trkpt>
      <trkpt lat="47.522065" lon="7.902526">
        <ele>388.310836</ele>
        <time>2021-11-22T08:52:47.897Z</time>
      </trkpt>
      <trkpt lat="47.522038" lon="7.902562">
        <ele>388.455528</ele>
        <time>2021-11-22T08:52:49.446Z</time>
      </trkpt>
      <trkpt lat="47.522013" lon="7.902637">
        <ele>388.679111</ele>
        <time>2021-11-22T08:52:51.507Z</time>
      </trkpt>
      <trkpt lat="47.521801" lon="7.903318">
        <ele>390.379140</ele>
        <time>2021-11-22T08:53:06.733Z</time>
      </trkpt>
      <trkpt lat="47.521792" lon="7.903347">
        <ele>390.451496</ele>
        <time>2021-11-22T08:53:07.487Z</time>
      </trkpt>
      <trkpt lat="47.521713" lon="7.903500">
        <ele>390.888134</ele>
        <time>2021-11-22T08:53:11.889Z</time>
      </trkpt>
      <trkpt lat="47.521297" lon="7.904312">
        <ele>393.198810</ele>
        <time>2021-11-22T08:53:31.605Z</time>
      </trkpt>
      <trkpt lat="47.520989" lon="7.905130">
        <ele>394.870121</ele>
        <time>2021-11-22T08:53:46.981Z</time>
      </trkpt>
      <trkpt lat="47.520678" lon="7.906050">
        <ele>395.480081</ele>
        <time>2021-11-22T08:54:00.226Z</time>
      </trkpt>
      <trkpt lat="47.520566" lon="7.906668">
        <ele>395.859441</ele>
        <time>2021-11-22T08:54:07.194Z</time>
      </trkpt>
      <trkpt lat="47.520528" lon="7.906930">
        <ele>396.018316</ele>
        <time>2021-11-22T08:54:10.454Z</time>
      </trkpt>
      <trkpt lat="47.520515" lon="7.907103">
        <ele>396.121517</ele>
        <time>2021-11-22T08:54:12.252Z</time>
      </trkpt>
      <trkpt lat="47.520506" lon="7.907236">
        <ele>396.200764</ele>
        <time>2021-11-22T08:54:13.328Z</time>
      </trkpt>
      <trkpt lat="47.520551" lon="7.907422">
        <ele>396.291485</ele>
        <time>2021-11-22T08:54:15.738Z</time>
      </trkpt>
      <trkpt lat="47.520733" lon="7.907655">
        <ele>396.308842</ele>
        <time>2021-11-22T08:54:18.925Z</time>
      </trkpt>
      <trkpt lat="47.520738" lon="7.907839">
        <ele>396.317813</ele>
        <time>2021-11-22T08:54:21.068Z</time>
      </trkpt>
      <trkpt lat="47.520493" lon="7.908683">
        <ele>396.362570</ele>
        <time>2021-11-22T08:54:29.247Z</time>
      </trkpt>
      <trkpt lat="47.519997" lon="7.910833">
        <ele>397.119288</ele>
        <time>2021-11-22T08:54:55.194Z</time>
      </trkpt>
      <trkpt lat="47.519891" lon="7.911129">
        <ele>397.329518</ele>
        <time>2021-11-22T08:54:59.783Z</time>
      </trkpt>
      <trkpt lat="47.519720" lon="7.911522">
        <ele>397.622868</ele>
        <time>2021-11-22T08:55:05.868Z</time>
      </trkpt>
      <trkpt lat="47.519421" lon="7.912098">
        <ele>398.078729</ele>
        <time>2021-11-22T08:55:15.434Z</time>
      </trkpt>
      <trkpt lat="47.517688" lon="7.914418">
        <ele>400.548859</ele>
        <time>2021-11-22T08:56:00.013Z</time>
      </trkpt>
      <trkpt lat="47.517281" lon="7.915238">
        <ele>401.220007</ele>
        <time>2021-11-22T08:56:13.026Z</time>
      </trkpt>
      <trkpt lat="47.517140" lon="7.915259">
        <ele>401.358394</ele>
        <time>2021-11-22T08:56:15.527Z</time>
      </trkpt>
      <trkpt lat="47.516806" lon="7.914896">
        <ele>401.762991</ele>
        <time>2021-11-22T08:56:23.102Z</time>
      </trkpt>
      <trkpt lat="47.516748" lon="7.914873">
        <ele>401.819279</ele>
        <time>2021-11-22T08:56:24.273Z</time>
      </trkpt>
      <trkpt lat="47.516662" lon="7.914835">
        <ele>401.899932</ele>
        <time>2021-11-22T08:56:26.065Z</time>
      </trkpt>
      <trkpt lat="47.516626" lon="7.914830">
        <ele>401.932426</ele>
        <time>2021-11-22T08:56:26.760Z</time>
      </trkpt>
      <trkpt lat="47.516590" lon="7.914840">
        <ele>401.965343</ele>
        <time>2021-11-22T08:56:27.355Z</time>
      </trkpt>
      <trkpt lat="47.516569" lon="7.914864">
        <ele>401.989182</ele>
        <time>2021-11-22T08:56:27.890Z</time>
      </trkpt>
      <trkpt lat="47.516544" lon="7.914936">
        <ele>402.038319</ele>
        <time>2021-11-22T08:56:28.736Z</time>
      </trkpt>
      <trkpt lat="47.516391" lon="7.915243">
        <ele>402.269887</ele>
        <time>2021-11-22T08:56:33.529Z</time>
      </trkpt>
      <trkpt lat="47.515014" lon="7.917030">
        <ele>404.103798</ele>
        <time>2021-11-22T08:57:07.306Z</time>
      </trkpt>
      <trkpt lat="47.514635" lon="7.917349">
        <ele>404.641216</ele>
        <time>2021-11-22T08:57:15.424Z</time>
      </trkpt>
      <trkpt lat="47.514561" lon="7.917409">
        <ele>404.745220</ele>
        <time>2021-11-22T08:57:17.316Z</time>
      </trkpt>
      <trkpt lat="47.514255" lon="7.917714">
        <ele>405.199945</ele>
        <time>2021-11-22T08:57:24.785Z</time>
      </trkpt>
      <trkpt lat="47.513378" lon="7.918393">
        <ele>406.835743</ele>
        <time>2021-11-22T08:57:46.512Z</time>
      </trkpt>
      <trkpt lat="47.513160" lon="7.918764">
        <ele>407.459552</ele>
        <time>2021-11-22T08:57:54.013Z</time>
      </trkpt>
      <trkpt lat="47.513058" lon="7.918896">
        <ele>407.713992</ele>
        <time>2021-11-22T08:57:57.169Z</time>
      </trkpt>
      <trkpt lat="47.512938" lon="7.919052">
        <ele>408.013924</ele>
        <time>2021-11-22T08:58:00.948Z</time>
      </trkpt>
      <trkpt lat="47.512664" lon="7.919306">
        <ele>408.621094</ele>
        <time>2021-11-22T08:58:08.274Z</time>
      </trkpt>
      <trkpt lat="47.512255" lon="7.919538">
        <ele>409.310555</ele>
        <time>2021-11-22T08:58:17.959Z</time>
      </trkpt>
      <trkpt lat="47.512085" lon="7.919732">
        <ele>409.591615</ele>
        <time>2021-11-22T08:58:22.583Z</time>
      </trkpt>
      <trkpt lat="47.511964" lon="7.919989">
        <ele>409.868691</ele>
        <time>2021-11-22T08:58:27.120Z</time>
      </trkpt>
      <trkpt lat="47.511883" lon="7.920133">
        <ele>410.034435</ele>
        <time>2021-11-22T08:58:29.774Z</time>
      </trkpt>
      <trkpt lat="47.511632" lon="7.920105">
        <ele>410.364039</ele>
        <time>2021-11-22T08:58:36.424Z</time>
      </trkpt>
      <trkpt lat="47.511613" lon="7.920183">
        <ele>410.437376</ele>
        <time>2021-11-22T08:58:37.339Z</time>
      </trkpt>
      <trkpt lat="47.511186" lon="7.920984">
        <ele>411.339896</ele>
        <time>2021-11-22T08:58:50.016Z</time>
      </trkpt>
      <trkpt lat="47.511067" lon="7.921207">
        <ele>411.529644</ele>
        <time>2021-11-22T08:58:53.332Z</time>
      </trkpt>
      <trkpt lat="47.511052" lon="7.921232">
        <ele>411.551368</ele>
        <time>2021-11-22T08:58:53.776Z</time>
      </trkpt>
      <trkpt lat="47.510872" lon="7.921477">
        <ele>411.786533</ele>
        <time>2021-11-22T08:58:58.099Z</time>
      </trkpt>
      <trkpt lat="47.510639" lon="7.921796">
        <ele>412.091763</ele>
        <time>2021-11-22T08:59:03.612Z</time>
      </trkpt>
      <trkpt lat="47.509688" lon="7.922616">
        <ele>413.214105</ele>
        <time>2021-11-22T08:59:24.129Z</time>
      </trkpt>
      <trkpt lat="47.509615" lon="7.922742">
        <ele>413.434599</ele>
        <time>2021-11-22T08:59:27.088Z</time>
      </trkpt>
      <trkpt lat="47.509583" lon="7.922962">
        <ele>413.733519</ele>
        <time>2021-11-22T08:59:29.849Z</time>
      </trkpt>
      <trkpt lat="47.509550" lon="7.923245">
        <ele>414.114982</ele>
        <time>2021-11-22T08:59:34.565Z</time>
      </trkpt>
      <trkpt lat="47.509595" lon="7.923295">
        <ele>414.225623</ele>
        <time>2021-11-22T08:59:35.661Z</time>
      </trkpt>
      <trkpt lat="47.509668" lon="7.923400">
        <ele>414.425770</ele>
        <time>2021-11-22T08:59:37.589Z</time>
      </trkpt>
      <trkpt lat="47.509735" lon="7.923538">
        <ele>414.651509</ele>
        <time>2021-11-22T08:59:40.253Z</time>
      </trkpt>
      <trkpt lat="47.509817" lon="7.923703">
        <ele>414.923603</ele>
        <time>2021-11-22T08:59:43.757Z</time>
      </trkpt>
      <trkpt lat="47.509869" lon="7.923971">
        <ele>415.293975</ele>
        <time>2021-11-22T08:59:47.696Z</time>
      </trkpt>
      <trkpt lat="47.509886" lon="7.924134">
        <ele>415.513049</ele>
        <time>2021-11-22T08:59:50.999Z</time>
      </trkpt>
      <trkpt lat="47.509806" lon="7.924174">
        <ele>415.679096</ele>
        <time>2021-11-22T08:59:52.748Z</time>
      </trkpt>
      <trkpt lat="47.509676" lon="7.924247">
        <ele>415.952507</ele>
        <time>2021-11-22T08:59:55.674Z</time>
      </trkpt>
      <trkpt lat="47.509605" lon="7.924290">
        <ele>416.103357</ele>
        <time>2021-11-22T08:59:57.690Z</time>
      </trkpt>
      <trkpt lat="47.509572" lon="7.924311">
        <ele>416.173991</ele>
        <time>2021-11-22T08:59:58.901Z</time>
      </trkpt>
      <trkpt lat="47.509223" lon="7.924628">
        <ele>417.016502</ele>
        <time>2021-11-22T09:00:08.957Z</time>
      </trkpt>
      <trkpt lat="47.509032" lon="7.924863">
        <ele>417.556523</ele>
        <time>2021-11-22T09:00:14.917Z</time>
      </trkpt>
      <trkpt lat="47.509016" lon="7.924882">
        <ele>417.601123</ele>
        <time>2021-11-22T09:00:15.506Z</time>
      </trkpt>
      <trkpt lat="47.508667" lon="7.925295">
        <ele>418.572647</ele>
        <time>2021-11-22T09:00:26.507Z</time>
      </trkpt>
      <trkpt lat="47.508355" lon="7.925609">
        <ele>419.392987</ele>
        <time>2021-11-22T09:00:34.626Z</time>
      </trkpt>
      <trkpt lat="47.508106" lon="7.925799">
        <ele>420.002108</ele>
        <time>2021-11-22T09:00:40.727Z</time>
      </trkpt>
      <trkpt lat="47.508002" lon="7.925879">
        <ele>420.256954</ele>
        <time>2021-11-22T09:00:42.992Z</time>
      </trkpt>
      <trkpt lat="47.507856" lon="7.925990">
        <ele>420.633700</ele>
        <time>2021-11-22T09:00:46.718Z</time>
      </trkpt>
      <trkpt lat="47.506112" lon="7.927414">
        <ele>426.302961</ele>
        <time>2021-11-22T09:01:37.842Z</time>
      </trkpt>
      <trkpt lat="47.505881" lon="7.927601">
        <ele>427.274794</ele>
        <time>2021-11-22T09:01:47.335Z</time>
      </trkpt>
      <trkpt lat="47.505868" lon="7.927611">
        <ele>427.328871</ele>
        <time>2021-11-22T09:01:47.819Z</time>
      </trkpt>
      <trkpt lat="47.505814" lon="7.927657">
        <ele>427.558842</ele>
        <time>2021-11-22T09:01:49.713Z</time>
      </trkpt>
      <trkpt lat="47.505253" lon="7.928170">
        <ele>429.992835</ele>
        <time>2021-11-22T09:02:11.587Z</time>
      </trkpt>
      <trkpt lat="47.504799" lon="7.928777">
        <ele>432.166234</ele>
        <time>2021-11-22T09:02:27.422Z</time>
      </trkpt>
      <trkpt lat="47.504724" lon="7.928871">
        <ele>432.326362</ele>
        <time>2021-11-22T09:02:31.939Z</time>
      </trkpt>
      <trkpt lat="47.504650" lon="7.928941">
        <ele>432.469457</ele>
        <time>2021-11-22T09:02:33.911Z</time>
      </trkpt>
      <trkpt lat="47.504005" lon="7.929312">
        <ele>433.597002</ele>
        <time>2021-11-22T09:02:49.250Z</time>
      </trkpt>
      <trkpt lat="47.503815" lon="7.929426">
        <ele>433.931062</ele>
        <time>2021-11-22T09:02:52.119Z</time>
      </trkpt>
      <trkpt lat="47.503598" lon="7.929585">
        <ele>434.325597</ele>
        <time>2021-11-22T09:02:57.530Z</time>
      </trkpt>
      <trkpt lat="47.503528" lon="7.929650">
        <ele>434.460242</ele>
        <time>2021-11-22T09:02:58.588Z</time>
      </trkpt>
      <trkpt lat="47.503485" lon="7.929688">
        <ele>434.541845</ele>
        <time>2021-11-22T09:03:00.133Z</time>
      </trkpt>
      <trkpt lat="47.503014" lon="7.930220">
        <ele>435.276505</ele>
        <time>2021-11-22T09:03:10.217Z</time>
      </trkpt>
      <trkpt lat="47.502761" lon="7.930610">
        <ele>435.583913</ele>
        <time>2021-11-22T09:03:16.571Z</time>
      </trkpt>
      <trkpt lat="47.502613" lon="7.930856">
        <ele>435.771196</ele>
        <time>2021-11-22T09:03:20.369Z</time>
      </trkpt>
      <trkpt lat="47.502400" lon="7.931256">
        <ele>436.060768</ele>
        <time>2021-11-22T09:03:27.173Z</time>
      </trkpt>
      <trkpt lat="47.502023" lon="7.932158">
        <ele>436.623456</ele>
        <time>2021-11-22T09:03:40.190Z</time>
      </trkpt>
      <trkpt lat="47.501901" lon="7.932351">
        <ele>436.723211</ele>
        <time>2021-11-22T09:03:44.042Z</time>
      </trkpt>
      <trkpt lat="47.501794" lon="7.932466">
        <ele>436.797083</ele>
        <time>2021-11-22T09:03:45.862Z</time>
      </trkpt>
      <trkpt lat="47.501463" lon="7.932668">
        <ele>436.997100</ele>
        <time>2021-11-22T09:03:52.002Z</time>
      </trkpt>
      <trkpt lat="47.501075" lon="7.932885">
        <ele>437.228817</ele>
        <time>2021-11-22T09:03:59.535Z</time>
      </trkpt>
      <trkpt lat="47.500990" lon="7.932950">
        <ele>437.282266</ele>
        <time>2021-11-22T09:04:01.498Z</time>
      </trkpt>
      <trkpt lat="47.500843" lon="7.933102">
        <ele>437.382442</ele>
        <time>2021-11-22T09:04:04.241Z</time>
      </trkpt>
      <trkpt lat="47.500435" lon="7.933872">
        <ele>437.812221</ele>
        <time>2021-11-22T09:04:14.114Z</time>
      </trkpt>
      <trkpt lat="47.500386" lon="7.933937">
        <ele>437.859915</ele>
        <time>2021-11-22T09:04:14.950Z</time>
      </trkpt>
      <trkpt lat="47.500352" lon="7.933976">
        <ele>437.891094</ele>
        <time>2021-11-22T09:04:15.708Z</time>
      </trkpt>
      <trkpt lat="47.500275" lon="7.934029">
        <ele>437.952647</ele>
        <time>2021-11-22T09:04:16.861Z</time>
      </trkpt>
      <trkpt lat="47.500208" lon="7.934071">
        <ele>438.005388</ele>
        <time>2021-11-22T09:04:18.142Z</time>
      </trkpt>
      <trkpt lat="47.500193" lon="7.934023">
        <ele>438.031286</ele>
        <time>2021-11-22T09:04:18.604Z</time>
      </trkpt>
      <trkpt lat="47.500169" lon="7.933984">
        <ele>438.057120</ele>
        <time>2021-11-22T09:04:19.027Z</time>
      </trkpt>
      <trkpt lat="47.500138" lon="7.933956">
        <ele>438.083443</ele>
        <time>2021-11-22T09:04:19.545Z</time>
      </trkpt>
      <trkpt lat="47.500067" lon="7.933946">
        <ele>438.135140</ele>
        <time>2021-11-22T09:04:20.472Z</time>
      </trkpt>
      <trkpt lat="47.500034" lon="7.933965">
        <ele>438.160807</ele>
        <time>2021-11-22T09:04:21.287Z</time>
      </trkpt>
      <trkpt lat="47.499993" lon="7.933864">
        <ele>438.218508</ele>
        <time>2021-11-22T09:04:22.915Z</time>
      </trkpt>
      <trkpt lat="47.499822" lon="7.933272">
        <ele>438.533800</ele>
        <time>2021-11-22T09:04:30.792Z</time>
      </trkpt>
      <trkpt lat="47.499538" lon="7.932868">
        <ele>438.819315</ele>
        <time>2021-11-22T09:04:38.749Z</time>
      </trkpt>
      <trkpt lat="47.499421" lon="7.932805">
        <ele>438.989402</ele>
        <time>2021-11-22T09:04:41.800Z</time>
      </trkpt>
      <trkpt lat="47.499354" lon="7.932769">
        <ele>439.113186</ele>
        <time>2021-11-22T09:04:43.528Z</time>
      </trkpt>
      <trkpt lat="47.499088" lon="7.932741">
        <ele>439.576301</ele>
        <time>2021-11-22T09:04:49.405Z</time>
      </trkpt>
      <trkpt lat="47.498997" lon="7.932758">
        <ele>439.735590</ele>
        <time>2021-11-22T09:04:51.443Z</time>
      </trkpt>
      <trkpt lat="47.498925" lon="7.932781">
        <ele>439.863507</ele>
        <time>2021-11-22T09:04:53.150Z</time>
      </trkpt>
      <trkpt lat="47.498481" lon="7.933011">
        <ele>440.680437</ele>
        <time>2021-11-22T09:05:02.403Z</time>
      </trkpt>
      <trkpt lat="47.498431" lon="7.932995">
        <ele>440.769275</ele>
        <time>2021-11-22T09:05:03.626Z</time>
      </trkpt>
      <trkpt lat="47.498391" lon="7.932972">
        <ele>440.843799</ele>
        <time>2021-11-22T09:05:04.545Z</time>
      </trkpt>
      <trkpt lat="47.498196" lon="7.932613">
        <ele>441.384265</ele>
        <time>2021-11-22T09:05:11.268Z</time>
      </trkpt>
      <trkpt lat="47.498138" lon="7.932522">
        <ele>441.531049</ele>
        <time>2021-11-22T09:05:13.269Z</time>
      </trkpt>
      <trkpt lat="47.498068" lon="7.932426">
        <ele>441.696775</ele>
        <time>2021-11-22T09:05:15.716Z</time>
      </trkpt>
      <trkpt lat="47.497907" lon="7.932254">
        <ele>442.036704</ele>
        <time>2021-11-22T09:05:20.418Z</time>
      </trkpt>
      <trkpt lat="47.497676" lon="7.932013">
        <ele>442.490906</ele>
        <time>2021-11-22T09:05:26.896Z</time>
      </trkpt>
      <trkpt lat="47.497430" lon="7.931757">
        <ele>442.974197</ele>
        <time>2021-11-22T09:05:34.488Z</time>
      </trkpt>
      <trkpt lat="47.497221" lon="7.931528">
        <ele>443.392108</ele>
        <time>2021-11-22T09:05:40.485Z</time>
      </trkpt>
      <trkpt lat="47.497104" lon="7.931414">
        <ele>443.617228</ele>
        <time>2021-11-22T09:05:43.283Z</time>
      </trkpt>
      <trkpt lat="47.496998" lon="7.931330">
        <ele>443.810463</ele>
        <time>2021-11-22T09:05:45.694Z</time>
      </trkpt>
      <trkpt lat="47.496424" lon="7.931075">
        <ele>444.773612</ele>
        <time>2021-11-22T09:05:56.442Z</time>
      </trkpt>
      <trkpt lat="47.496205" lon="7.930904">
        <ele>445.236551</ele>
        <time>2021-11-22T09:06:00.462Z</time>
      </trkpt>
      <trkpt lat="47.496162" lon="7.930842">
        <ele>445.353595</ele>
        <time>2021-11-22T09:06:02.028Z</time>
      </trkpt>
      <trkpt lat="47.496117" lon="7.930763">
        <ele>445.489712</ele>
        <time>2021-11-22T09:06:03.296Z</time>
      </trkpt>
      <trkpt lat="47.496051" lon="7.930607">
        <ele>445.732178</ele>
        <time>2021-11-22T09:06:06.078Z</time>
      </trkpt>
      <trkpt lat="47.495985" lon="7.930428">
        <ele>446.000805</ele>
        <time>2021-11-22T09:06:08.910Z</time>
      </trkpt>
      <trkpt lat="47.495801" lon="7.929891">
        <ele>446.793973</ele>
        <time>2021-11-22T09:06:18.567Z</time>
      </trkpt>
      <trkpt lat="47.495622" lon="7.929400">
        <ele>447.528929</ele>
        <time>2021-11-22T09:06:27.180Z</time>
      </trkpt>
      <trkpt lat="47.495562" lon="7.929221">
        <ele>447.792154</ele>
        <time>2021-11-22T09:06:30.140Z</time>
      </trkpt>
      <trkpt lat="47.495530" lon="7.929063">
        <ele>448.009441</ele>
        <time>2021-11-22T09:06:32.614Z</time>
      </trkpt>
      <trkpt lat="47.495455" lon="7.928595">
        <ele>448.872064</ele>
        <time>2021-11-22T09:06:41.441Z</time>
      </trkpt>
      <trkpt lat="47.495268" lon="7.927740">
        <ele>451.061623</ele>
        <time>2021-11-22T09:06:58.451Z</time>
      </trkpt>
      <trkpt lat="47.495031" lon="7.927006">
        <ele>453.043677</ele>
        <time>2021-11-22T09:07:15.353Z</time>
      </trkpt>
      <trkpt lat="47.494945" lon="7.926765">
        <ele>453.707721</ele>
        <time>2021-11-22T09:07:21.996Z</time>
      </trkpt>
      <trkpt lat="47.494515" lon="7.925509">
        <ele>457.129862</ele>
        <time>2021-11-22T09:07:50.415Z</time>
      </trkpt>
      <trkpt lat="47.494438" lon="7.925289">
        <ele>457.731290</ele>
        <time>2021-11-22T09:07:55.848Z</time>
      </trkpt>
      <trkpt lat="47.494034" lon="7.924101">
        <ele>460.959733</ele>
        <time>2021-11-22T09:08:20.911Z</time>
      </trkpt>
      <trkpt lat="47.493708" lon="7.923049">
        <ele>463.736848</ele>
        <time>2021-11-22T09:08:42.483Z</time>
      </trkpt>
      <trkpt lat="47.493397" lon="7.921760">
        <ele>467.015472</ele>
        <time>2021-11-22T09:09:09.463Z</time>
      </trkpt>
      <trkpt lat="47.493307" lon="7.921373">
        <ele>468.083888</ele>
        <time>2021-11-22T09:09:17.957Z</time>
      </trkpt>
      <trkpt lat="47.493236" lon="7.921091">
        <ele>469.017715</ele>
        <time>2021-11-22T09:09:24.338Z</time>
      </trkpt>
      <trkpt lat="47.493132" lon="7.920716">
        <ele>470.275556</ele>
        <time>2021-11-22T09:09:33.388Z</time>
      </trkpt>
      <trkpt lat="47.492813" lon="7.919900">
        <ele>473.200900</ele>
        <time>2021-11-22T09:09:54.871Z</time>
      </trkpt>
      <trkpt lat="47.492584" lon="7.919482">
        <ele>474.870758</ele>
        <time>2021-11-22T09:10:07.643Z</time>
      </trkpt>
      <trkpt lat="47.492227" lon="7.918989">
        <ele>477.040517</ele>
        <time>2021-11-22T09:10:24.545Z</time>
      </trkpt>
      <trkpt lat="47.491324" lon="7.917985">
        <ele>481.901257</ele>
        <time>2021-11-22T09:11:01.330Z</time>
      </trkpt>
      <trkpt lat="47.490822" lon="7.917158">
        <ele>484.634401</ele>
        <time>2021-11-22T09:11:23.490Z</time>
      </trkpt>
      <trkpt lat="47.490607" lon="7.916690">
        <ele>485.707138</ele>
        <time>2021-11-22T09:11:33.688Z</time>
      </trkpt>
      <trkpt lat="47.490429" lon="7.916164">
        <ele>486.822258</ele>
        <time>2021-11-22T09:11:43.557Z</time>
      </trkpt>
      <trkpt lat="47.490283" lon="7.915612">
        <ele>487.945920</ele>
        <time>2021-11-22T09:11:53.385Z</time>
      </trkpt>
      <trkpt lat="47.489987" lon="7.914083">
        <ele>490.666870</ele>
        <time>2021-11-22T09:12:19.166Z</time>
      </trkpt>
      <trkpt lat="47.489951" lon="7.913893">
        <ele>490.991303</ele>
        <time>2021-11-22T09:12:22.160Z</time>
      </trkpt>
      <trkpt lat="47.489922" lon="7.913738">
        <ele>491.255732</ele>
        <time>2021-11-22T09:12:24.665Z</time>
      </trkpt>
      <trkpt lat="47.489843" lon="7.913398">
        <ele>491.846861</ele>
        <time>2021-11-22T09:12:30.011Z</time>
      </trkpt>
      <trkpt lat="47.489607" lon="7.912646">
        <ele>493.262796</ele>
        <time>2021-11-22T09:12:44.240Z</time>
      </trkpt>
      <trkpt lat="47.489216" lon="7.911685">
        <ele>496.197930</ele>
        <time>2021-11-22T09:13:06.554Z</time>
      </trkpt>
      <trkpt lat="47.489040" lon="7.911300">
        <ele>497.414178</ele>
        <time>2021-11-22T09:13:16.021Z</time>
      </trkpt>
      <trkpt lat="47.488908" lon="7.911009">
        <ele>498.331249</ele>
        <time>2021-11-22T09:13:24.582Z</time>
      </trkpt>
      <trkpt lat="47.488699" lon="7.910498">
        <ele>499.894166</ele>
        <time>2021-11-22T09:13:38.245Z</time>
      </trkpt>
      <trkpt lat="47.488366" lon="7.909318">
        <ele>502.945012</ele>
        <time>2021-11-22T09:14:04.117Z</time>
      </trkpt>
      <trkpt lat="47.488241" lon="7.908835">
        <ele>504.171716</ele>
        <time>2021-11-22T09:14:13.304Z</time>
      </trkpt>
      <trkpt lat="47.488185" lon="7.908663">
        <ele>504.624542</ele>
        <time>2021-11-22T09:14:17.356Z</time>
      </trkpt>
      <trkpt lat="47.488080" lon="7.908344">
        <ele>505.466122</ele>
        <time>2021-11-22T09:14:23.317Z</time>
      </trkpt>
      <trkpt lat="47.487763" lon="7.907711">
        <ele>507.383968</ele>
        <time>2021-11-22T09:14:38.374Z</time>
      </trkpt>
      <trkpt lat="47.487587" lon="7.907459">
        <ele>508.288668</ele>
        <time>2021-11-22T09:14:44.834Z</time>
      </trkpt>
      <trkpt lat="47.487378" lon="7.907191">
        <ele>509.310296</ele>
        <time>2021-11-22T09:14:52.033Z</time>
      </trkpt>
      <trkpt lat="47.487197" lon="7.906946">
        <ele>510.216479</ele>
        <time>2021-11-22T09:14:58.174Z</time>
      </trkpt>
      <trkpt lat="47.486969" lon="7.906583">
        <ele>511.453661</ele>
        <time>2021-11-22T09:15:06.482Z</time>
      </trkpt>
      <trkpt lat="47.486769" lon="7.905976">
        <ele>513.248171</ele>
        <time>2021-11-22T09:15:22.282Z</time>
      </trkpt>
      <trkpt lat="47.486724" lon="7.905485">
        <ele>515.882010</ele>
        <time>2021-11-22T09:15:36.506Z</time>
      </trkpt>
      <trkpt lat="47.486755" lon="7.904487">
        <ele>521.192552</ele>
        <time>2021-11-22T09:16:08.419Z</time>
      </trkpt>
      <trkpt lat="47.486721" lon="7.904326">
        <ele>522.089175</ele>
        <time>2021-11-22T09:16:14.828Z</time>
      </trkpt>
      <trkpt lat="47.486721" lon="7.904326">
        <ele>522.089175</ele>
        <time>2021-11-22T09:16:14.949Z</time>
      </trkpt>
      <trkpt lat="47.486787" lon="7.904241">
        <ele>522.777413</ele>
        <time>2021-11-22T09:16:20.572Z</time>
      </trkpt>
      <trkpt lat="47.486851" lon="7.904088">
        <ele>523.733899</ele>
        <time>2021-11-22T09:16:28.589Z</time>
      </trkpt>
      <trkpt lat="47.486956" lon="7.903776">
        <ele>525.586636</ele>
        <time>2021-11-22T09:16:46.123Z</time>
      </trkpt>
      <trkpt lat="47.487094" lon="7.903449">
        <ele>527.683415</ele>
        <time>2021-11-22T09:17:05.194Z</time>
      </trkpt>
      <trkpt lat="47.487618" lon="7.902286">
        <ele>535.907264</ele>
        <time>2021-11-22T09:18:16.226Z</time>
      </trkpt>
      <trkpt lat="47.488244" lon="7.900510">
        <ele>545.214355</ele>
        <time>2021-11-22T09:19:50.009Z</time>
      </trkpt>
      <trkpt lat="47.488318" lon="7.900297">
        <ele>545.902198</ele>
        <time>2021-11-22T09:19:59.902Z</time>
      </trkpt>
      <trkpt lat="47.488332" lon="7.900256">
        <ele>546.034129</ele>
        <time>2021-11-22T09:20:02.243Z</time>
      </trkpt>
      <trkpt lat="47.488488" lon="7.899603">
        <ele>548.023272</ele>
        <time>2021-11-22T09:20:26.353Z</time>
      </trkpt>
      <trkpt lat="47.488504" lon="7.899482">
        <ele>548.377370</ele>
        <time>2021-11-22T09:20:30.498Z</time>
      </trkpt>
      <trkpt lat="47.488505" lon="7.899198">
        <ele>549.193018</ele>
        <time>2021-11-22T09:20:34.683Z</time>
      </trkpt>
      <trkpt lat="47.488244" lon="7.897339">
        <ele>548.239676</ele>
        <time>2021-11-22T09:20:51.373Z</time>
      </trkpt>
      <trkpt lat="47.488196" lon="7.897116">
        <ele>547.874308</ele>
        <time>2021-11-22T09:20:52.780Z</time>
      </trkpt>
      <trkpt lat="47.488140" lon="7.896871">
        <ele>547.470540</ele>
        <time>2021-11-22T09:20:54.695Z</time>
      </trkpt>
      <trkpt lat="47.488101" lon="7.896765">
        <ele>547.282121</ele>
        <time>2021-11-22T09:20:55.473Z</time>
      </trkpt>
      <trkpt lat="47.488083" lon="7.896718">
        <ele>547.197782</ele>
        <time>2021-11-22T09:20:55.795Z</time>
      </trkpt>
      <trkpt lat="47.487908" lon="7.896570">
        <ele>546.732123</ele>
        <time>2021-11-22T09:20:57.761Z</time>
      </trkpt>
      <trkpt lat="47.487421" lon="7.896715">
        <ele>544.126368</ele>
        <time>2021-11-22T09:21:02.536Z</time>
      </trkpt>
      <trkpt lat="47.487234" lon="7.896710">
        <ele>542.860774</ele>
        <time>2021-11-22T09:21:04.271Z</time>
      </trkpt>
      <trkpt lat="47.487132" lon="7.896643">
        <ele>542.105623</ele>
        <time>2021-11-22T09:21:05.542Z</time>
      </trkpt>
      <trkpt lat="47.487062" lon="7.896463">
        <ele>541.155972</ele>
        <time>2021-11-22T09:21:06.772Z</time>
      </trkpt>
      <trkpt lat="47.487089" lon="7.896052">
        <ele>539.267735</ele>
        <time>2021-11-22T09:21:09.307Z</time>
      </trkpt>
      <trkpt lat="47.487149" lon="7.895169">
        <ele>535.209689</ele>
        <time>2021-11-22T09:21:14.584Z</time>
      </trkpt>
      <trkpt lat="47.487161" lon="7.894314">
        <ele>529.797789</ele>
        <time>2021-11-22T09:21:19.631Z</time>
      </trkpt>
      <trkpt lat="47.487170" lon="7.894195">
        <ele>528.963813</ele>
        <time>2021-11-22T09:21:20.295Z</time>
      </trkpt>
      <trkpt lat="47.487181" lon="7.894092">
        <ele>528.237545</ele>
        <time>2021-11-22T09:21:20.899Z</time>
      </trkpt>
      <trkpt lat="47.487216" lon="7.893977">
        <ele>527.359118</ele>
        <time>2021-11-22T09:21:21.731Z</time>
      </trkpt>
      <trkpt lat="47.487256" lon="7.893919">
        <ele>526.781937</ele>
        <time>2021-11-22T09:21:22.231Z</time>
      </trkpt>
      <trkpt lat="47.487323" lon="7.893893">
        <ele>526.068050</ele>
        <time>2021-11-22T09:21:22.823Z</time>
      </trkpt>
      <trkpt lat="47.487476" lon="7.893956">
        <ele>524.431239</ele>
        <time>2021-11-22T09:21:24.149Z</time>
      </trkpt>
      <trkpt lat="47.487632" lon="7.894208">
        <ele>522.051018</ele>
        <time>2021-11-22T09:21:26.176Z</time>
      </trkpt>
      <trkpt lat="47.487657" lon="7.894274">
        <ele>521.524061</ele>
        <time>2021-11-22T09:21:26.598Z</time>
      </trkpt>
      <trkpt lat="47.487689" lon="7.894368">
        <ele>520.791001</ele>
        <time>2021-11-22T09:21:27.184Z</time>
      </trkpt>
      <trkpt lat="47.487840" lon="7.894546">
        <ele>518.801301</ele>
        <time>2021-11-22T09:21:28.918Z</time>
      </trkpt>
      <trkpt lat="47.488123" lon="7.894358">
        <ele>515.608431</ele>
        <time>2021-11-22T09:21:31.527Z</time>
      </trkpt>
      <trkpt lat="47.488180" lon="7.894303">
        <ele>515.017052</ele>
        <time>2021-11-22T09:21:32.112Z</time>
      </trkpt>
      <trkpt lat="47.488216" lon="7.894259">
        <ele>514.611269</ele>
        <time>2021-11-22T09:21:32.486Z</time>
      </trkpt>
      <trkpt lat="47.488316" lon="7.893785">
        <ele>511.695069</ele>
        <time>2021-11-22T09:21:35.366Z</time>
      </trkpt>
      <trkpt lat="47.488417" lon="7.893532">
        <ele>509.969350</ele>
        <time>2021-11-22T09:21:37.074Z</time>
      </trkpt>
      <trkpt lat="47.488372" lon="7.893226">
        <ele>508.130227</ele>
        <time>2021-11-22T09:21:38.945Z</time>
      </trkpt>
      <trkpt lat="47.488323" lon="7.893133">
        <ele>507.437662</ele>
        <time>2021-11-22T09:21:39.618Z</time>
      </trkpt>
      <trkpt lat="47.488250" lon="7.893055">
        <ele>506.655143</ele>
        <time>2021-11-22T09:21:40.445Z</time>
      </trkpt>
      <trkpt lat="47.488168" lon="7.892899">
        <ele>505.494452</ele>
        <time>2021-11-22T09:21:41.642Z</time>
      </trkpt>
      <trkpt lat="47.488137" lon="7.892763">
        <ele>504.651540</ele>
        <time>2021-11-22T09:21:42.490Z</time>
      </trkpt>
      <trkpt lat="47.488084" lon="7.892534">
        <ele>503.229981</ele>
        <time>2021-11-22T09:21:43.962Z</time>
      </trkpt>
      <trkpt lat="47.487680" lon="7.891282">
        <ele>497.311466</ele>
        <time>2021-11-22T09:21:52.500Z</time>
      </trkpt>
      <trkpt lat="47.487518" lon="7.890485">
        <ele>494.639562</ele>
        <time>2021-11-22T09:21:57.869Z</time>
      </trkpt>
      <trkpt lat="47.487490" lon="7.890449">
        <ele>494.463346</ele>
        <time>2021-11-22T09:21:58.241Z</time>
      </trkpt>
      <trkpt lat="47.487367" lon="7.890321">
        <ele>493.748974</ele>
        <time>2021-11-22T09:21:59.721Z</time>
      </trkpt>
      <trkpt lat="47.486940" lon="7.889619">
        <ele>490.826166</ele>
        <time>2021-11-22T09:22:06.192Z</time>
      </trkpt>
      <trkpt lat="47.486763" lon="7.889251">
        <ele>489.591013</ele>
        <time>2021-11-22T09:22:09.329Z</time>
      </trkpt>
      <trkpt lat="47.486746" lon="7.889218">
        <ele>489.477545</ele>
        <time>2021-11-22T09:22:09.569Z</time>
      </trkpt>
      <trkpt lat="47.486185" lon="7.888073">
        <ele>485.610185</ele>
        <time>2021-11-22T09:22:18.883Z</time>
      </trkpt>
      <trkpt lat="47.485991" lon="7.887744">
        <ele>484.416182</ele>
        <time>2021-11-22T09:22:21.716Z</time>
      </trkpt>
      <trkpt lat="47.485842" lon="7.887493">
        <ele>483.472630</ele>
        <time>2021-11-22T09:22:23.806Z</time>
      </trkpt>
      <trkpt lat="47.485824" lon="7.887463">
        <ele>483.358046</ele>
        <time>2021-11-22T09:22:24.064Z</time>
      </trkpt>
      <trkpt lat="47.485730" lon="7.887323">
        <ele>482.794371</ele>
        <time>2021-11-22T09:22:25.344Z</time>
      </trkpt>
      <trkpt lat="47.484923" lon="7.886213">
        <ele>478.137695</ele>
        <time>2021-11-22T09:22:35.958Z</time>
      </trkpt>
      <trkpt lat="47.484859" lon="7.886144">
        <ele>477.803020</ele>
        <time>2021-11-22T09:22:36.674Z</time>
      </trkpt>
      <trkpt lat="47.484724" lon="7.885990">
        <ele>477.082581</ele>
        <time>2021-11-22T09:22:38.470Z</time>
      </trkpt>
      <trkpt lat="47.484124" lon="7.885514">
        <ele>474.783374</ele>
        <time>2021-11-22T09:22:45.375Z</time>
      </trkpt>
      <trkpt lat="47.483644" lon="7.884992">
        <ele>472.880046</ele>
        <time>2021-11-22T09:22:51.261Z</time>
      </trkpt>
      <trkpt lat="47.483551" lon="7.884901">
        <ele>472.523802</ele>
        <time>2021-11-22T09:22:52.409Z</time>
      </trkpt>
      <trkpt lat="47.483495" lon="7.884861">
        <ele>472.325116</ele>
        <time>2021-11-22T09:22:53.212Z</time>
      </trkpt>
      <trkpt lat="47.483344" lon="7.884768">
        <ele>471.802521</ele>
        <time>2021-11-22T09:22:54.844Z</time>
      </trkpt>
      <trkpt lat="47.482795" lon="7.884621">
        <ele>470.232080</ele>
        <time>2021-11-22T09:23:00.834Z</time>
      </trkpt>
      <trkpt lat="47.482343" lon="7.884501">
        <ele>469.150280</ele>
        <time>2021-11-22T09:23:05.646Z</time>
      </trkpt>
      <trkpt lat="47.482094" lon="7.884439">
        <ele>468.555453</ele>
        <time>2021-11-22T09:23:08.370Z</time>
      </trkpt>
      <trkpt lat="47.481625" lon="7.884355">
        <ele>467.442544</ele>
        <time>2021-11-22T09:23:13.442Z</time>
      </trkpt>
      <trkpt lat="47.481202" lon="7.884417">
        <ele>466.486442</ele>
        <time>2021-11-22T09:23:18.012Z</time>
      </trkpt>
      <trkpt lat="47.481022" lon="7.884472">
        <ele>466.184742</ele>
        <time>2021-11-22T09:23:19.905Z</time>
      </trkpt>
      <trkpt lat="47.480931" lon="7.884489">
        <ele>466.034182</ele>
        <time>2021-11-22T09:23:20.971Z</time>
      </trkpt>
      <trkpt lat="47.480537" lon="7.884477">
        <ele>465.387304</ele>
        <time>2021-11-22T09:23:25.353Z</time>
      </trkpt>
      <trkpt lat="47.479813" lon="7.884128">
        <ele>464.137398</ele>
        <time>2021-11-22T09:23:34.140Z</time>
      </trkpt>
      <trkpt lat="47.479273" lon="7.883853">
        <ele>463.653518</ele>
        <time>2021-11-22T09:23:41.009Z</time>
      </trkpt>
      <trkpt lat="47.479105" lon="7.883776">
        <ele>463.663735</ele>
        <time>2021-11-22T09:23:43.182Z</time>
      </trkpt>
      <trkpt lat="47.478811" lon="7.883733">
        <ele>463.680897</ele>
        <time>2021-11-22T09:23:46.944Z</time>
      </trkpt>
      <trkpt lat="47.478579" lon="7.883777">
        <ele>463.694484</ele>
        <time>2021-11-22T09:23:49.992Z</time>
      </trkpt>
      <trkpt lat="47.477249" lon="7.884423">
        <ele>465.885654</ele>
        <time>2021-11-22T09:24:16.453Z</time>
      </trkpt>
      <trkpt lat="47.476108" lon="7.884690">
        <ele>470.204358</ele>
        <time>2021-11-22T09:24:56.180Z</time>
      </trkpt>
      <trkpt lat="47.475795" lon="7.884698">
        <ele>471.696685</ele>
        <time>2021-11-22T09:25:08.198Z</time>
      </trkpt>
      <trkpt lat="47.475660" lon="7.884681">
        <ele>472.382857</ele>
        <time>2021-11-22T09:25:13.773Z</time>
      </trkpt>
      <trkpt lat="47.475395" lon="7.884643">
        <ele>473.731223</ele>
        <time>2021-11-22T09:25:24.359Z</time>
      </trkpt>
      <trkpt lat="47.474825" lon="7.884590">
        <ele>476.623650</ele>
        <time>2021-11-22T09:25:44.868Z</time>
      </trkpt>
      <trkpt lat="47.474703" lon="7.884534">
        <ele>477.270567</ele>
        <time>2021-11-22T09:25:50.482Z</time>
      </trkpt>
      <trkpt lat="47.474508" lon="7.884402">
        <ele>478.356596</ele>
        <time>2021-11-22T09:25:57.313Z</time>
      </trkpt>
      <trkpt lat="47.473290" lon="7.883592">
        <ele>481.364938</ele>
        <time>2021-11-22T09:26:33.645Z</time>
      </trkpt>
      <trkpt lat="47.473082" lon="7.883408">
        <ele>481.761018</ele>
        <time>2021-11-22T09:26:37.357Z</time>
      </trkpt>
      <trkpt lat="47.472670" lon="7.883027">
        <ele>482.350508</ele>
        <time>2021-11-22T09:26:44.077Z</time>
      </trkpt>
      <trkpt lat="47.471932" lon="7.882355">
        <ele>476.441614</ele>
        <time>2021-11-22T09:26:53.067Z</time>
      </trkpt>
      <trkpt lat="47.471600" lon="7.881776">
        <ele>472.942151</ele>
        <time>2021-11-22T09:26:57.466Z</time>
      </trkpt>
      <trkpt lat="47.471472" lon="7.881494">
        <ele>471.376551</ele>
        <time>2021-11-22T09:26:59.487Z</time>
      </trkpt>
      <trkpt lat="47.471451" lon="7.881438">
        <ele>471.081385</ele>
        <time>2021-11-22T09:26:59.863Z</time>
      </trkpt>
      <trkpt lat="47.471376" lon="7.881235">
        <ele>469.741339</ele>
        <time>2021-11-22T09:27:01.156Z</time>
      </trkpt>
      <trkpt lat="47.471173" lon="7.880721">
        <ele>463.817970</ele>
        <time>2021-11-22T09:27:04.522Z</time>
      </trkpt>
      <trkpt lat="47.471143" lon="7.880602">
        <ele>462.554226</ele>
        <time>2021-11-22T09:27:05.237Z</time>
      </trkpt>
      <trkpt lat="47.471122" lon="7.880528">
        <ele>461.755653</ele>
        <time>2021-11-22T09:27:05.687Z</time>
      </trkpt>
      <trkpt lat="47.471056" lon="7.880271">
        <ele>459.020113</ele>
        <time>2021-11-22T09:27:07.217Z</time>
      </trkpt>
      <trkpt lat="47.470688" lon="7.879298">
        <ele>447.926084</ele>
        <time>2021-11-22T09:27:13.453Z</time>
      </trkpt>
      <trkpt lat="47.470641" lon="7.879203">
        <ele>446.754673</ele>
        <time>2021-11-22T09:27:14.114Z</time>
      </trkpt>
      <trkpt lat="47.470626" lon="7.879175">
        <ele>446.399179</ele>
        <time>2021-11-22T09:27:14.311Z</time>
      </trkpt>
      <trkpt lat="47.470496" lon="7.878920">
        <ele>443.423240</ele>
        <time>2021-11-22T09:27:16.111Z</time>
      </trkpt>
      <trkpt lat="47.470372" lon="7.878664">
        <ele>441.432693</ele>
        <time>2021-11-22T09:27:17.878Z</time>
      </trkpt>
      <trkpt lat="47.470277" lon="7.878469">
        <ele>439.913470</ele>
        <time>2021-11-22T09:27:19.248Z</time>
      </trkpt>
      <trkpt lat="47.470106" lon="7.878102">
        <ele>437.096203</ele>
        <time>2021-11-22T09:27:21.825Z</time>
      </trkpt>
      <trkpt lat="47.469549" lon="7.877073">
        <ele>428.764151</ele>
        <time>2021-11-22T09:27:29.721Z</time>
      </trkpt>
      <trkpt lat="47.469512" lon="7.877020">
        <ele>428.282588</ele>
        <time>2021-11-22T09:27:30.168Z</time>
      </trkpt>
      <trkpt lat="47.469475" lon="7.876966">
        <ele>427.796607</ele>
        <time>2021-11-22T09:27:30.663Z</time>
      </trkpt>
      <trkpt lat="47.469413" lon="7.876875">
        <ele>426.979978</ele>
        <time>2021-11-22T09:27:31.541Z</time>
      </trkpt>
      <trkpt lat="47.469384" lon="7.876836">
        <ele>426.838238</ele>
        <time>2021-11-22T09:27:32.366Z</time>
      </trkpt>
      <trkpt lat="47.469354" lon="7.876797">
        <ele>426.708730</ele>
        <time>2021-11-22T09:27:32.719Z</time>
      </trkpt>
      <trkpt lat="47.469265" lon="7.876688">
        <ele>426.334055</ele>
        <time>2021-11-22T09:27:33.827Z</time>
      </trkpt>
      <trkpt lat="47.469079" lon="7.876501">
        <ele>425.604796</ele>
        <time>2021-11-22T09:27:36.167Z</time>
      </trkpt>
      <trkpt lat="47.468740" lon="7.876159">
        <ele>424.274209</ele>
        <time>2021-11-22T09:27:40.354Z</time>
      </trkpt>
      <trkpt lat="47.468698" lon="7.876140">
        <ele>424.131788</ele>
        <time>2021-11-22T09:27:40.784Z</time>
      </trkpt>
      <trkpt lat="47.468806" lon="7.875696">
        <ele>423.097418</ele>
        <time>2021-11-22T09:27:44.098Z</time>
      </trkpt>
      <trkpt lat="47.468925" lon="7.875205">
        <ele>421.954030</ele>
        <time>2021-11-22T09:27:47.800Z</time>
      </trkpt>
      <trkpt lat="47.468989" lon="7.874967">
        <ele>421.392557</ele>
        <time>2021-11-22T09:27:49.579Z</time>
      </trkpt>
      <trkpt lat="47.469050" lon="7.874738">
        <ele>420.962857</ele>
        <time>2021-11-22T09:27:51.579Z</time>
      </trkpt>
      <trkpt lat="47.469068" lon="7.874689">
        <ele>420.889979</ele>
        <time>2021-11-22T09:27:52.023Z</time>
      </trkpt>
      <trkpt lat="47.469097" lon="7.874606">
        <ele>420.767882</ele>
        <time>2021-11-22T09:27:52.654Z</time>
      </trkpt>
      <trkpt lat="47.469136" lon="7.874516">
        <ele>420.628179</ele>
        <time>2021-11-22T09:27:53.431Z</time>
      </trkpt>
      <trkpt lat="47.469173" lon="7.874432">
        <ele>420.497159</ele>
        <time>2021-11-22T09:27:54.210Z</time>
      </trkpt>
      <trkpt lat="47.469224" lon="7.874328">
        <ele>420.329256</ele>
        <time>2021-11-22T09:27:55.286Z</time>
      </trkpt>
      <trkpt lat="47.469422" lon="7.873965">
        <ele>419.719715</ele>
        <time>2021-11-22T09:27:58.703Z</time>
      </trkpt>
      <trkpt lat="47.469489" lon="7.873809">
        <ele>419.478188</ele>
        <time>2021-11-22T09:28:00.145Z</time>
      </trkpt>
      <trkpt lat="47.469626" lon="7.873477">
        <ele>418.969881</ele>
        <time>2021-11-22T09:28:03.021Z</time>
      </trkpt>
      <trkpt lat="47.469682" lon="7.873326">
        <ele>418.744809</ele>
        <time>2021-11-22T09:28:04.361Z</time>
      </trkpt>
      <trkpt lat="47.469710" lon="7.873249">
        <ele>418.630550</ele>
        <time>2021-11-22T09:28:04.942Z</time>
      </trkpt>
      <trkpt lat="47.469969" lon="7.872276">
        <ele>417.332570</ele>
        <time>2021-11-22T09:28:12.928Z</time>
      </trkpt>
      <trkpt lat="47.470156" lon="7.871491">
        <ele>416.439151</ele>
        <time>2021-11-22T09:28:19.225Z</time>
      </trkpt>
      <trkpt lat="47.470217" lon="7.871214">
        <ele>416.126437</ele>
        <time>2021-11-22T09:28:21.390Z</time>
      </trkpt>
      <trkpt lat="47.470245" lon="7.871088">
        <ele>415.984067</ele>
        <time>2021-11-22T09:28:22.388Z</time>
      </trkpt>
      <trkpt lat="47.470316" lon="7.870753">
        <ele>415.607215</ele>
        <time>2021-11-22T09:28:25.264Z</time>
      </trkpt>
      <trkpt lat="47.470333" lon="7.870669">
        <ele>415.513095</ele>
        <time>2021-11-22T09:28:25.880Z</time>
      </trkpt>
      <trkpt lat="47.470350" lon="7.870570">
        <ele>415.403453</ele>
        <time>2021-11-22T09:28:26.674Z</time>
      </trkpt>
      <trkpt lat="47.470379" lon="7.870338">
        <ele>415.150201</ele>
        <time>2021-11-22T09:28:28.660Z</time>
      </trkpt>
      <trkpt lat="47.470397" lon="7.870147">
        <ele>414.943198</ele>
        <time>2021-11-22T09:28:30.756Z</time>
      </trkpt>
      <trkpt lat="47.470378" lon="7.869626">
        <ele>414.604135</ele>
        <time>2021-11-22T09:28:36.774Z</time>
      </trkpt>
      <trkpt lat="47.470309" lon="7.869201">
        <ele>414.388706</ele>
        <time>2021-11-22T09:28:42.134Z</time>
      </trkpt>
      <trkpt lat="47.470234" lon="7.868884">
        <ele>414.223170</ele>
        <time>2021-11-22T09:28:46.143Z</time>
      </trkpt>
      <trkpt lat="47.470127" lon="7.868484">
        <ele>414.011144</ele>
        <time>2021-11-22T09:28:51.557Z</time>
      </trkpt>
      <trkpt lat="47.469915" lon="7.867494">
        <ele>413.499294</ele>
        <time>2021-11-22T09:29:04.724Z</time>
      </trkpt>
      <trkpt lat="47.469808" lon="7.866690">
        <ele>412.857445</ele>
        <time>2021-11-22T09:29:14.448Z</time>
      </trkpt>
      <trkpt lat="47.469764" lon="7.866452">
        <ele>412.660642</ele>
        <time>2021-11-22T09:29:17.459Z</time>
      </trkpt>
      <trkpt lat="47.469710" lon="7.866208">
        <ele>412.455859</ele>
        <time>2021-11-22T09:29:20.426Z</time>
      </trkpt>
      <trkpt lat="47.469629" lon="7.865918">
        <ele>412.205583</ele>
        <time>2021-11-22T09:29:24.181Z</time>
      </trkpt>
      <trkpt lat="47.469305" lon="7.864692">
        <ele>411.049344</ele>
        <time>2021-11-22T09:29:38.579Z</time>
      </trkpt>
      <trkpt lat="47.469011" lon="7.863405">
        <ele>409.396725</ele>
        <time>2021-11-22T09:29:53.290Z</time>
      </trkpt>
      <trkpt lat="47.468986" lon="7.863323">
        <ele>409.287296</ele>
        <time>2021-11-22T09:29:54.147Z</time>
      </trkpt>
      <trkpt lat="47.468943" lon="7.863195">
        <ele>409.113415</ele>
        <time>2021-11-22T09:29:55.695Z</time>
      </trkpt>
      <trkpt lat="47.468859" lon="7.862978">
        <ele>408.809215</ele>
        <time>2021-11-22T09:29:58.458Z</time>
      </trkpt>
      <trkpt lat="47.468825" lon="7.862900">
        <ele>408.696310</ele>
        <time>2021-11-22T09:29:59.434Z</time>
      </trkpt>
      <trkpt lat="47.468543" lon="7.862357">
        <ele>407.946028</ele>
        <time>2021-11-22T09:30:06.844Z</time>
      </trkpt>
      <trkpt lat="47.468224" lon="7.861805">
        <ele>407.345950</ele>
        <time>2021-11-22T09:30:15.006Z</time>
      </trkpt>
      <trkpt lat="47.467944" lon="7.861300">
        <ele>406.806255</ele>
        <time>2021-11-22T09:30:22.380Z</time>
      </trkpt>
      <trkpt lat="47.467266" lon="7.860107">
        <ele>405.625909</ele>
        <time>2021-11-22T09:30:41.091Z</time>
      </trkpt>
      <trkpt lat="47.467047" lon="7.859682">
        <ele>405.301796</ele>
        <time>2021-11-22T09:30:47.292Z</time>
      </trkpt>
      <trkpt lat="47.466922" lon="7.859398">
        <ele>405.096256</ele>
        <time>2021-11-22T09:30:51.256Z</time>
      </trkpt>
      <trkpt lat="47.466824" lon="7.859137">
        <ele>404.915178</ele>
        <time>2021-11-22T09:30:54.955Z</time>
      </trkpt>
      <trkpt lat="47.466673" lon="7.858620">
        <ele>404.573597</ele>
        <time>2021-11-22T09:31:01.510Z</time>
      </trkpt>
      <trkpt lat="47.466576" lon="7.858236">
        <ele>404.324968</ele>
        <time>2021-11-22T09:31:06.308Z</time>
      </trkpt>
      <trkpt lat="47.466518" lon="7.858022">
        <ele>404.266591</ele>
        <time>2021-11-22T09:31:08.302Z</time>
      </trkpt>
      <trkpt lat="47.466347" lon="7.856973">
        <ele>404.042877</ele>
        <time>2021-11-22T09:31:17.978Z</time>
      </trkpt>
      <trkpt lat="47.466344" lon="7.856945">
        <ele>404.037000</ele>
        <time>2021-11-22T09:31:18.169Z</time>
      </trkpt>
      <trkpt lat="47.466322" lon="7.856655">
        <ele>403.976499</ele>
        <time>2021-11-22T09:31:21.075Z</time>
      </trkpt>
      <trkpt lat="47.466310" lon="7.856541">
        <ele>403.952580</ele>
        <time>2021-11-22T09:31:22.189Z</time>
      </trkpt>
      <trkpt lat="47.466334" lon="7.856525">
        <ele>403.944506</ele>
        <time>2021-11-22T09:31:22.568Z</time>
      </trkpt>
      <trkpt lat="47.466353" lon="7.856496">
        <ele>403.936134</ele>
        <time>2021-11-22T09:31:23.036Z</time>
      </trkpt>
      <trkpt lat="47.466361" lon="7.856459">
        <ele>403.928080</ele>
        <time>2021-11-22T09:31:23.347Z</time>
      </trkpt>
      <trkpt lat="47.466359" lon="7.856420">
        <ele>403.919971</ele>
        <time>2021-11-22T09:31:23.655Z</time>
      </trkpt>
      <trkpt lat="47.466324" lon="7.856362">
        <ele>403.903853</ele>
        <time>2021-11-22T09:31:24.629Z</time>
      </trkpt>
      <trkpt lat="47.466298" lon="7.856354">
        <ele>403.895708</ele>
        <time>2021-11-22T09:31:24.983Z</time>
      </trkpt>
      <trkpt lat="47.466271" lon="7.856363">
        <ele>403.887221</ele>
        <time>2021-11-22T09:31:25.391Z</time>
      </trkpt>
      <trkpt lat="47.466237" lon="7.856421">
        <ele>403.871305</ele>
        <time>2021-11-22T09:31:26.136Z</time>
      </trkpt>
      <trkpt lat="47.466235" lon="7.856461">
        <ele>403.862989</ele>
        <time>2021-11-22T09:31:26.488Z</time>
      </trkpt>
      <trkpt lat="47.466156" lon="7.856481">
        <ele>403.838409</ele>
        <time>2021-11-22T09:31:27.685Z</time>
      </trkpt>
      <trkpt lat="47.465801" lon="7.856657">
        <ele>403.821591</ele>
        <time>2021-11-22T09:31:33.585Z</time>
      </trkpt>
      <trkpt lat="47.465748" lon="7.856649">
        <ele>403.852759</ele>
        <time>2021-11-22T09:31:34.425Z</time>
      </trkpt>
      <trkpt lat="47.465709" lon="7.856610">
        <ele>403.880301</ele>
        <time>2021-11-22T09:31:35.018Z</time>
      </trkpt>
      <trkpt lat="47.465583" lon="7.856194">
        <ele>404.060590</ele>
        <time>2021-11-22T09:31:40.379Z</time>
      </trkpt>
      <trkpt lat="47.465550" lon="7.856132">
        <ele>404.091799</ele>
        <time>2021-11-22T09:31:41.031Z</time>
      </trkpt>
      <trkpt lat="47.465527" lon="7.856111">
        <ele>404.107612</ele>
        <time>2021-11-22T09:31:41.682Z</time>
      </trkpt>
      <trkpt lat="47.465400" lon="7.856122">
        <ele>404.182040</ele>
        <time>2021-11-22T09:31:43.804Z</time>
      </trkpt>
      <trkpt lat="47.464855" lon="7.856521">
        <ele>404.537802</ele>
        <time>2021-11-22T09:31:54.920Z</time>
      </trkpt>
      <trkpt lat="47.464813" lon="7.856540">
        <ele>404.563497</ele>
        <time>2021-11-22T09:31:55.818Z</time>
      </trkpt>
      <trkpt lat="47.464805" lon="7.856519">
        <ele>404.573031</ele>
        <time>2021-11-22T09:31:56.094Z</time>
      </trkpt>
      <trkpt lat="47.464741" lon="7.856458">
        <ele>404.617573</ele>
        <time>2021-11-22T09:31:57.309Z</time>
      </trkpt>
      <trkpt lat="47.464713" lon="7.856451">
        <ele>404.634187</ele>
        <time>2021-11-22T09:31:57.755Z</time>
      </trkpt>
      <trkpt lat="47.464688" lon="7.856453">
        <ele>404.648834</ele>
        <time>2021-11-22T09:31:58.176Z</time>
      </trkpt>
      <trkpt lat="47.464650" lon="7.856478">
        <ele>404.673165</ele>
        <time>2021-11-22T09:31:58.911Z</time>
      </trkpt>
      <trkpt lat="47.464638" lon="7.856496">
        <ele>404.683164</ele>
        <time>2021-11-22T09:31:59.298Z</time>
      </trkpt>
      <trkpt lat="47.464622" lon="7.856523">
        <ele>404.697365</ele>
        <time>2021-11-22T09:31:59.786Z</time>
      </trkpt>
      <trkpt lat="47.464610" lon="7.856554">
        <ele>404.711493</ele>
        <time>2021-11-22T09:32:00.130Z</time>
      </trkpt>
      <trkpt lat="47.464600" lon="7.856587">
        <ele>404.725796</ele>
        <time>2021-11-22T09:32:00.560Z</time>
      </trkpt>
      <trkpt lat="47.464530" lon="7.856598">
        <ele>404.766980</ele>
        <time>2021-11-22T09:32:01.952Z</time>
      </trkpt>
      <trkpt lat="47.463900" lon="7.856772">
        <ele>405.169280</ele>
        <time>2021-11-22T09:32:12.882Z</time>
      </trkpt>
      <trkpt lat="47.463826" lon="7.856840">
        <ele>405.224442</ele>
        <time>2021-11-22T09:32:14.388Z</time>
      </trkpt>
      <trkpt lat="47.463762" lon="7.856925">
        <ele>405.278904</ele>
        <time>2021-11-22T09:32:15.844Z</time>
      </trkpt>
      <trkpt lat="47.463161" lon="7.858061">
        <ele>405.896399</ele>
        <time>2021-11-22T09:32:32.462Z</time>
      </trkpt>
      <trkpt lat="47.463081" lon="7.858188">
        <ele>405.994440</ele>
        <time>2021-11-22T09:32:34.652Z</time>
      </trkpt>
      <trkpt lat="47.463081" lon="7.858188">
        <ele>405.994440</ele>
        <time>2021-11-22T09:32:34.697Z</time>
      </trkpt>
      <trkpt lat="47.462979" lon="7.858360">
        <ele>406.196859</ele>
        <time>2021-11-22T09:32:37.437Z</time>
      </trkpt>
      <trkpt lat="47.462764" lon="7.858828">
        <ele>406.697457</ele>
        <time>2021-11-22T09:32:44.586Z</time>
      </trkpt>
      <trkpt lat="47.462720" lon="7.858959">
        <ele>406.826872</ele>
        <time>2021-11-22T09:32:46.531Z</time>
      </trkpt>
      <trkpt lat="47.462691" lon="7.859060">
        <ele>406.923954</ele>
        <time>2021-11-22T09:32:47.945Z</time>
      </trkpt>
      <trkpt lat="47.462623" lon="7.859309">
        <ele>407.161545</ele>
        <time>2021-11-22T09:32:51.575Z</time>
      </trkpt>
      <trkpt lat="47.462535" lon="7.859721">
        <ele>407.543812</ele>
        <time>2021-11-22T09:32:57.354Z</time>
      </trkpt>
      <trkpt lat="47.462471" lon="7.860097">
        <ele>407.886852</ele>
        <time>2021-11-22T09:33:03.020Z</time>
      </trkpt>
      <trkpt lat="47.462442" lon="7.860255">
        <ele>408.031699</ele>
        <time>2021-11-22T09:33:05.269Z</time>
      </trkpt>
      <trkpt lat="47.462327" lon="7.860669">
        <ele>408.500884</ele>
        <time>2021-11-22T09:33:12.013Z</time>
      </trkpt>
      <trkpt lat="47.462285" lon="7.860769">
        <ele>408.665801</ele>
        <time>2021-11-22T09:33:13.912Z</time>
      </trkpt>
      <trkpt lat="47.462231" lon="7.860873">
        <ele>408.849499</ele>
        <time>2021-11-22T09:33:16.271Z</time>
      </trkpt>
      <trkpt lat="47.461855" lon="7.861499">
        <ele>410.022534</ele>
        <time>2021-11-22T09:33:29.367Z</time>
      </trkpt>
      <trkpt lat="47.461541" lon="7.862217">
        <ele>411.220449</ele>
        <time>2021-11-22T09:33:43.040Z</time>
      </trkpt>
      <trkpt lat="47.461527" lon="7.862242">
        <ele>411.265925</ele>
        <time>2021-11-22T09:33:43.503Z</time>
      </trkpt>
      <trkpt lat="47.461353" lon="7.862539">
        <ele>411.816465</ele>
        <time>2021-11-22T09:33:49.846Z</time>
      </trkpt>
      <trkpt lat="47.461098" lon="7.862848">
        <ele>412.360640</ele>
        <time>2021-11-22T09:33:57.357Z</time>
      </trkpt>
      <trkpt lat="47.460786" lon="7.863164">
        <ele>412.912852</ele>
        <time>2021-11-22T09:34:05.746Z</time>
      </trkpt>
      <trkpt lat="47.460527" lon="7.863440">
        <ele>413.379025</ele>
        <time>2021-11-22T09:34:12.508Z</time>
      </trkpt>
      <trkpt lat="47.460398" lon="7.863603">
        <ele>413.626793</ele>
        <time>2021-11-22T09:34:15.922Z</time>
      </trkpt>
      <trkpt lat="47.460271" lon="7.863810">
        <ele>413.902779</ele>
        <time>2021-11-22T09:34:19.450Z</time>
      </trkpt>
      <trkpt lat="47.460115" lon="7.864146">
        <ele>414.305216</ele>
        <time>2021-11-22T09:34:24.214Z</time>
      </trkpt>
      <trkpt lat="47.460001" lon="7.864512">
        <ele>414.697634</ele>
        <time>2021-11-22T09:34:29.000Z</time>
      </trkpt>
      <trkpt lat="47.459616" lon="7.865526">
        <ele>415.713573</ele>
        <time>2021-11-22T09:34:45.234Z</time>
      </trkpt>
      <trkpt lat="47.459563" lon="7.865651">
        <ele>415.842468</ele>
        <time>2021-11-22T09:34:47.102Z</time>
      </trkpt>
      <trkpt lat="47.459497" lon="7.865844">
        <ele>416.031411</ele>
        <time>2021-11-22T09:34:50.041Z</time>
      </trkpt>
      <trkpt lat="47.459383" lon="7.866214">
        <ele>416.386620</ele>
        <time>2021-11-22T09:34:55.643Z</time>
      </trkpt>
      <trkpt lat="47.459231" lon="7.866811">
        <ele>416.943910</ele>
        <time>2021-11-22T09:35:04.330Z</time>
      </trkpt>
      <trkpt lat="47.459152" lon="7.867074">
        <ele>417.267845</ele>
        <time>2021-11-22T09:35:08.383Z</time>
      </trkpt>
      <trkpt lat="47.459058" lon="7.867339">
        <ele>417.617222</ele>
        <time>2021-11-22T09:35:12.458Z</time>
      </trkpt>
      <trkpt lat="47.458844" lon="7.867795">
        <ele>418.265275</ele>
        <time>2021-11-22T09:35:20.407Z</time>
      </trkpt>
      <trkpt lat="47.458680" lon="7.868173">
        <ele>418.789633</ele>
        <time>2021-11-22T09:35:27.663Z</time>
      </trkpt>
      <trkpt lat="47.458252" lon="7.869378">
        <ele>420.474190</ele>
        <time>2021-11-22T09:35:48.055Z</time>
      </trkpt>
      <trkpt lat="47.458055" lon="7.870048">
        <ele>421.604728</ele>
        <time>2021-11-22T09:35:58.823Z</time>
      </trkpt>
      <trkpt lat="47.457897" lon="7.870571">
        <ele>422.491123</ele>
        <time>2021-11-22T09:36:07.599Z</time>
      </trkpt>
      <trkpt lat="47.457834" lon="7.870782">
        <ele>422.848041</ele>
        <time>2021-11-22T09:36:11.578Z</time>
      </trkpt>
      <trkpt lat="47.457598" lon="7.871461">
        <ele>424.029419</ele>
        <time>2021-11-22T09:36:23.715Z</time>
      </trkpt>
      <trkpt lat="47.457107" lon="7.872555">
        <ele>426.958744</ele>
        <time>2021-11-22T09:36:50.641Z</time>
      </trkpt>
      <trkpt lat="47.456956" lon="7.873025">
        <ele>428.152608</ele>
        <time>2021-11-22T09:37:01.564Z</time>
      </trkpt>
      <trkpt lat="47.456839" lon="7.873690">
        <ele>429.729131</ele>
        <time>2021-11-22T09:37:14.545Z</time>
      </trkpt>
      <trkpt lat="47.456816" lon="7.873911">
        <ele>430.242146</ele>
        <time>2021-11-22T09:37:18.961Z</time>
      </trkpt>
      <trkpt lat="47.456788" lon="7.874217">
        <ele>430.603271</ele>
        <time>2021-11-22T09:37:24.193Z</time>
      </trkpt>
      <trkpt lat="47.456714" lon="7.874531">
        <ele>430.955667</ele>
        <time>2021-11-22T09:37:29.754Z</time>
      </trkpt>
      <trkpt lat="47.456658" lon="7.874665">
        <ele>431.122609</ele>
        <time>2021-11-22T09:37:31.607Z</time>
      </trkpt>
      <trkpt lat="47.456403" lon="7.875046">
        <ele>431.690734</ele>
        <time>2021-11-22T09:37:39.464Z</time>
      </trkpt>
      <trkpt lat="47.455780" lon="7.875652">
        <ele>432.859453</ele>
        <time>2021-11-22T09:37:54.958Z</time>
      </trkpt>
      <trkpt lat="47.455446" lon="7.875966">
        <ele>433.178418</ele>
        <time>2021-11-22T09:38:00.649Z</time>
      </trkpt>
      <trkpt lat="47.455123" lon="7.876253">
        <ele>433.268468</ele>
        <time>2021-11-22T09:38:05.624Z</time>
      </trkpt>
      <trkpt lat="47.454502" lon="7.876895">
        <ele>433.449539</ele>
        <time>2021-11-22T09:38:16.733Z</time>
      </trkpt>
      <trkpt lat="47.454362" lon="7.877045">
        <ele>433.490853</ele>
        <time>2021-11-22T09:38:19.660Z</time>
      </trkpt>
      <trkpt lat="47.453945" lon="7.877554">
        <ele>433.763586</ele>
        <time>2021-11-22T09:38:29.801Z</time>
      </trkpt>
      <trkpt lat="47.453517" lon="7.878069">
        <ele>434.182083</ele>
        <time>2021-11-22T09:38:39.935Z</time>
      </trkpt>
      <trkpt lat="47.453302" lon="7.878355">
        <ele>434.401415</ele>
        <time>2021-11-22T09:38:45.268Z</time>
      </trkpt>
      <trkpt lat="47.453057" lon="7.878652">
        <ele>434.641689</ele>
        <time>2021-11-22T09:38:50.867Z</time>
      </trkpt>
      <trkpt lat="47.452813" lon="7.878981">
        <ele>434.892128</ele>
        <time>2021-11-22T09:38:56.549Z</time>
      </trkpt>
      <trkpt lat="47.452655" lon="7.879223">
        <ele>435.083102</ele>
        <time>2021-11-22T09:39:00.409Z</time>
      </trkpt>
      <trkpt lat="47.452247" lon="7.879980">
        <ele>435.642138</ele>
        <time>2021-11-22T09:39:11.963Z</time>
      </trkpt>
      <trkpt lat="47.451953" lon="7.880518">
        <ele>436.041603</ele>
        <time>2021-11-22T09:39:20.304Z</time>
      </trkpt>
      <trkpt lat="47.451581" lon="7.881111">
        <ele>436.533578</ele>
        <time>2021-11-22T09:39:30.869Z</time>
      </trkpt>
      <trkpt lat="47.451351" lon="7.881477">
        <ele>436.953904</ele>
        <time>2021-11-22T09:39:37.419Z</time>
      </trkpt>
      <trkpt lat="47.451309" lon="7.881545">
        <ele>437.031380</ele>
        <time>2021-11-22T09:39:38.666Z</time>
      </trkpt>
      <trkpt lat="47.451241" lon="7.881654">
        <ele>437.156139</ele>
        <time>2021-11-22T09:39:40.623Z</time>
      </trkpt>
      <trkpt lat="47.451051" lon="7.881948">
        <ele>437.498255</ele>
        <time>2021-11-22T09:39:46.208Z</time>
      </trkpt>
      <trkpt lat="47.450772" lon="7.882435">
        <ele>438.035212</ele>
        <time>2021-11-22T09:39:54.988Z</time>
      </trkpt>
      <trkpt lat="47.450733" lon="7.882508">
        <ele>438.113477</ele>
        <time>2021-11-22T09:39:56.253Z</time>
      </trkpt>
      <trkpt lat="47.450650" lon="7.882664">
        <ele>438.280466</ele>
        <time>2021-11-22T09:39:58.974Z</time>
      </trkpt>
      <trkpt lat="47.450548" lon="7.882846">
        <ele>438.479325</ele>
        <time>2021-11-22T09:40:02.202Z</time>
      </trkpt>
      <trkpt lat="47.450472" lon="7.882973">
        <ele>438.621994</ele>
        <time>2021-11-22T09:40:04.429Z</time>
      </trkpt>
      <trkpt lat="47.450274" lon="7.883264">
        <ele>438.969802</ele>
        <time>2021-11-22T09:40:10.034Z</time>
      </trkpt>
      <trkpt lat="47.449712" lon="7.884119">
        <ele>439.974793</ele>
        <time>2021-11-22T09:40:25.754Z</time>
      </trkpt>
      <trkpt lat="47.449068" lon="7.885121">
        <ele>441.187397</ele>
        <time>2021-11-22T09:40:44.081Z</time>
      </trkpt>
      <trkpt lat="47.449022" lon="7.885187">
        <ele>441.285672</ele>
        <time>2021-11-22T09:40:45.412Z</time>
      </trkpt>
      <trkpt lat="47.448867" lon="7.885429">
        <ele>441.631280</ele>
        <time>2021-11-22T09:40:50.010Z</time>
      </trkpt>
      <trkpt lat="47.448801" lon="7.885554">
        <ele>441.795717</ele>
        <time>2021-11-22T09:40:52.286Z</time>
      </trkpt>
      <trkpt lat="47.448759" lon="7.885611">
        <ele>441.883126</ele>
        <time>2021-11-22T09:40:53.242Z</time>
      </trkpt>
      <trkpt lat="47.448727" lon="7.885648">
        <ele>441.945409</ele>
        <time>2021-11-22T09:40:54.009Z</time>
      </trkpt>
      <trkpt lat="47.448623" lon="7.885730">
        <ele>442.126122</ele>
        <time>2021-11-22T09:40:56.528Z</time>
      </trkpt>
      <trkpt lat="47.448497" lon="7.885784">
        <ele>442.327267</ele>
        <time>2021-11-22T09:40:59.548Z</time>
      </trkpt>
      <trkpt lat="47.448256" lon="7.885830">
        <ele>442.699854</ele>
        <time>2021-11-22T09:41:04.720Z</time>
      </trkpt>
      <trkpt lat="47.447948" lon="7.885889">
        <ele>443.176052</ele>
        <time>2021-11-22T09:41:11.137Z</time>
      </trkpt>
      <trkpt lat="47.447927" lon="7.885893">
        <ele>443.208517</ele>
        <time>2021-11-22T09:41:11.911Z</time>
      </trkpt>
      <trkpt lat="47.447843" lon="7.885915">
        <ele>443.339318</ele>
        <time>2021-11-22T09:41:14.072Z</time>
      </trkpt>
      <trkpt lat="47.447578" lon="7.886047">
        <ele>443.782142</ele>
        <time>2021-11-22T09:41:19.729Z</time>
      </trkpt>
      <trkpt lat="47.447271" lon="7.886367">
        <ele>444.464043</ele>
        <time>2021-11-22T09:41:28.052Z</time>
      </trkpt>
      <trkpt lat="47.446926" lon="7.886788">
        <ele>445.276117</ele>
        <time>2021-11-22T09:41:38.088Z</time>
      </trkpt>
      <trkpt lat="47.446791" lon="7.886928">
        <ele>445.575470</ele>
        <time>2021-11-22T09:41:41.566Z</time>
      </trkpt>
      <trkpt lat="47.446303" lon="7.887408">
        <ele>446.639523</ele>
        <time>2021-11-22T09:41:54.733Z</time>
      </trkpt>
      <trkpt lat="47.446228" lon="7.887482">
        <ele>446.803212</ele>
        <time>2021-11-22T09:41:56.742Z</time>
      </trkpt>
      <trkpt lat="47.446159" lon="7.887548">
        <ele>446.952404</ele>
        <time>2021-11-22T09:41:58.561Z</time>
      </trkpt>
      <trkpt lat="47.445865" lon="7.887829">
        <ele>447.646612</ele>
        <time>2021-11-22T09:42:06.345Z</time>
      </trkpt>
      <trkpt lat="47.445713" lon="7.887975">
        <ele>448.006269</ele>
        <time>2021-11-22T09:42:10.245Z</time>
      </trkpt>
      <trkpt lat="47.445254" lon="7.888414">
        <ele>449.090970</ele>
        <time>2021-11-22T09:42:22.083Z</time>
      </trkpt>
      <trkpt lat="47.445147" lon="7.888511">
        <ele>449.340013</ele>
        <time>2021-11-22T09:42:24.799Z</time>
      </trkpt>
      <trkpt lat="47.444943" lon="7.888709">
        <ele>449.824220</ele>
        <time>2021-11-22T09:42:30.877Z</time>
      </trkpt>
      <trkpt lat="47.444488" lon="7.889150">
        <ele>451.277341</ele>
        <time>2021-11-22T09:42:43.524Z</time>
      </trkpt>
      <trkpt lat="47.444393" lon="7.889238">
        <ele>451.719787</ele>
        <time>2021-11-22T09:42:46.671Z</time>
      </trkpt>
      <trkpt lat="47.444034" lon="7.889556">
        <ele>453.371482</ele>
        <time>2021-11-22T09:42:57.254Z</time>
      </trkpt>
      <trkpt lat="47.443891" lon="7.889667">
        <ele>454.008917</ele>
        <time>2021-11-22T09:43:01.610Z</time>
      </trkpt>
      <trkpt lat="47.443758" lon="7.889758">
        <ele>454.587317</ele>
        <time>2021-11-22T09:43:06.093Z</time>
      </trkpt>
      <trkpt lat="47.443195" lon="7.890087">
        <ele>456.976607</ele>
        <time>2021-11-22T09:43:25.270Z</time>
      </trkpt>
      <trkpt lat="47.442695" lon="7.890269">
        <ele>460.731553</ele>
        <time>2021-11-22T09:43:46.706Z</time>
      </trkpt>
      <trkpt lat="47.441565" lon="7.890682">
        <ele>471.043604</ele>
        <time>2021-11-22T09:44:47.184Z</time>
      </trkpt>
      <trkpt lat="47.441263" lon="7.890792">
        <ele>473.871526</ele>
        <time>2021-11-22T09:45:05.711Z</time>
      </trkpt>
      <trkpt lat="47.440728" lon="7.890993">
        <ele>480.239713</ele>
        <time>2021-11-22T09:45:38.508Z</time>
      </trkpt>
      <trkpt lat="47.440254" lon="7.891376">
        <ele>486.471358</ele>
        <time>2021-11-22T09:46:12.303Z</time>
      </trkpt>
      <trkpt lat="47.439256" lon="7.892823">
        <ele>501.013493</ele>
        <time>2021-11-22T09:47:39.893Z</time>
      </trkpt>
      <trkpt lat="47.439228" lon="7.892871">
        <ele>501.413581</ele>
        <time>2021-11-22T09:47:42.782Z</time>
      </trkpt>
      <trkpt lat="47.439042" lon="7.893234">
        <ele>504.288076</ele>
        <time>2021-11-22T09:47:58.446Z</time>
      </trkpt>
      <trkpt lat="47.438836" lon="7.893774">
        <ele>508.201312</ele>
        <time>2021-11-22T09:48:18.939Z</time>
      </trkpt>
      <trkpt lat="47.438723" lon="7.894209">
        <ele>511.101345</ele>
        <time>2021-11-22T09:48:32.409Z</time>
      </trkpt>
      <trkpt lat="47.438683" lon="7.894397">
        <ele>511.281417</ele>
        <time>2021-11-22T09:48:37.603Z</time>
      </trkpt>
      <trkpt lat="47.438392" lon="7.895853">
        <ele>512.668621</ele>
        <time>2021-11-22T09:49:04.963Z</time>
      </trkpt>
      <trkpt lat="47.438129" lon="7.896764">
        <ele>513.332746</ele>
        <time>2021-11-22T09:49:11.948Z</time>
      </trkpt>
      <trkpt lat="47.438061" lon="7.896935">
        <ele>512.633166</ele>
        <time>2021-11-22T09:49:13.278Z</time>
      </trkpt>
      <trkpt lat="47.438020" lon="7.897061">
        <ele>512.140046</ele>
        <time>2021-11-22T09:49:14.105Z</time>
      </trkpt>
      <trkpt lat="47.437727" lon="7.897775">
        <ele>509.194735</ele>
        <time>2021-11-22T09:49:19.540Z</time>
      </trkpt>
      <trkpt lat="47.437513" lon="7.898238">
        <ele>507.217004</ele>
        <time>2021-11-22T09:49:23.049Z</time>
      </trkpt>
      <trkpt lat="47.437451" lon="7.898374">
        <ele>506.638588</ele>
        <time>2021-11-22T09:49:24.002Z</time>
      </trkpt>
      <trkpt lat="47.436614" lon="7.900163">
        <ele>500.866329</ele>
        <time>2021-11-22T09:49:37.480Z</time>
      </trkpt>
      <trkpt lat="47.436392" lon="7.900644">
        <ele>499.565870</ele>
        <time>2021-11-22T09:49:42.044Z</time>
      </trkpt>
      <trkpt lat="47.436162" lon="7.901123">
        <ele>498.253983</ele>
        <time>2021-11-22T09:49:48.143Z</time>
      </trkpt>
      <trkpt lat="47.435966" lon="7.901542">
        <ele>499.517262</ele>
        <time>2021-11-22T09:49:55.626Z</time>
      </trkpt>
      <trkpt lat="47.435289" lon="7.902539">
        <ele>503.306161</ele>
        <time>2021-11-22T09:50:26.317Z</time>
      </trkpt>
      <trkpt lat="47.434454" lon="7.903404">
        <ele>507.488518</ele>
        <time>2021-11-22T09:51:06.539Z</time>
      </trkpt>
      <trkpt lat="47.433904" lon="7.903847">
        <ele>510.144463</ele>
        <time>2021-11-22T09:51:25.174Z</time>
      </trkpt>
      <trkpt lat="47.433528" lon="7.904076">
        <ele>511.868880</ele>
        <time>2021-11-22T09:51:36.465Z</time>
      </trkpt>
      <trkpt lat="47.433057" lon="7.904364">
        <ele>514.192476</ele>
        <time>2021-11-22T09:51:49.090Z</time>
      </trkpt>
      <trkpt lat="47.432000" lon="7.904989">
        <ele>519.755728</ele>
        <time>2021-11-22T09:52:28.642Z</time>
      </trkpt>
      <trkpt lat="47.431501" lon="7.905134">
        <ele>522.367544</ele>
        <time>2021-11-22T09:52:47.677Z</time>
      </trkpt>
      <trkpt lat="47.431347" lon="7.905140">
        <ele>523.316785</ele>
        <time>2021-11-22T09:52:55.716Z</time>
      </trkpt>
      <trkpt lat="47.430772" lon="7.905115">
        <ele>526.861331</ele>
        <time>2021-11-22T09:53:19.175Z</time>
      </trkpt>
      <trkpt lat="47.429366" lon="7.905049">
        <ele>534.057604</ele>
        <time>2021-11-22T09:54:15.041Z</time>
      </trkpt>
      <trkpt lat="47.427817" lon="7.905261">
        <ele>537.688392</ele>
        <time>2021-11-22T09:54:49.017Z</time>
      </trkpt>
      <trkpt lat="47.426850" lon="7.905086">
        <ele>536.824202</ele>
        <time>2021-11-22T09:55:00.979Z</time>
      </trkpt>
      <trkpt lat="47.426720" lon="7.905004">
        <ele>536.698824</ele>
        <time>2021-11-22T09:55:02.659Z</time>
      </trkpt>
      <trkpt lat="47.426720" lon="7.905004">
        <ele>536.698824</ele>
        <time>2021-11-22T09:55:02.662Z</time>
      </trkpt>
      <trkpt lat="47.426613" lon="7.904841">
        <ele>536.562524</ele>
        <time>2021-11-22T09:55:05.161Z</time>
      </trkpt>
      <trkpt lat="47.426552" lon="7.904727">
        <ele>536.475298</ele>
        <time>2021-11-22T09:55:06.078Z</time>
      </trkpt>
      <trkpt lat="47.426425" lon="7.904463">
        <ele>536.280895</ele>
        <time>2021-11-22T09:55:08.559Z</time>
      </trkpt>
      <trkpt lat="47.426367" lon="7.904349">
        <ele>536.008037</ele>
        <time>2021-11-22T09:55:09.585Z</time>
      </trkpt>
      <trkpt lat="47.426138" lon="7.904113">
        <ele>535.092179</ele>
        <time>2021-11-22T09:55:12.490Z</time>
      </trkpt>
      <trkpt lat="47.425619" lon="7.903851">
        <ele>533.292930</ele>
        <time>2021-11-22T09:55:17.870Z</time>
      </trkpt>
      <trkpt lat="47.425434" lon="7.903707">
        <ele>532.606987</ele>
        <time>2021-11-22T09:55:20.194Z</time>
      </trkpt>
      <trkpt lat="47.425311" lon="7.903615">
        <ele>532.154736</ele>
        <time>2021-11-22T09:55:21.429Z</time>
      </trkpt>
      <trkpt lat="47.423589" lon="7.902766">
        <ele>526.833451</ele>
        <time>2021-11-22T09:55:39.715Z</time>
      </trkpt>
      <trkpt lat="47.423452" lon="7.902645">
        <ele>526.389585</ele>
        <time>2021-11-22T09:55:41.330Z</time>
      </trkpt>
      <trkpt lat="47.423374" lon="7.902581">
        <ele>526.141468</ele>
        <time>2021-11-22T09:55:42.312Z</time>
      </trkpt>
      <trkpt lat="47.423315" lon="7.902540">
        <ele>525.960146</ele>
        <time>2021-11-22T09:55:43.155Z</time>
      </trkpt>
      <trkpt lat="47.423238" lon="7.902495">
        <ele>525.729862</ele>
        <time>2021-11-22T09:55:44.082Z</time>
      </trkpt>
      <trkpt lat="47.423044" lon="7.902393">
        <ele>525.355661</ele>
        <time>2021-11-22T09:55:46.311Z</time>
      </trkpt>
      <trkpt lat="47.422906" lon="7.902320">
        <ele>525.343969</ele>
        <time>2021-11-22T09:55:48.246Z</time>
      </trkpt>
      <trkpt lat="47.421602" lon="7.901655">
        <ele>525.233925</ele>
        <time>2021-11-22T09:56:09.617Z</time>
      </trkpt>
      <trkpt lat="47.421521" lon="7.901542">
        <ele>525.225039</ele>
        <time>2021-11-22T09:56:11.796Z</time>
      </trkpt>
      <trkpt lat="47.421502" lon="7.901465">
        <ele>525.220615</ele>
        <time>2021-11-22T09:56:14.527Z</time>
      </trkpt>
      <trkpt lat="47.421410" lon="7.901506">
        <ele>525.272217</ele>
        <time>2021-11-22T09:56:15.626Z</time>
      </trkpt>
      <trkpt lat="47.421321" lon="7.901553">
        <ele>525.352518</ele>
        <time>2021-11-22T09:56:16.687Z</time>
      </trkpt>
      <trkpt lat="47.421222" lon="7.901610">
        <ele>525.442789</ele>
        <time>2021-11-22T09:56:18.351Z</time>
      </trkpt>
      <trkpt lat="47.421180" lon="7.901635">
        <ele>525.481260</ele>
        <time>2021-11-22T09:56:20.811Z</time>
      </trkpt>
      <trkpt lat="47.420695" lon="7.901920">
        <ele>525.924714</ele>
        <time>2021-11-22T09:56:28.150Z</time>
      </trkpt>
      <trkpt lat="47.420637" lon="7.901954">
        <ele>525.977728</ele>
        <time>2021-11-22T09:56:28.865Z</time>
      </trkpt>
      <trkpt lat="47.420085" lon="7.902235">
        <ele>526.473773</ele>
        <time>2021-11-22T09:56:41.228Z</time>
      </trkpt>
      <trkpt lat="47.419578" lon="7.902441">
        <ele>527.329343</ele>
        <time>2021-11-22T09:56:50.630Z</time>
      </trkpt>
      <trkpt lat="47.419296" lon="7.902548">
        <ele>528.156981</ele>
        <time>2021-11-22T09:56:57.130Z</time>
      </trkpt>
      <trkpt lat="47.419204" lon="7.902583">
        <ele>528.427035</ele>
        <time>2021-11-22T09:56:59.323Z</time>
      </trkpt>
      <trkpt lat="47.419043" lon="7.902685">
        <ele>528.924988</ele>
        <time>2021-11-22T09:57:04.279Z</time>
      </trkpt>
      <trkpt lat="47.418932" lon="7.902787">
        <ele>529.296547</ele>
        <time>2021-11-22T09:57:07.377Z</time>
      </trkpt>
      <trkpt lat="47.418668" lon="7.903098">
        <ele>530.256260</ele>
        <time>2021-11-22T09:57:16.843Z</time>
      </trkpt>
      <trkpt lat="47.418532" lon="7.903258">
        <ele>530.750404</ele>
        <time>2021-11-22T09:57:21.648Z</time>
      </trkpt>
      <trkpt lat="47.418268" lon="7.903613">
        <ele>531.765033</ele>
        <time>2021-11-22T09:57:32.183Z</time>
      </trkpt>
      <trkpt lat="47.418232" lon="7.903669">
        <ele>531.964699</ele>
        <time>2021-11-22T09:57:34.139Z</time>
      </trkpt>
      <trkpt lat="47.418168" lon="7.903812">
        <ele>532.604351</ele>
        <time>2021-11-22T09:57:37.898Z</time>
      </trkpt>
      <trkpt lat="47.417991" lon="7.904019">
        <ele>533.848884</ele>
        <time>2021-11-22T09:57:45.599Z</time>
      </trkpt>
      <trkpt lat="47.417618" lon="7.904179">
        <ele>535.990386</ele>
        <time>2021-11-22T09:57:59.548Z</time>
      </trkpt>
      <trkpt lat="47.417531" lon="7.904238">
        <ele>536.518174</ele>
        <time>2021-11-22T09:58:03.231Z</time>
      </trkpt>
      <trkpt lat="47.417427" lon="7.904326">
        <ele>537.178941</ele>
        <time>2021-11-22T09:58:07.303Z</time>
      </trkpt>
      <trkpt lat="47.417265" lon="7.904453">
        <ele>538.190059</ele>
        <time>2021-11-22T09:58:14.853Z</time>
      </trkpt>
      <trkpt lat="47.416980" lon="7.904605">
        <ele>539.860670</ele>
        <time>2021-11-22T09:58:25.975Z</time>
      </trkpt>
      <trkpt lat="47.416822" lon="7.904701">
        <ele>540.802595</ele>
        <time>2021-11-22T09:58:32.765Z</time>
      </trkpt>
      <trkpt lat="47.416754" lon="7.904710">
        <ele>541.179029</ele>
        <time>2021-11-22T09:58:35.349Z</time>
      </trkpt>
      <trkpt lat="47.416543" lon="7.904651">
        <ele>542.605679</ele>
        <time>2021-11-22T09:58:44.153Z</time>
      </trkpt>
      <trkpt lat="47.416158" lon="7.904395">
        <ele>545.896199</ele>
        <time>2021-11-22T09:59:01.988Z</time>
      </trkpt>
      <trkpt lat="47.416069" lon="7.904278">
        <ele>546.824623</ele>
        <time>2021-11-22T09:59:08.160Z</time>
      </trkpt>
      <trkpt lat="47.415794" lon="7.903917">
        <ele>549.691540</ele>
        <time>2021-11-22T09:59:28.215Z</time>
      </trkpt>
      <trkpt lat="47.415429" lon="7.903578">
        <ele>553.051607</ele>
        <time>2021-11-22T09:59:50.363Z</time>
      </trkpt>
      <trkpt lat="47.414946" lon="7.903337">
        <ele>556.433287</ele>
        <time>2021-11-22T10:00:12.333Z</time>
      </trkpt>
      <trkpt lat="47.414457" lon="7.903126">
        <ele>558.493010</ele>
        <time>2021-11-22T10:00:30.857Z</time>
      </trkpt>
      <trkpt lat="47.414360" lon="7.903055">
        <ele>558.930681</ele>
        <time>2021-11-22T10:00:33.555Z</time>
      </trkpt>
      <trkpt lat="47.413979" lon="7.902876">
        <ele>560.547150</ele>
        <time>2021-11-22T10:00:45.194Z</time>
      </trkpt>
      <trkpt lat="47.413779" lon="7.902818">
        <ele>561.371230</ele>
        <time>2021-11-22T10:00:51.112Z</time>
      </trkpt>
      <trkpt lat="47.413454" lon="7.902818">
        <ele>562.685296</ele>
        <time>2021-11-22T10:00:58.962Z</time>
      </trkpt>
      <trkpt lat="47.413324" lon="7.902797">
        <ele>563.125944</ele>
        <time>2021-11-22T10:01:02.026Z</time>
      </trkpt>
      <trkpt lat="47.413185" lon="7.902732">
        <ele>563.360114</ele>
        <time>2021-11-22T10:01:05.000Z</time>
      </trkpt>
      <trkpt lat="47.412722" lon="7.902491">
        <ele>564.148555</ele>
        <time>2021-11-22T10:01:12.723Z</time>
      </trkpt>
      <trkpt lat="47.412218" lon="7.902425">
        <ele>564.961237</ele>
        <time>2021-11-22T10:01:21.143Z</time>
      </trkpt>
      <trkpt lat="47.412053" lon="7.902324">
        <ele>565.248092</ele>
        <time>2021-11-22T10:01:25.154Z</time>
      </trkpt>
      <trkpt lat="47.411995" lon="7.902289">
        <ele>565.348718</ele>
        <time>2021-11-22T10:01:26.975Z</time>
      </trkpt>
      <trkpt lat="47.411203" lon="7.901793">
        <ele>567.564811</ele>
        <time>2021-11-22T10:01:50.264Z</time>
      </trkpt>
      <trkpt lat="47.410416" lon="7.901443">
        <ele>570.308950</ele>
        <time>2021-11-22T10:02:14.831Z</time>
      </trkpt>
      <trkpt lat="47.410305" lon="7.901395">
        <ele>570.695112</ele>
        <time>2021-11-22T10:02:18.304Z</time>
      </trkpt>
      <trkpt lat="47.410000" lon="7.901340">
        <ele>571.721030</ele>
        <time>2021-11-22T10:02:26.494Z</time>
      </trkpt>
      <trkpt lat="47.408980" lon="7.901427">
        <ele>575.538499</ele>
        <time>2021-11-22T10:02:55.073Z</time>
      </trkpt>
      <trkpt lat="47.408633" lon="7.901528">
        <ele>576.870642</ele>
        <time>2021-11-22T10:03:06.076Z</time>
      </trkpt>
      <trkpt lat="47.408249" lon="7.901503">
        <ele>578.318438</ele>
        <time>2021-11-22T10:03:18.170Z</time>
      </trkpt>
      <trkpt lat="47.407950" lon="7.901419">
        <ele>579.963404</ele>
        <time>2021-11-22T10:03:28.143Z</time>
      </trkpt>
      <trkpt lat="47.407700" lon="7.901346">
        <ele>581.580906</ele>
        <time>2021-11-22T10:03:36.706Z</time>
      </trkpt>
      <trkpt lat="47.407183" lon="7.901226">
        <ele>584.902677</ele>
        <time>2021-11-22T10:03:55.190Z</time>
      </trkpt>
      <trkpt lat="47.406056" lon="7.900591">
        <ele>593.285906</ele>
        <time>2021-11-22T10:04:52.498Z</time>
      </trkpt>
      <trkpt lat="47.405726" lon="7.900247">
        <ele>596.624688</ele>
        <time>2021-11-22T10:05:12.075Z</time>
      </trkpt>
      <trkpt lat="47.405648" lon="7.900181">
        <ele>597.367779</ele>
        <time>2021-11-22T10:05:17.025Z</time>
      </trkpt>
      <trkpt lat="47.405377" lon="7.900042">
        <ele>599.739325</ele>
        <time>2021-11-22T10:05:30.517Z</time>
      </trkpt>
      <trkpt lat="47.404734" lon="7.899896">
        <ele>605.103098</ele>
        <time>2021-11-22T10:06:02.088Z</time>
      </trkpt>
      <trkpt lat="47.404452" lon="7.899711">
        <ele>607.264524</ele>
        <time>2021-11-22T10:06:16.869Z</time>
      </trkpt>
      <trkpt lat="47.403746" lon="7.898667">
        <ele>614.261706</ele>
        <time>2021-11-22T10:06:59.148Z</time>
      </trkpt>
      <trkpt lat="47.403389" lon="7.898027">
        <ele>618.225429</ele>
        <time>2021-11-22T10:07:20.300Z</time>
      </trkpt>
      <trkpt lat="47.403337" lon="7.897962">
        <ele>618.728945</ele>
        <time>2021-11-22T10:07:23.840Z</time>
      </trkpt>
      <trkpt lat="47.403251" lon="7.897904">
        <ele>619.427782</ele>
        <time>2021-11-22T10:07:27.712Z</time>
      </trkpt>
      <trkpt lat="47.402533" lon="7.897738">
        <ele>624.800031</ele>
        <time>2021-11-22T10:07:57.502Z</time>
      </trkpt>
      <trkpt lat="47.402452" lon="7.897680">
        <ele>625.465423</ele>
        <time>2021-11-22T10:08:00.747Z</time>
      </trkpt>
      <trkpt lat="47.401903" lon="7.897350">
        <ele>629.846811</ele>
        <time>2021-11-22T10:08:31.782Z</time>
      </trkpt>
      <trkpt lat="47.400945" lon="7.896926">
        <ele>638.204091</ele>
        <time>2021-11-22T10:09:18.940Z</time>
      </trkpt>
      <trkpt lat="47.400890" lon="7.896903">
        <ele>638.691123</ele>
        <time>2021-11-22T10:09:23.730Z</time>
      </trkpt>
      <trkpt lat="47.400751" lon="7.896863">
        <ele>639.897712</ele>
        <time>2021-11-22T10:09:30.053Z</time>
      </trkpt>
      <trkpt lat="47.399796" lon="7.896698">
        <ele>647.637275</ele>
        <time>2021-11-22T10:10:17.380Z</time>
      </trkpt>
      <trkpt lat="47.399633" lon="7.896675">
        <ele>648.690165</ele>
        <time>2021-11-22T10:10:23.672Z</time>
      </trkpt>
      <trkpt lat="47.399538" lon="7.896644">
        <ele>649.315756</ele>
        <time>2021-11-22T10:10:28.413Z</time>
      </trkpt>
      <trkpt lat="47.399246" lon="7.896363">
        <ele>651.556577</ele>
        <time>2021-11-22T10:10:44.472Z</time>
      </trkpt>
      <trkpt lat="47.398784" lon="7.895173">
        <ele>657.527548</ele>
        <time>2021-11-22T10:11:18.499Z</time>
      </trkpt>
      <trkpt lat="47.397727" lon="7.893516">
        <ele>663.685373</ele>
        <time>2021-11-22T10:12:07.200Z</time>
      </trkpt>
      <trkpt lat="47.397426" lon="7.893177">
        <ele>665.024453</ele>
        <time>2021-11-22T10:12:16.634Z</time>
      </trkpt>
      <trkpt lat="47.396808" lon="7.892644">
        <ele>666.476829</ele>
        <time>2021-11-22T10:12:33.506Z</time>
      </trkpt>
      <trkpt lat="47.396399" lon="7.892118">
        <ele>667.577406</ele>
        <time>2021-11-22T10:12:45.332Z</time>
      </trkpt>
      <trkpt lat="47.395697" lon="7.890534">
        <ele>669.838942</ele>
        <time>2021-11-22T10:13:12.282Z</time>
      </trkpt>
      <trkpt lat="47.394937" lon="7.889307">
        <ele>671.846487</ele>
        <time>2021-11-22T10:13:36.183Z</time>
      </trkpt>
      <trkpt lat="47.394848" lon="7.889167">
        <ele>672.226473</ele>
        <time>2021-11-22T10:13:39.013Z</time>
      </trkpt>
      <trkpt lat="47.394678" lon="7.888935">
        <ele>672.902914</ele>
        <time>2021-11-22T10:13:44.284Z</time>
      </trkpt>
      <trkpt lat="47.394482" lon="7.888702">
        <ele>673.638226</ele>
        <time>2021-11-22T10:13:50.289Z</time>
      </trkpt>
      <trkpt lat="47.394359" lon="7.888578">
        <ele>674.073461</ele>
        <time>2021-11-22T10:13:53.963Z</time>
      </trkpt>
      <trkpt lat="47.394146" lon="7.888371">
        <ele>674.818644</ele>
        <time>2021-11-22T10:14:00.054Z</time>
      </trkpt>
      <trkpt lat="47.393995" lon="7.888223">
        <ele>675.348287</ele>
        <time>2021-11-22T10:14:05.454Z</time>
      </trkpt>
      <trkpt lat="47.393916" lon="7.888143">
        <ele>675.628228</ele>
        <time>2021-11-22T10:14:07.646Z</time>
      </trkpt>
      <trkpt lat="47.393730" lon="7.887967">
        <ele>676.273825</ele>
        <time>2021-11-22T10:14:14.961Z</time>
      </trkpt>
      <trkpt lat="47.393623" lon="7.887857">
        <ele>676.654836</ele>
        <time>2021-11-22T10:14:18.109Z</time>
      </trkpt>
      <trkpt lat="47.393478" lon="7.887667">
        <ele>678.108129</ele>
        <time>2021-11-22T10:14:26.038Z</time>
      </trkpt>
      <trkpt lat="47.393429" lon="7.887604">
        <ele>678.608484</ele>
        <time>2021-11-22T10:14:28.378Z</time>
      </trkpt>
      <trkpt lat="47.393034" lon="7.887066">
        <ele>682.746853</ele>
        <time>2021-11-22T10:14:49.580Z</time>
      </trkpt>
      <trkpt lat="47.392970" lon="7.886964">
        <ele>683.472026</ele>
        <time>2021-11-22T10:14:53.925Z</time>
      </trkpt>
      <trkpt lat="47.392849" lon="7.886770">
        <ele>684.847486</ele>
        <time>2021-11-22T10:15:02.477Z</time>
      </trkpt>
      <trkpt lat="47.392831" lon="7.886731">
        <ele>685.093609</ele>
        <time>2021-11-22T10:15:04.120Z</time>
      </trkpt>
      <trkpt lat="47.392756" lon="7.886570">
        <ele>686.112668</ele>
        <time>2021-11-22T10:15:12.066Z</time>
      </trkpt>
      <trkpt lat="47.392679" lon="7.886220">
        <ele>688.031627</ele>
        <time>2021-11-22T10:15:25.227Z</time>
      </trkpt>
      <trkpt lat="47.392677" lon="7.886170">
        <ele>688.292798</ele>
        <time>2021-11-22T10:15:27.979Z</time>
      </trkpt>
      <trkpt lat="47.392666" lon="7.885811">
        <ele>690.166652</ele>
        <time>2021-11-22T10:15:41.640Z</time>
      </trkpt>
      <trkpt lat="47.392623" lon="7.885495">
        <ele>691.676246</ele>
        <time>2021-11-22T10:15:53.278Z</time>
      </trkpt>
      <trkpt lat="47.392609" lon="7.885409">
        <ele>692.077424</ele>
        <time>2021-11-22T10:15:56.747Z</time>
      </trkpt>
      <trkpt lat="47.392513" lon="7.884798">
        <ele>694.922320</ele>
        <time>2021-11-22T10:16:17.968Z</time>
      </trkpt>
      <trkpt lat="47.392466" lon="7.884585">
        <ele>695.938422</ele>
        <time>2021-11-22T10:16:25.671Z</time>
      </trkpt>
      <trkpt lat="47.392294" lon="7.884155">
        <ele>698.203733</ele>
        <time>2021-11-22T10:16:39.606Z</time>
      </trkpt>
      <trkpt lat="47.392254" lon="7.884010">
        <ele>698.913901</ele>
        <time>2021-11-22T10:16:43.124Z</time>
      </trkpt>
      <trkpt lat="47.392243" lon="7.883926">
        <ele>699.301954</ele>
        <time>2021-11-22T10:16:46.033Z</time>
      </trkpt>
      <trkpt lat="47.392257" lon="7.883748">
        <ele>700.114722</ele>
        <time>2021-11-22T10:16:50.382Z</time>
      </trkpt>
      <trkpt lat="47.392295" lon="7.883568">
        <ele>700.969906</ele>
        <time>2021-11-22T10:16:54.297Z</time>
      </trkpt>
      <trkpt lat="47.392327" lon="7.883402">
        <ele>701.752744</ele>
        <time>2021-11-22T10:16:57.931Z</time>
      </trkpt>
      <trkpt lat="47.392391" lon="7.882852">
        <ele>702.230311</ele>
        <time>2021-11-22T10:17:07.006Z</time>
      </trkpt>
      <trkpt lat="47.392399" lon="7.882631">
        <ele>702.021781</ele>
        <time>2021-11-22T10:17:10.165Z</time>
      </trkpt>
      <trkpt lat="47.392394" lon="7.882220">
        <ele>701.634461</ele>
        <time>2021-11-22T10:17:13.785Z</time>
      </trkpt>
      <trkpt lat="47.392492" lon="7.881363">
        <ele>700.815530</ele>
        <time>2021-11-22T10:17:19.965Z</time>
      </trkpt>
      <trkpt lat="47.392530" lon="7.881231">
        <ele>700.680377</ele>
        <time>2021-11-22T10:17:20.881Z</time>
      </trkpt>
      <trkpt lat="47.392576" lon="7.881042">
        <ele>700.491136</ele>
        <time>2021-11-22T10:17:22.245Z</time>
      </trkpt>
      <trkpt lat="47.392973" lon="7.879797">
        <ele>696.561795</ele>
        <time>2021-11-22T10:17:31.271Z</time>
      </trkpt>
      <trkpt lat="47.393030" lon="7.879335">
        <ele>694.804104</ele>
        <time>2021-11-22T10:17:34.224Z</time>
      </trkpt>
      <trkpt lat="47.392980" lon="7.878739">
        <ele>692.556286</ele>
        <time>2021-11-22T10:17:37.945Z</time>
      </trkpt>
      <trkpt lat="47.392853" lon="7.877912">
        <ele>688.815611</ele>
        <time>2021-11-22T10:17:43.175Z</time>
      </trkpt>
      <trkpt lat="47.392796" lon="7.877526">
        <ele>686.224582</ele>
        <time>2021-11-22T10:17:45.564Z</time>
      </trkpt>
      <trkpt lat="47.392627" lon="7.875850">
        <ele>675.111591</ele>
        <time>2021-11-22T10:17:55.379Z</time>
      </trkpt>
      <trkpt lat="47.392620" lon="7.875265">
        <ele>671.298466</ele>
        <time>2021-11-22T10:17:58.762Z</time>
      </trkpt>
      <trkpt lat="47.392622" lon="7.875217">
        <ele>670.988361</ele>
        <time>2021-11-22T10:17:59.028Z</time>
      </trkpt>
      <trkpt lat="47.392645" lon="7.874997">
        <ele>669.552914</ele>
        <time>2021-11-22T10:18:00.341Z</time>
      </trkpt>
      <trkpt lat="47.392733" lon="7.874549">
        <ele>666.544918</ele>
        <time>2021-11-22T10:18:03.015Z</time>
      </trkpt>
      <trkpt lat="47.392729" lon="7.874456">
        <ele>665.944016</ele>
        <time>2021-11-22T10:18:03.550Z</time>
      </trkpt>
      <trkpt lat="47.392680" lon="7.874314">
        <ele>664.916262</ele>
        <time>2021-11-22T10:18:04.477Z</time>
      </trkpt>
      <trkpt lat="47.392178" lon="7.872950">
        <ele>655.667900</ele>
        <time>2021-11-22T10:18:13.568Z</time>
      </trkpt>
      <trkpt lat="47.392145" lon="7.872809">
        <ele>655.795941</ele>
        <time>2021-11-22T10:18:14.435Z</time>
      </trkpt>
      <trkpt lat="47.392122" lon="7.872711">
        <ele>655.884961</ele>
        <time>2021-11-22T10:18:15.168Z</time>
      </trkpt>
      <trkpt lat="47.392003" lon="7.871960">
        <ele>656.546933</ele>
        <time>2021-11-22T10:18:24.365Z</time>
      </trkpt>
      <trkpt lat="47.391971" lon="7.871747">
        <ele>656.734189</ele>
        <time>2021-11-22T10:18:25.902Z</time>
      </trkpt>
      <trkpt lat="47.391928" lon="7.871611">
        <ele>656.863015</ele>
        <time>2021-11-22T10:18:29.917Z</time>
      </trkpt>
      <trkpt lat="47.391668" lon="7.871191">
        <ele>657.351470</ele>
        <time>2021-11-22T10:18:42.413Z</time>
      </trkpt>
      <trkpt lat="47.391313" lon="7.870991">
        <ele>657.833154</ele>
        <time>2021-11-22T10:18:56.460Z</time>
      </trkpt>
      <trkpt lat="47.391248" lon="7.870968">
        <ele>658.271428</ele>
        <time>2021-11-22T10:19:01.329Z</time>
      </trkpt>
      <trkpt lat="47.391237" lon="7.871032">
        <ele>658.665796</ele>
        <time>2021-11-22T10:19:04.557Z</time>
      </trkpt>
      <trkpt lat="47.391155" lon="7.871190">
        <ele>659.854842</ele>
        <time>2021-11-22T10:19:08.902Z</time>
      </trkpt>
      <trkpt lat="47.391042" lon="7.871238">
        <ele>660.892153</ele>
        <time>2021-11-22T10:19:15.216Z</time>
      </trkpt>
      <trkpt lat="47.390859" lon="7.871070">
        <ele>662.793015</ele>
        <time>2021-11-22T10:19:26.451Z</time>
      </trkpt>
      <trkpt lat="47.390762" lon="7.870887">
        <ele>664.181151</ele>
        <time>2021-11-22T10:19:36.078Z</time>
      </trkpt>
      <trkpt lat="47.390678" lon="7.870726">
        <ele>665.395163</ele>
        <time>2021-11-22T10:19:45.752Z</time>
      </trkpt>
      <trkpt lat="47.390389" lon="7.870365">
        <ele>668.734227</ele>
        <time>2021-11-22T10:20:06.065Z</time>
      </trkpt>
      <trkpt lat="47.389733" lon="7.870073">
        <ele>674.213564</ele>
        <time>2021-11-22T10:20:40.071Z</time>
      </trkpt>
      <trkpt lat="47.389569" lon="7.869837">
        <ele>675.148591</ele>
        <time>2021-11-22T10:20:49.886Z</time>
      </trkpt>
      <trkpt lat="47.388898" lon="7.868496">
        <ele>679.758863</ele>
        <time>2021-11-22T10:21:22.310Z</time>
      </trkpt>
      <trkpt lat="47.388714" lon="7.868237">
        <ele>680.796837</ele>
        <time>2021-11-22T10:21:28.135Z</time>
      </trkpt>
      <trkpt lat="47.388570" lon="7.868126">
        <ele>681.162816</ele>
        <time>2021-11-22T10:21:31.091Z</time>
      </trkpt>
      <trkpt lat="47.388489" lon="7.868068">
        <ele>681.248990</ele>
        <time>2021-11-22T10:21:33.939Z</time>
      </trkpt>
      <trkpt lat="47.388334" lon="7.867941">
        <ele>681.418674</ele>
        <time>2021-11-22T10:21:35.918Z</time>
      </trkpt>
      <trkpt lat="47.387851" lon="7.867311">
        <ele>682.035538</ele>
        <time>2021-11-22T10:21:47.868Z</time>
      </trkpt>
      <trkpt lat="47.387697" lon="7.867213">
        <ele>682.196065</ele>
        <time>2021-11-22T10:21:50.293Z</time>
      </trkpt>
      <trkpt lat="47.387496" lon="7.867166">
        <ele>682.390881</ele>
        <time>2021-11-22T10:21:53.957Z</time>
      </trkpt>
      <trkpt lat="47.386883" lon="7.867395">
        <ele>683.001216</ele>
        <time>2021-11-22T10:22:05.590Z</time>
      </trkpt>
      <trkpt lat="47.386603" lon="7.867395">
        <ele>683.275912</ele>
        <time>2021-11-22T10:22:11.422Z</time>
      </trkpt>
      <trkpt lat="47.386464" lon="7.867362">
        <ele>683.414029</ele>
        <time>2021-11-22T10:22:14.315Z</time>
      </trkpt>
      <trkpt lat="47.386040" lon="7.867365">
        <ele>683.830002</ele>
        <time>2021-11-22T10:22:22.466Z</time>
      </trkpt>
      <trkpt lat="47.385944" lon="7.867392">
        <ele>683.925876</ele>
        <time>2021-11-22T10:22:24.852Z</time>
      </trkpt>
      <trkpt lat="47.385795" lon="7.867435">
        <ele>684.074818</ele>
        <time>2021-11-22T10:22:27.572Z</time>
      </trkpt>
      <trkpt lat="47.385102" lon="7.867627">
        <ele>684.951116</ele>
        <time>2021-11-22T10:22:38.537Z</time>
      </trkpt>
      <trkpt lat="47.384400" lon="7.867647">
        <ele>686.250159</ele>
        <time>2021-11-22T10:22:52.688Z</time>
      </trkpt>
      <trkpt lat="47.383776" lon="7.867821">
        <ele>687.425046</ele>
        <time>2021-11-22T10:23:07.977Z</time>
      </trkpt>
      <trkpt lat="47.383471" lon="7.867892">
        <ele>687.991501</ele>
        <time>2021-11-22T10:23:17.650Z</time>
      </trkpt>
      <trkpt lat="47.382207" lon="7.868506">
        <ele>690.346116</ele>
        <time>2021-11-22T10:23:52.481Z</time>
      </trkpt>
      <trkpt lat="47.381814" lon="7.868690">
        <ele>691.051427</ele>
        <time>2021-11-22T10:23:59.285Z</time>
      </trkpt>
      <trkpt lat="47.381482" lon="7.868872">
        <ele>689.472705</ele>
        <time>2021-11-22T10:24:03.023Z</time>
      </trkpt>
      <trkpt lat="47.381482" lon="7.868872">
        <ele>689.472705</ele>
        <time>2021-11-22T10:24:03.417Z</time>
      </trkpt>
      <trkpt lat="47.381482" lon="7.868872">
        <ele>689.472705</ele>
        <time>2021-11-22T10:24:03.486Z</time>
      </trkpt>
      <trkpt lat="47.381410" lon="7.868929">
        <ele>689.108522</ele>
        <time>2021-11-22T10:24:04.290Z</time>
      </trkpt>
      <trkpt lat="47.381343" lon="7.868980">
        <ele>688.772498</ele>
        <time>2021-11-22T10:24:04.940Z</time>
      </trkpt>
      <trkpt lat="47.381084" lon="7.869193">
        <ele>687.450932</ele>
        <time>2021-11-22T10:24:07.885Z</time>
      </trkpt>
      <trkpt lat="47.380950" lon="7.869325">
        <ele>686.732868</ele>
        <time>2021-11-22T10:24:09.324Z</time>
      </trkpt>
      <trkpt lat="47.380843" lon="7.869437">
        <ele>686.148203</ele>
        <time>2021-11-22T10:24:10.632Z</time>
      </trkpt>
      <trkpt lat="47.380725" lon="7.869588">
        <ele>685.452155</ele>
        <time>2021-11-22T10:24:11.978Z</time>
      </trkpt>
      <trkpt lat="47.380570" lon="7.869787">
        <ele>684.536563</ele>
        <time>2021-11-22T10:24:13.963Z</time>
      </trkpt>
      <trkpt lat="47.380483" lon="7.869921">
        <ele>683.976171</ele>
        <time>2021-11-22T10:24:15.049Z</time>
      </trkpt>
      <trkpt lat="47.380441" lon="7.869986">
        <ele>683.704960</ele>
        <time>2021-11-22T10:24:15.599Z</time>
      </trkpt>
      <trkpt lat="47.380320" lon="7.870168">
        <ele>682.931625</ele>
        <time>2021-11-22T10:24:17.353Z</time>
      </trkpt>
      <trkpt lat="47.380175" lon="7.870437">
        <ele>681.863166</ele>
        <time>2021-11-22T10:24:19.440Z</time>
      </trkpt>
      <trkpt lat="47.380138" lon="7.870450">
        <ele>681.688623</ele>
        <time>2021-11-22T10:24:19.830Z</time>
      </trkpt>
      <trkpt lat="47.380051" lon="7.870618">
        <ele>681.031375</ele>
        <time>2021-11-22T10:24:21.276Z</time>
      </trkpt>
      <trkpt lat="47.380047" lon="7.870663">
        <ele>680.890335</ele>
        <time>2021-11-22T10:24:21.554Z</time>
      </trkpt>
      <trkpt lat="47.379746" lon="7.871189">
        <ele>678.750224</ele>
        <time>2021-11-22T10:24:25.987Z</time>
      </trkpt>
      <trkpt lat="47.379717" lon="7.871234">
        <ele>678.557173</ele>
        <time>2021-11-22T10:24:26.464Z</time>
      </trkpt>
      <trkpt lat="47.379412" lon="7.871620">
        <ele>676.713769</ele>
        <time>2021-11-22T10:24:30.412Z</time>
      </trkpt>
      <trkpt lat="47.379227" lon="7.871763">
        <ele>675.755480</ele>
        <time>2021-11-22T10:24:32.406Z</time>
      </trkpt>
      <trkpt lat="47.379124" lon="7.871813">
        <ele>675.257899</ele>
        <time>2021-11-22T10:24:33.491Z</time>
      </trkpt>
      <trkpt lat="47.379044" lon="7.871852">
        <ele>674.871268</ele>
        <time>2021-11-22T10:24:34.337Z</time>
      </trkpt>
      <trkpt lat="47.378769" lon="7.871985">
        <ele>673.562540</ele>
        <time>2021-11-22T10:24:37.163Z</time>
      </trkpt>
      <trkpt lat="47.378682" lon="7.872035">
        <ele>673.140698</ele>
        <time>2021-11-22T10:24:38.089Z</time>
      </trkpt>
      <trkpt lat="47.378353" lon="7.872202">
        <ele>671.568695</ele>
        <time>2021-11-22T10:24:41.347Z</time>
      </trkpt>
      <trkpt lat="47.378315" lon="7.872222">
        <ele>671.386407</ele>
        <time>2021-11-22T10:24:41.716Z</time>
      </trkpt>
      <trkpt lat="47.378209" lon="7.872290">
        <ele>670.864190</ele>
        <time>2021-11-22T10:24:42.775Z</time>
      </trkpt>
      <trkpt lat="47.377943" lon="7.872488">
        <ele>669.518174</ele>
        <time>2021-11-22T10:24:45.480Z</time>
      </trkpt>
      <trkpt lat="47.377865" lon="7.872546">
        <ele>669.123560</ele>
        <time>2021-11-22T10:24:46.431Z</time>
      </trkpt>
      <trkpt lat="47.377490" lon="7.872740">
        <ele>667.328099</ele>
        <time>2021-11-22T10:24:50.245Z</time>
      </trkpt>
      <trkpt lat="47.377176" lon="7.872785">
        <ele>666.190758</ele>
        <time>2021-11-22T10:24:53.434Z</time>
      </trkpt>
      <trkpt lat="47.377111" lon="7.872787">
        <ele>666.007515</ele>
        <time>2021-11-22T10:24:54.062Z</time>
      </trkpt>
      <trkpt lat="47.376987" lon="7.872792">
        <ele>665.657891</ele>
        <time>2021-11-22T10:24:55.508Z</time>
      </trkpt>
      <trkpt lat="47.376847" lon="7.872808">
        <ele>665.262121</ele>
        <time>2021-11-22T10:24:56.889Z</time>
      </trkpt>
      <trkpt lat="47.376796" lon="7.872820">
        <ele>665.116564</ele>
        <time>2021-11-22T10:24:59.763Z</time>
      </trkpt>
      <trkpt lat="47.376624" lon="7.872912">
        <ele>664.600961</ele>
        <time>2021-11-22T10:25:01.495Z</time>
      </trkpt>
      <trkpt lat="47.376583" lon="7.872961">
        <ele>664.452300</ele>
        <time>2021-11-22T10:25:02.006Z</time>
      </trkpt>
      <trkpt lat="47.376544" lon="7.873026">
        <ele>664.286547</ele>
        <time>2021-11-22T10:25:02.591Z</time>
      </trkpt>
      <trkpt lat="47.376514" lon="7.873091">
        <ele>664.136412</ele>
        <time>2021-11-22T10:25:05.466Z</time>
      </trkpt>
      <trkpt lat="47.376283" lon="7.873972">
        <ele>662.333262</ele>
        <time>2021-11-22T10:25:12.106Z</time>
      </trkpt>
      <trkpt lat="47.376139" lon="7.874122">
        <ele>661.836582</ele>
        <time>2021-11-22T10:25:14.262Z</time>
      </trkpt>
      <trkpt lat="47.375897" lon="7.874176">
        <ele>659.991707</ele>
        <time>2021-11-22T10:25:16.700Z</time>
      </trkpt>
      <trkpt lat="47.375857" lon="7.874168">
        <ele>659.587377</ele>
        <time>2021-11-22T10:25:19.197Z</time>
      </trkpt>
      <trkpt lat="47.375850" lon="7.874167">
        <ele>659.516932</ele>
        <time>2021-11-22T10:25:19.270Z</time>
      </trkpt>
      <trkpt lat="47.375267" lon="7.873862">
        <ele>653.321485</ele>
        <time>2021-11-22T10:25:24.898Z</time>
      </trkpt>
      <trkpt lat="47.374696" lon="7.873249">
        <ele>646.250111</ele>
        <time>2021-11-22T10:25:30.887Z</time>
      </trkpt>
      <trkpt lat="47.374570" lon="7.873080">
        <ele>644.545072</ele>
        <time>2021-11-22T10:25:32.274Z</time>
      </trkpt>
      <trkpt lat="47.374445" lon="7.872909">
        <ele>642.323337</ele>
        <time>2021-11-22T10:25:33.695Z</time>
      </trkpt>
      <trkpt lat="47.373838" lon="7.872164">
        <ele>628.946365</ele>
        <time>2021-11-22T10:25:40.152Z</time>
      </trkpt>
      <trkpt lat="47.373794" lon="7.872130">
        <ele>628.104722</ele>
        <time>2021-11-22T10:25:40.556Z</time>
      </trkpt>
      <trkpt lat="47.373696" lon="7.872069">
        <ele>626.302290</ele>
        <time>2021-11-22T10:25:41.423Z</time>
      </trkpt>
      <trkpt lat="47.372848" lon="7.871871">
        <ele>612.473778</ele>
        <time>2021-11-22T10:25:48.581Z</time>
      </trkpt>
      <trkpt lat="47.372805" lon="7.871854">
        <ele>612.123628</ele>
        <time>2021-11-22T10:25:48.951Z</time>
      </trkpt>
      <trkpt lat="47.372762" lon="7.871829">
        <ele>611.760119</ele>
        <time>2021-11-22T10:25:49.339Z</time>
      </trkpt>
      <trkpt lat="47.372614" lon="7.871667">
        <ele>610.310980</ele>
        <time>2021-11-22T10:25:50.914Z</time>
      </trkpt>
      <trkpt lat="47.372524" lon="7.871415">
        <ele>608.793333</ele>
        <time>2021-11-22T10:25:52.526Z</time>
      </trkpt>
      <trkpt lat="47.372517" lon="7.871351">
        <ele>608.447984</ele>
        <time>2021-11-22T10:25:52.890Z</time>
      </trkpt>
      <trkpt lat="47.372514" lon="7.871286">
        <ele>608.100923</ele>
        <time>2021-11-22T10:25:53.282Z</time>
      </trkpt>
      <trkpt lat="47.372517" lon="7.870863">
        <ele>605.847457</ele>
        <time>2021-11-22T10:25:55.780Z</time>
      </trkpt>
      <trkpt lat="47.372529" lon="7.870460">
        <ele>603.698582</ele>
        <time>2021-11-22T10:25:58.400Z</time>
      </trkpt>
      <trkpt lat="47.372536" lon="7.870217">
        <ele>602.402938</ele>
        <time>2021-11-22T10:26:00.092Z</time>
      </trkpt>
      <trkpt lat="47.372588" lon="7.869625">
        <ele>599.222912</ele>
        <time>2021-11-22T10:26:04.159Z</time>
      </trkpt>
      <trkpt lat="47.373152" lon="7.867027">
        <ele>596.314714</ele>
        <time>2021-11-22T10:26:26.752Z</time>
      </trkpt>
      <trkpt lat="47.373241" lon="7.866286">
        <ele>595.317063</ele>
        <time>2021-11-22T10:26:32.254Z</time>
      </trkpt>
      <trkpt lat="47.373270" lon="7.866048">
        <ele>594.996488</ele>
        <time>2021-11-22T10:26:33.926Z</time>
      </trkpt>
      <trkpt lat="47.373315" lon="7.865737">
        <ele>594.574901</ele>
        <time>2021-11-22T10:26:36.258Z</time>
      </trkpt>
      <trkpt lat="47.373428" lon="7.864805">
        <ele>593.319736</ele>
        <time>2021-11-22T10:26:43.144Z</time>
      </trkpt>
      <trkpt lat="47.373394" lon="7.863499">
        <ele>592.902119</ele>
        <time>2021-11-22T10:26:53.288Z</time>
      </trkpt>
      <trkpt lat="47.373617" lon="7.861720">
        <ele>593.077015</ele>
        <time>2021-11-22T10:27:16.800Z</time>
      </trkpt>
      <trkpt lat="47.373518" lon="7.859432">
        <ele>593.797608</ele>
        <time>2021-11-22T10:27:47.625Z</time>
      </trkpt>
      <trkpt lat="47.373453" lon="7.859231">
        <ele>593.867616</ele>
        <time>2021-11-22T10:27:49.387Z</time>
      </trkpt>
      <trkpt lat="47.373331" lon="7.859191">
        <ele>593.373677</ele>
        <time>2021-11-22T10:27:50.774Z</time>
      </trkpt>
      <trkpt lat="47.373310" lon="7.859204">
        <ele>593.240181</ele>
        <time>2021-11-22T10:27:51.790Z</time>
      </trkpt>
      <trkpt lat="47.373291" lon="7.859227">
        <ele>593.096145</ele>
        <time>2021-11-22T10:27:51.998Z</time>
      </trkpt>
      <trkpt lat="47.373250" lon="7.859421">
        <ele>592.289275</ele>
        <time>2021-11-22T10:27:53.426Z</time>
      </trkpt>
      <trkpt lat="47.373378" lon="7.860466">
        <ele>588.073016</ele>
        <time>2021-11-22T10:28:00.240Z</time>
      </trkpt>
      <trkpt lat="47.373335" lon="7.861886">
        <ele>581.870149</ele>
        <time>2021-11-22T10:28:08.654Z</time>
      </trkpt>
      <trkpt lat="47.372968" lon="7.863468">
        <ele>571.152640</ele>
        <time>2021-11-22T10:28:18.393Z</time>
      </trkpt>
      <trkpt lat="47.372834" lon="7.864650">
        <ele>563.895593</ele>
        <time>2021-11-22T10:28:25.455Z</time>
      </trkpt>
      <trkpt lat="47.372573" lon="7.866144">
        <ele>555.479426</ele>
        <time>2021-11-22T10:28:34.730Z</time>
      </trkpt>
      <trkpt lat="47.371930" lon="7.868187">
        <ele>543.364461</ele>
        <time>2021-11-22T10:28:48.273Z</time>
      </trkpt>
      <trkpt lat="47.371175" lon="7.871226">
        <ele>527.154468</ele>
        <time>2021-11-22T10:29:07.577Z</time>
      </trkpt>
      <trkpt lat="47.371130" lon="7.871809">
        <ele>524.477730</ele>
        <time>2021-11-22T10:29:11.552Z</time>
      </trkpt>
      <trkpt lat="47.371247" lon="7.872282">
        <ele>522.897289</ele>
        <time>2021-11-22T10:29:14.968Z</time>
      </trkpt>
      <trkpt lat="47.371259" lon="7.872308">
        <ele>522.798540</ele>
        <time>2021-11-22T10:29:15.140Z</time>
      </trkpt>
      <trkpt lat="47.371283" lon="7.872360">
        <ele>522.601042</ele>
        <time>2021-11-22T10:29:17.293Z</time>
      </trkpt>
      <trkpt lat="47.371596" lon="7.872945">
        <ele>520.261170</ele>
        <time>2021-11-22T10:29:21.934Z</time>
      </trkpt>
      <trkpt lat="47.371615" lon="7.872996">
        <ele>520.078487</ele>
        <time>2021-11-22T10:29:23.481Z</time>
      </trkpt>
      <trkpt lat="47.371633" lon="7.873056">
        <ele>519.872529</ele>
        <time>2021-11-22T10:29:23.942Z</time>
      </trkpt>
      <trkpt lat="47.371661" lon="7.873321">
        <ele>519.030766</ele>
        <time>2021-11-22T10:29:25.913Z</time>
      </trkpt>
      <trkpt lat="47.371653" lon="7.873396">
        <ele>518.792477</ele>
        <time>2021-11-22T10:29:26.332Z</time>
      </trkpt>
      <trkpt lat="47.371641" lon="7.873462">
        <ele>518.578001</ele>
        <time>2021-11-22T10:29:26.739Z</time>
      </trkpt>
      <trkpt lat="47.371543" lon="7.873707">
        <ele>517.684965</ele>
        <time>2021-11-22T10:29:28.901Z</time>
      </trkpt>
      <trkpt lat="47.371492" lon="7.873769">
        <ele>517.378821</ele>
        <time>2021-11-22T10:29:30.315Z</time>
      </trkpt>
      <trkpt lat="47.371443" lon="7.873817">
        <ele>517.106315</ele>
        <time>2021-11-22T10:29:30.803Z</time>
      </trkpt>
      <trkpt lat="47.370953" lon="7.874086">
        <ele>513.560513</ele>
        <time>2021-11-22T10:29:35.933Z</time>
      </trkpt>
      <trkpt lat="47.370698" lon="7.874356">
        <ele>511.178605</ele>
        <time>2021-11-22T10:29:38.777Z</time>
      </trkpt>
      <trkpt lat="47.370576" lon="7.874685">
        <ele>509.250301</ele>
        <time>2021-11-22T10:29:40.993Z</time>
      </trkpt>
      <trkpt lat="47.370566" lon="7.874710">
        <ele>509.101035</ele>
        <time>2021-11-22T10:29:41.154Z</time>
      </trkpt>
      <trkpt lat="47.370311" lon="7.875855">
        <ele>502.904553</ele>
        <time>2021-11-22T10:29:48.212Z</time>
      </trkpt>
      <trkpt lat="47.370247" lon="7.876149">
        <ele>501.352969</ele>
        <time>2021-11-22T10:29:50.049Z</time>
      </trkpt>
      <trkpt lat="47.369840" lon="7.878037">
        <ele>491.415863</ele>
        <time>2021-11-22T10:30:01.980Z</time>
      </trkpt>
      <trkpt lat="47.369770" lon="7.878360">
        <ele>489.714978</ele>
        <time>2021-11-22T10:30:04.157Z</time>
      </trkpt>
      <trkpt lat="47.369658" lon="7.878791">
        <ele>488.113237</ele>
        <time>2021-11-22T10:30:07.072Z</time>
      </trkpt>
      <trkpt lat="47.369625" lon="7.878900">
        <ele>487.720682</ele>
        <time>2021-11-22T10:30:07.844Z</time>
      </trkpt>
      <trkpt lat="47.369584" lon="7.879020">
        <ele>487.278776</ele>
        <time>2021-11-22T10:30:08.637Z</time>
      </trkpt>
      <trkpt lat="47.369108" lon="7.880014">
        <ele>483.276199</ele>
        <time>2021-11-22T10:30:16.456Z</time>
      </trkpt>
      <trkpt lat="47.369029" lon="7.880400">
        <ele>481.950389</ele>
        <time>2021-11-22T10:30:19.040Z</time>
      </trkpt>
      <trkpt lat="47.369074" lon="7.880860">
        <ele>480.591035</ele>
        <time>2021-11-22T10:30:22.122Z</time>
      </trkpt>
      <trkpt lat="47.369474" lon="7.881651">
        <ele>479.071801</ele>
        <time>2021-11-22T10:30:29.173Z</time>
      </trkpt>
      <trkpt lat="47.369499" lon="7.881993">
        <ele>478.542414</ele>
        <time>2021-11-22T10:30:31.772Z</time>
      </trkpt>
      <trkpt lat="47.369458" lon="7.882276">
        <ele>478.097029</ele>
        <time>2021-11-22T10:30:34.070Z</time>
      </trkpt>
      <trkpt lat="47.369335" lon="7.882577">
        <ele>477.556008</ele>
        <time>2021-11-22T10:30:37.228Z</time>
      </trkpt>
      <trkpt lat="47.369187" lon="7.882782">
        <ele>477.094883</ele>
        <time>2021-11-22T10:30:40.427Z</time>
      </trkpt>
      <trkpt lat="47.368507" lon="7.883191">
        <ele>473.992669</ele>
        <time>2021-11-22T10:30:47.992Z</time>
      </trkpt>
      <trkpt lat="47.368344" lon="7.883352">
        <ele>473.025915</ele>
        <time>2021-11-22T10:30:49.894Z</time>
      </trkpt>
      <trkpt lat="47.368213" lon="7.883529">
        <ele>472.150546</ele>
        <time>2021-11-22T10:30:51.598Z</time>
      </trkpt>
      <trkpt lat="47.368153" lon="7.883601">
        <ele>471.769399</ele>
        <time>2021-11-22T10:30:52.317Z</time>
      </trkpt>
      <trkpt lat="47.368040" lon="7.883694">
        <ele>471.131654</ele>
        <time>2021-11-22T10:30:53.575Z</time>
      </trkpt>
      <trkpt lat="47.368007" lon="7.883717">
        <ele>470.951762</ele>
        <time>2021-11-22T10:30:54.610Z</time>
      </trkpt>
      <trkpt lat="47.367966" lon="7.883738">
        <ele>470.737830</ele>
        <time>2021-11-22T10:30:54.982Z</time>
      </trkpt>
      <trkpt lat="47.367923" lon="7.883750">
        <ele>470.522103</ele>
        <time>2021-11-22T10:30:55.346Z</time>
      </trkpt>
      <trkpt lat="47.367886" lon="7.883755">
        <ele>470.338943</ele>
        <time>2021-11-22T10:30:55.668Z</time>
      </trkpt>
      <trkpt lat="47.367886" lon="7.883755">
        <ele>470.338943</ele>
        <time>2021-11-22T10:30:55.671Z</time>
      </trkpt>
      <trkpt lat="47.367839" lon="7.883755">
        <ele>470.107250</ele>
        <time>2021-11-22T10:30:56.074Z</time>
      </trkpt>
      <trkpt lat="47.367659" lon="7.883669">
        <ele>469.174613</ele>
        <time>2021-11-22T10:30:58.083Z</time>
      </trkpt>
      <trkpt lat="47.367616" lon="7.883630">
        <ele>468.925838</ele>
        <time>2021-11-22T10:30:58.500Z</time>
      </trkpt>
      <trkpt lat="47.367580" lon="7.883575">
        <ele>468.670464</ele>
        <time>2021-11-22T10:30:58.931Z</time>
      </trkpt>
      <trkpt lat="47.367334" lon="7.882994">
        <ele>465.177503</ele>
        <time>2021-11-22T10:31:03.043Z</time>
      </trkpt>
      <trkpt lat="47.367293" lon="7.882923">
        <ele>464.598371</ele>
        <time>2021-11-22T10:31:03.597Z</time>
      </trkpt>
      <trkpt lat="47.367257" lon="7.882864">
        <ele>464.105463</ele>
        <time>2021-11-22T10:31:04.142Z</time>
      </trkpt>
      <trkpt lat="47.367212" lon="7.882810">
        <ele>463.574035</ele>
        <time>2021-11-22T10:31:04.713Z</time>
      </trkpt>
      <trkpt lat="47.367147" lon="7.882758">
        <ele>462.896527</ele>
        <time>2021-11-22T10:31:05.327Z</time>
      </trkpt>
      <trkpt lat="47.367100" lon="7.882728">
        <ele>462.427273</ele>
        <time>2021-11-22T10:31:05.753Z</time>
      </trkpt>
      <trkpt lat="47.366881" lon="7.882725">
        <ele>460.420187</ele>
        <time>2021-11-22T10:31:07.786Z</time>
      </trkpt>
      <trkpt lat="47.366821" lon="7.882753">
        <ele>459.843512</ele>
        <time>2021-11-22T10:31:08.306Z</time>
      </trkpt>
      <trkpt lat="47.366780" lon="7.882783">
        <ele>459.424161</ele>
        <time>2021-11-22T10:31:08.683Z</time>
      </trkpt>
      <trkpt lat="47.366602" lon="7.883054">
        <ele>457.080975</ele>
        <time>2021-11-22T10:31:10.895Z</time>
      </trkpt>
      <trkpt lat="47.366587" lon="7.883103">
        <ele>456.747205</ele>
        <time>2021-11-22T10:31:11.191Z</time>
      </trkpt>
      <trkpt lat="47.366576" lon="7.883147">
        <ele>456.456083</ele>
        <time>2021-11-22T10:31:11.453Z</time>
      </trkpt>
      <trkpt lat="47.366562" lon="7.883219">
        <ele>455.991121</ele>
        <time>2021-11-22T10:31:11.878Z</time>
      </trkpt>
      <trkpt lat="47.366551" lon="7.883328">
        <ele>455.307079</ele>
        <time>2021-11-22T10:31:12.559Z</time>
      </trkpt>
      <trkpt lat="47.366557" lon="7.883815">
        <ele>452.283729</ele>
        <time>2021-11-22T10:31:15.432Z</time>
      </trkpt>
      <trkpt lat="47.366578" lon="7.884153">
        <ele>450.542238</ele>
        <time>2021-11-22T10:31:17.437Z</time>
      </trkpt>
      <trkpt lat="47.366596" lon="7.884449">
        <ele>449.296355</ele>
        <time>2021-11-22T10:31:19.225Z</time>
      </trkpt>
      <trkpt lat="47.366596" lon="7.884916">
        <ele>447.338596</ele>
        <time>2021-11-22T10:31:22.063Z</time>
      </trkpt>
      <trkpt lat="47.366586" lon="7.885013">
        <ele>446.927269</ele>
        <time>2021-11-22T10:31:22.655Z</time>
      </trkpt>
      <trkpt lat="47.366578" lon="7.885091">
        <ele>446.596550</ele>
        <time>2021-11-22T10:31:23.134Z</time>
      </trkpt>
      <trkpt lat="47.366453" lon="7.885555">
        <ele>444.503145</ele>
        <time>2021-11-22T10:31:26.231Z</time>
      </trkpt>
      <trkpt lat="47.366080" lon="7.886488">
        <ele>440.064889</ele>
        <time>2021-11-22T10:31:33.215Z</time>
      </trkpt>
      <trkpt lat="47.365937" lon="7.886847">
        <ele>439.187551</ele>
        <time>2021-11-22T10:31:36.148Z</time>
      </trkpt>
      <trkpt lat="47.365872" lon="7.887003">
        <ele>438.801726</ele>
        <time>2021-11-22T10:31:37.319Z</time>
      </trkpt>
      <trkpt lat="47.365744" lon="7.887315">
        <ele>438.033315</ele>
        <time>2021-11-22T10:31:39.960Z</time>
      </trkpt>
      <trkpt lat="47.365601" lon="7.887633">
        <ele>437.229230</ele>
        <time>2021-11-22T10:31:42.738Z</time>
      </trkpt>
      <trkpt lat="47.365425" lon="7.888058">
        <ele>436.179858</ele>
        <time>2021-11-22T10:31:46.190Z</time>
      </trkpt>
      <trkpt lat="47.365097" lon="7.888835">
        <ele>434.229949</ele>
        <time>2021-11-22T10:31:52.541Z</time>
      </trkpt>
      <trkpt lat="47.365027" lon="7.888996">
        <ele>433.800548</ele>
        <time>2021-11-22T10:31:53.949Z</time>
      </trkpt>
      <trkpt lat="47.364923" lon="7.889243">
        <ele>433.147779</ele>
        <time>2021-11-22T10:31:55.962Z</time>
      </trkpt>
      <trkpt lat="47.364764" lon="7.889618">
        <ele>432.154794</ele>
        <time>2021-11-22T10:31:59.114Z</time>
      </trkpt>
      <trkpt lat="47.364681" lon="7.889814">
        <ele>431.635975</ele>
        <time>2021-11-22T10:32:00.662Z</time>
      </trkpt>
      <trkpt lat="47.364609" lon="7.889980">
        <ele>431.193548</ele>
        <time>2021-11-22T10:32:02.098Z</time>
      </trkpt>
      <trkpt lat="47.364536" lon="7.890155">
        <ele>430.732250</ele>
        <time>2021-11-22T10:32:03.447Z</time>
      </trkpt>
      <trkpt lat="47.364430" lon="7.890406">
        <ele>430.068353</ele>
        <time>2021-11-22T10:32:05.446Z</time>
      </trkpt>
      <trkpt lat="47.364335" lon="7.890641">
        <ele>429.454098</ele>
        <time>2021-11-22T10:32:07.215Z</time>
      </trkpt>
      <trkpt lat="47.364254" lon="7.890853">
        <ele>428.907783</ele>
        <time>2021-11-22T10:32:08.856Z</time>
      </trkpt>
      <trkpt lat="47.364191" lon="7.891027">
        <ele>428.464240</ele>
        <time>2021-11-22T10:32:10.139Z</time>
      </trkpt>
      <trkpt lat="47.364146" lon="7.891178">
        <ele>428.092231</ele>
        <time>2021-11-22T10:32:11.187Z</time>
      </trkpt>
      <trkpt lat="47.364096" lon="7.891355">
        <ele>427.659772</ele>
        <time>2021-11-22T10:32:12.571Z</time>
      </trkpt>
      <trkpt lat="47.364052" lon="7.891533">
        <ele>427.232484</ele>
        <time>2021-11-22T10:32:13.887Z</time>
      </trkpt>
      <trkpt lat="47.363935" lon="7.892057">
        <ele>425.988304</ele>
        <time>2021-11-22T10:32:17.607Z</time>
      </trkpt>
      <trkpt lat="47.363897" lon="7.892240">
        <ele>425.556677</ele>
        <time>2021-11-22T10:32:18.839Z</time>
      </trkpt>
      <trkpt lat="47.363886" lon="7.892295">
        <ele>425.427357</ele>
        <time>2021-11-22T10:32:19.279Z</time>
      </trkpt>
      <trkpt lat="47.363838" lon="7.892520">
        <ele>424.895405</ele>
        <time>2021-11-22T10:32:21.035Z</time>
      </trkpt>
      <trkpt lat="47.363797" lon="7.892711">
        <ele>424.443582</ele>
        <time>2021-11-22T10:32:22.340Z</time>
      </trkpt>
      <trkpt lat="47.363683" lon="7.893247">
        <ele>423.176696</ele>
        <time>2021-11-22T10:32:26.234Z</time>
      </trkpt>
      <trkpt lat="47.363594" lon="7.893669">
        <ele>422.305811</ele>
        <time>2021-11-22T10:32:29.554Z</time>
      </trkpt>
      <trkpt lat="47.363582" lon="7.893727">
        <ele>422.207527</ele>
        <time>2021-11-22T10:32:29.917Z</time>
      </trkpt>
      <trkpt lat="47.363562" lon="7.893823">
        <ele>422.044754</ele>
        <time>2021-11-22T10:32:30.663Z</time>
      </trkpt>
      <trkpt lat="47.363531" lon="7.893966">
        <ele>421.801423</ele>
        <time>2021-11-22T10:32:31.670Z</time>
      </trkpt>
      <trkpt lat="47.363505" lon="7.894096">
        <ele>421.581749</ele>
        <time>2021-11-22T10:32:32.688Z</time>
      </trkpt>
      <trkpt lat="47.363473" lon="7.894233">
        <ele>421.346891</ele>
        <time>2021-11-22T10:32:33.640Z</time>
      </trkpt>
      <trkpt lat="47.363446" lon="7.894343">
        <ele>421.157277</ele>
        <time>2021-11-22T10:32:34.550Z</time>
      </trkpt>
      <trkpt lat="47.363408" lon="7.894474">
        <ele>420.926325</ele>
        <time>2021-11-22T10:32:35.523Z</time>
      </trkpt>
      <trkpt lat="47.363399" lon="7.894505">
        <ele>420.871665</ele>
        <time>2021-11-22T10:32:35.797Z</time>
      </trkpt>
      <trkpt lat="47.362957" lon="7.895788">
        <ele>418.538892</ele>
        <time>2021-11-22T10:32:46.567Z</time>
      </trkpt>
      <trkpt lat="47.362890" lon="7.895942">
        <ele>418.269276</ele>
        <time>2021-11-22T10:32:47.791Z</time>
      </trkpt>
      <trkpt lat="47.362505" lon="7.896852">
        <ele>417.107218</ele>
        <time>2021-11-22T10:32:55.602Z</time>
      </trkpt>
      <trkpt lat="47.362472" lon="7.896930">
        <ele>417.007613</ele>
        <time>2021-11-22T10:32:56.333Z</time>
      </trkpt>
      <trkpt lat="47.362330" lon="7.897288">
        <ele>416.558281</ele>
        <time>2021-11-22T10:32:59.637Z</time>
      </trkpt>
      <trkpt lat="47.362248" lon="7.897504">
        <ele>416.290097</ele>
        <time>2021-11-22T10:33:01.561Z</time>
      </trkpt>
      <trkpt lat="47.362166" lon="7.897746">
        <ele>415.997025</ele>
        <time>2021-11-22T10:33:03.612Z</time>
      </trkpt>
      <trkpt lat="47.362122" lon="7.897885">
        <ele>415.830847</ele>
        <time>2021-11-22T10:33:04.745Z</time>
      </trkpt>
      <trkpt lat="47.362082" lon="7.898011">
        <ele>415.680134</ele>
        <time>2021-11-22T10:33:05.883Z</time>
      </trkpt>
      <trkpt lat="47.361971" lon="7.898351">
        <ele>415.374098</ele>
        <time>2021-11-22T10:33:09.917Z</time>
      </trkpt>
      <trkpt lat="47.361883" lon="7.898598">
        <ele>415.247940</ele>
        <time>2021-11-22T10:33:12.824Z</time>
      </trkpt>
      <trkpt lat="47.361853" lon="7.898673">
        <ele>415.208566</ele>
        <time>2021-11-22T10:33:13.606Z</time>
      </trkpt>
      <trkpt lat="47.361834" lon="7.898718">
        <ele>415.184596</ele>
        <time>2021-11-22T10:33:14.033Z</time>
      </trkpt>
      <trkpt lat="47.361807" lon="7.898775">
        <ele>415.153154</ele>
        <time>2021-11-22T10:33:14.563Z</time>
      </trkpt>
      <trkpt lat="47.361773" lon="7.898845">
        <ele>415.114217</ele>
        <time>2021-11-22T10:33:15.320Z</time>
      </trkpt>
      <trkpt lat="47.361729" lon="7.898932">
        <ele>415.065136</ele>
        <time>2021-11-22T10:33:16.137Z</time>
      </trkpt>
      <trkpt lat="47.361681" lon="7.899018">
        <ele>415.014762</ele>
        <time>2021-11-22T10:33:18.063Z</time>
      </trkpt>
      <trkpt lat="47.361398" lon="7.899405">
        <ele>414.757325</ele>
        <time>2021-11-22T10:33:22.850Z</time>
      </trkpt>
      <trkpt lat="47.361310" lon="7.899513">
        <ele>414.680955</ele>
        <time>2021-11-22T10:33:24.102Z</time>
      </trkpt>
      <trkpt lat="47.361267" lon="7.899569">
        <ele>414.642688</ele>
        <time>2021-11-22T10:33:25.065Z</time>
      </trkpt>
      <trkpt lat="47.361141" lon="7.899776">
        <ele>414.516883</ele>
        <time>2021-11-22T10:33:28.040Z</time>
      </trkpt>
      <trkpt lat="47.361124" lon="7.899822">
        <ele>414.493195</ele>
        <time>2021-11-22T10:33:28.397Z</time>
      </trkpt>
      <trkpt lat="47.361106" lon="7.899813">
        <ele>414.480513</ele>
        <time>2021-11-22T10:33:28.669Z</time>
      </trkpt>
      <trkpt lat="47.361087" lon="7.899811">
        <ele>414.467801</ele>
        <time>2021-11-22T10:33:28.859Z</time>
      </trkpt>
      <trkpt lat="47.361068" lon="7.899819">
        <ele>414.454615</ele>
        <time>2021-11-22T10:33:29.219Z</time>
      </trkpt>
      <trkpt lat="47.361051" lon="7.899836">
        <ele>414.440912</ele>
        <time>2021-11-22T10:33:29.430Z</time>
      </trkpt>
      <trkpt lat="47.361032" lon="7.899891">
        <ele>414.413003</ele>
        <time>2021-11-22T10:33:30.267Z</time>
      </trkpt>
      <trkpt lat="47.361033" lon="7.899922">
        <ele>414.398973</ele>
        <time>2021-11-22T10:33:30.568Z</time>
      </trkpt>
      <trkpt lat="47.360991" lon="7.899932">
        <ele>414.370582</ele>
        <time>2021-11-22T10:33:31.079Z</time>
      </trkpt>
      <trkpt lat="47.360578" lon="7.900312">
        <ele>413.821028</ele>
        <time>2021-11-22T10:33:37.891Z</time>
      </trkpt>
      <trkpt lat="47.360538" lon="7.900340">
        <ele>413.758536</ele>
        <time>2021-11-22T10:33:38.322Z</time>
      </trkpt>
      <trkpt lat="47.360151" lon="7.900584">
        <ele>413.164491</ele>
        <time>2021-11-22T10:33:43.028Z</time>
      </trkpt>
      <trkpt lat="47.360015" lon="7.900644">
        <ele>412.964117</ele>
        <time>2021-11-22T10:33:44.813Z</time>
      </trkpt>
      <trkpt lat="47.359927" lon="7.900682">
        <ele>412.834687</ele>
        <time>2021-11-22T10:33:45.819Z</time>
      </trkpt>
      <trkpt lat="47.359826" lon="7.900719">
        <ele>412.687786</ele>
        <time>2021-11-22T10:33:47.031Z</time>
      </trkpt>
      <trkpt lat="47.359249" lon="7.900841">
        <ele>411.864954</ele>
        <time>2021-11-22T10:33:53.775Z</time>
      </trkpt>
      <trkpt lat="47.359216" lon="7.900844">
        <ele>411.818282</ele>
        <time>2021-11-22T10:33:54.098Z</time>
      </trkpt>
      <trkpt lat="47.358996" lon="7.900857">
        <ele>411.405965</ele>
        <time>2021-11-22T10:33:56.492Z</time>
      </trkpt>
      <trkpt lat="47.358712" lon="7.900858">
        <ele>410.802443</ele>
        <time>2021-11-22T10:33:59.594Z</time>
      </trkpt>
      <trkpt lat="47.357962" lon="7.900839">
        <ele>409.208403</ele>
        <time>2021-11-22T10:34:07.838Z</time>
      </trkpt>
      <trkpt lat="47.357870" lon="7.900842">
        <ele>409.012849</ele>
        <time>2021-11-22T10:34:08.842Z</time>
      </trkpt>
      <trkpt lat="47.357514" lon="7.900879">
        <ele>408.254450</ele>
        <time>2021-11-22T10:34:12.623Z</time>
      </trkpt>
      <trkpt lat="47.357378" lon="7.900903">
        <ele>407.963382</ele>
        <time>2021-11-22T10:34:14.086Z</time>
      </trkpt>
      <trkpt lat="47.357127" lon="7.900944">
        <ele>407.348898</ele>
        <time>2021-11-22T10:34:16.770Z</time>
      </trkpt>
      <trkpt lat="47.356850" lon="7.901012">
        <ele>406.651052</ele>
        <time>2021-11-22T10:34:19.747Z</time>
      </trkpt>
      <trkpt lat="47.356476" lon="7.901128">
        <ele>405.701303</ele>
        <time>2021-11-22T10:34:23.741Z</time>
      </trkpt>
      <trkpt lat="47.356126" lon="7.901324">
        <ele>404.771005</ele>
        <time>2021-11-22T10:34:27.695Z</time>
      </trkpt>
      <trkpt lat="47.355990" lon="7.901411">
        <ele>404.402650</ele>
        <time>2021-11-22T10:34:29.228Z</time>
      </trkpt>
      <trkpt lat="47.355968" lon="7.901424">
        <ele>404.343758</ele>
        <time>2021-11-22T10:34:29.449Z</time>
      </trkpt>
      <trkpt lat="47.355804" lon="7.901521">
        <ele>403.904691</ele>
        <time>2021-11-22T10:34:31.385Z</time>
      </trkpt>
      <trkpt lat="47.355687" lon="7.901586">
        <ele>403.594015</ele>
        <time>2021-11-22T10:34:32.654Z</time>
      </trkpt>
      <trkpt lat="47.355633" lon="7.901615">
        <ele>403.451210</ele>
        <time>2021-11-22T10:34:33.293Z</time>
      </trkpt>
      <trkpt lat="47.355355" lon="7.901751">
        <ele>403.103857</ele>
        <time>2021-11-22T10:34:36.444Z</time>
      </trkpt>
      <trkpt lat="47.354787" lon="7.901986">
        <ele>402.443030</ele>
        <time>2021-11-22T10:34:43.084Z</time>
      </trkpt>
      <trkpt lat="47.354602" lon="7.902061">
        <ele>402.228108</ele>
        <time>2021-11-22T10:34:45.379Z</time>
      </trkpt>
      <trkpt lat="47.354574" lon="7.902073">
        <ele>402.195446</ele>
        <time>2021-11-22T10:34:45.683Z</time>
      </trkpt>
      <trkpt lat="47.353910" lon="7.902360">
        <ele>401.420361</ele>
        <time>2021-11-22T10:34:56.142Z</time>
      </trkpt>
      <trkpt lat="47.353817" lon="7.902400">
        <ele>401.441390</ele>
        <time>2021-11-22T10:34:57.917Z</time>
      </trkpt>
      <trkpt lat="47.353719" lon="7.902433">
        <ele>401.492050</ele>
        <time>2021-11-22T10:34:59.235Z</time>
      </trkpt>
      <trkpt lat="47.353603" lon="7.902453">
        <ele>401.550910</ele>
        <time>2021-11-22T10:35:00.772Z</time>
      </trkpt>
      <trkpt lat="47.353496" lon="7.902466">
        <ele>401.605019</ele>
        <time>2021-11-22T10:35:02.774Z</time>
      </trkpt>
      <trkpt lat="47.353027" lon="7.902518">
        <ele>401.842057</ele>
        <time>2021-11-22T10:35:10.103Z</time>
      </trkpt>
      <trkpt lat="47.352956" lon="7.902525">
        <ele>401.877920</ele>
        <time>2021-11-22T10:35:11.015Z</time>
      </trkpt>
      <trkpt lat="47.352874" lon="7.902531">
        <ele>401.919298</ele>
        <time>2021-11-22T10:35:12.186Z</time>
      </trkpt>
      <trkpt lat="47.352738" lon="7.902548">
        <ele>401.988086</ele>
        <time>2021-11-22T10:35:15.227Z</time>
      </trkpt>
      <trkpt lat="47.352156" lon="7.902615">
        <ele>402.282299</ele>
        <time>2021-11-22T10:35:25.592Z</time>
      </trkpt>
      <trkpt lat="47.352026" lon="7.902602">
        <ele>402.370472</ele>
        <time>2021-11-22T10:35:28.810Z</time>
      </trkpt>
      <trkpt lat="47.352026" lon="7.902602">
        <ele>402.370472</ele>
        <time>2021-11-22T10:35:28.861Z</time>
      </trkpt>
      <trkpt lat="47.352007" lon="7.902413">
        <ele>402.472164</ele>
        <time>2021-11-22T10:35:31.168Z</time>
      </trkpt>
      <trkpt lat="47.351989" lon="7.901552">
        <ele>402.930631</ele>
        <time>2021-11-22T10:35:41.870Z</time>
      </trkpt>
      <trkpt lat="47.351997" lon="7.901326">
        <ele>403.051079</ele>
        <time>2021-11-22T10:35:45.004Z</time>
      </trkpt>
      <trkpt lat="47.352016" lon="7.901126">
        <ele>403.158566</ele>
        <time>2021-11-22T10:35:46.915Z</time>
      </trkpt>
      <trkpt lat="47.352196" lon="7.900205">
        <ele>403.668735</ele>
        <time>2021-11-22T10:35:58.229Z</time>
      </trkpt>
      <trkpt lat="47.352196" lon="7.900094">
        <ele>403.721670</ele>
        <time>2021-11-22T10:35:59.530Z</time>
      </trkpt>
      <trkpt lat="47.352186" lon="7.900007">
        <ele>403.728185</ele>
        <time>2021-11-22T10:36:00.422Z</time>
      </trkpt>
      <trkpt lat="47.352163" lon="7.899927">
        <ele>403.734601</ele>
        <time>2021-11-22T10:36:01.456Z</time>
      </trkpt>
      <trkpt lat="47.352159" lon="7.899913">
        <ele>403.735723</ele>
        <time>2021-11-22T10:36:01.715Z</time>
      </trkpt>
      <trkpt lat="47.351852" lon="7.898825">
        <ele>403.822740</ele>
        <time>2021-11-22T10:36:14.652Z</time>
      </trkpt>
      <trkpt lat="47.351805" lon="7.898660">
        <ele>403.835955</ele>
        <time>2021-11-22T10:36:16.392Z</time>
      </trkpt>
      <trkpt lat="47.351528" lon="7.897718">
        <ele>403.911774</ele>
        <time>2021-11-22T10:36:26.192Z</time>
      </trkpt>
      <trkpt lat="47.351509" lon="7.897653">
        <ele>403.917650</ele>
        <time>2021-11-22T10:36:26.763Z</time>
      </trkpt>
      <trkpt lat="47.351461" lon="7.897490">
        <ele>403.958418</ele>
        <time>2021-11-22T10:36:28.413Z</time>
      </trkpt>
      <trkpt lat="47.351383" lon="7.896973">
        <ele>404.079914</ele>
        <time>2021-11-22T10:36:33.058Z</time>
      </trkpt>
      <trkpt lat="47.351379" lon="7.896859">
        <ele>404.106099</ele>
        <time>2021-11-22T10:36:34.261Z</time>
      </trkpt>
      <trkpt lat="47.351298" lon="7.895047">
        <ele>404.522646</ele>
        <time>2021-11-22T10:36:55.273Z</time>
      </trkpt>
      <trkpt lat="47.351287" lon="7.894898">
        <ele>404.626717</ele>
        <time>2021-11-22T10:36:57.088Z</time>
      </trkpt>
      <trkpt lat="47.351213" lon="7.893413">
        <ele>405.727254</ele>
        <time>2021-11-22T10:37:17.657Z</time>
      </trkpt>
      <trkpt lat="47.351205" lon="7.893210">
        <ele>405.877546</ele>
        <time>2021-11-22T10:37:20.049Z</time>
      </trkpt>
      <trkpt lat="47.351201" lon="7.893092">
        <ele>405.964870</ele>
        <time>2021-11-22T10:37:22.956Z</time>
      </trkpt>
      <trkpt lat="47.351197" lon="7.892966">
        <ele>406.058099</ele>
        <time>2021-11-22T10:37:24.163Z</time>
      </trkpt>
      <trkpt lat="47.351151" lon="7.892679">
        <ele>406.276078</ele>
        <time>2021-11-22T10:37:26.980Z</time>
      </trkpt>
      <trkpt lat="47.351142" lon="7.892646">
        <ele>406.302371</ele>
        <time>2021-11-22T10:37:27.278Z</time>
      </trkpt>
      <trkpt lat="47.351112" lon="7.892561">
        <ele>406.373208</ele>
        <time>2021-11-22T10:37:30.468Z</time>
      </trkpt>
      <trkpt lat="47.351032" lon="7.892402">
        <ele>406.500983</ele>
        <time>2021-11-22T10:37:31.936Z</time>
      </trkpt>
      <trkpt lat="47.350695" lon="7.891995">
        <ele>406.697509</ele>
        <time>2021-11-22T10:37:39.653Z</time>
      </trkpt>
      <trkpt lat="47.349861" lon="7.891129">
        <ele>407.157735</ele>
        <time>2021-11-22T10:37:55.648Z</time>
      </trkpt>
      <trkpt lat="47.349446" lon="7.890700">
        <ele>407.456908</ele>
        <time>2021-11-22T10:38:04.128Z</time>
      </trkpt>
      <trkpt lat="47.349176" lon="7.890420">
        <ele>407.726848</ele>
        <time>2021-11-22T10:38:09.870Z</time>
      </trkpt>
      <trkpt lat="47.349153" lon="7.890391">
        <ele>407.751594</ele>
        <time>2021-11-22T10:38:10.297Z</time>
      </trkpt>
      <trkpt lat="47.348986" lon="7.890226">
        <ele>407.915990</ele>
        <time>2021-11-22T10:38:14.189Z</time>
      </trkpt>
      <trkpt lat="47.348913" lon="7.890121">
        <ele>407.999374</ele>
        <time>2021-11-22T10:38:16.458Z</time>
      </trkpt>
      <trkpt lat="47.348824" lon="7.889993">
        <ele>408.101029</ele>
        <time>2021-11-22T10:38:18.086Z</time>
      </trkpt>
      <trkpt lat="47.348688" lon="7.889741">
        <ele>408.279594</ele>
        <time>2021-11-22T10:38:23.315Z</time>
      </trkpt>
      <trkpt lat="47.348233" lon="7.888796">
        <ele>408.853104</ele>
        <time>2021-11-22T10:38:36.992Z</time>
      </trkpt>
      <trkpt lat="47.348057" lon="7.888436">
        <ele>408.986762</ele>
        <time>2021-11-22T10:38:42.807Z</time>
      </trkpt>
      <trkpt lat="47.348008" lon="7.888341">
        <ele>409.022709</ele>
        <time>2021-11-22T10:38:43.711Z</time>
      </trkpt>
      <trkpt lat="47.347839" lon="7.887996">
        <ele>409.150885</ele>
        <time>2021-11-22T10:38:49.693Z</time>
      </trkpt>
      <trkpt lat="47.347807" lon="7.887919">
        <ele>409.178082</ele>
        <time>2021-11-22T10:38:50.376Z</time>
      </trkpt>
      <trkpt lat="47.347757" lon="7.887812">
        <ele>409.217216</ele>
        <time>2021-11-22T10:38:51.623Z</time>
      </trkpt>
      <trkpt lat="47.347470" lon="7.887277">
        <ele>409.422669</ele>
        <time>2021-11-22T10:38:58.385Z</time>
      </trkpt>
      <trkpt lat="47.347422" lon="7.887185">
        <ele>409.457629</ele>
        <time>2021-11-22T10:38:59.752Z</time>
      </trkpt>
      <trkpt lat="47.347240" lon="7.886779">
        <ele>409.584001</ele>
        <time>2021-11-22T10:39:05.266Z</time>
      </trkpt>
      <trkpt lat="47.347110" lon="7.886435">
        <ele>409.632019</ele>
        <time>2021-11-22T10:39:09.629Z</time>
      </trkpt>
      <trkpt lat="47.346969" lon="7.885877">
        <ele>409.704620</ele>
        <time>2021-11-22T10:39:16.276Z</time>
      </trkpt>
      <trkpt lat="47.346802" lon="7.885061">
        <ele>409.808537</ele>
        <time>2021-11-22T10:39:25.361Z</time>
      </trkpt>
      <trkpt lat="47.346757" lon="7.884878">
        <ele>409.832270</ele>
        <time>2021-11-22T10:39:27.193Z</time>
      </trkpt>
      <trkpt lat="47.346510" lon="7.884054">
        <ele>409.831563</ele>
        <time>2021-11-22T10:39:36.238Z</time>
      </trkpt>
      <trkpt lat="47.346468" lon="7.883931">
        <ele>409.809873</ele>
        <time>2021-11-22T10:39:37.555Z</time>
      </trkpt>
      <trkpt lat="47.346207" lon="7.883299">
        <ele>409.693320</ele>
        <time>2021-11-22T10:39:44.773Z</time>
      </trkpt>
      <trkpt lat="47.345948" lon="7.882741">
        <ele>409.586807</ele>
        <time>2021-11-22T10:39:51.062Z</time>
      </trkpt>
      <trkpt lat="47.345731" lon="7.882249">
        <ele>409.494360</ele>
        <time>2021-11-22T10:39:56.372Z</time>
      </trkpt>
      <trkpt lat="47.345382" lon="7.881375">
        <ele>409.426410</ele>
        <time>2021-11-22T10:40:05.451Z</time>
      </trkpt>
      <trkpt lat="47.344887" lon="7.879763">
        <ele>409.335910</ele>
        <time>2021-11-22T10:40:23.742Z</time>
      </trkpt>
      <trkpt lat="47.344808" lon="7.879456">
        <ele>409.507333</ele>
        <time>2021-11-22T10:40:26.969Z</time>
      </trkpt>
      <trkpt lat="47.344777" lon="7.879329">
        <ele>409.577799</ele>
        <time>2021-11-22T10:40:28.508Z</time>
      </trkpt>
      <trkpt lat="47.344612" lon="7.878522">
        <ele>410.017819</ele>
        <time>2021-11-22T10:40:38.230Z</time>
      </trkpt>
      <trkpt lat="47.344591" lon="7.878404">
        <ele>410.081505</ele>
        <time>2021-11-22T10:40:39.552Z</time>
      </trkpt>
      <trkpt lat="47.344538" lon="7.878091">
        <ele>410.249918</ele>
        <time>2021-11-22T10:40:43.671Z</time>
      </trkpt>
      <trkpt lat="47.344476" lon="7.877643">
        <ele>410.488607</ele>
        <time>2021-11-22T10:40:49.521Z</time>
      </trkpt>
      <trkpt lat="47.344429" lon="7.877219">
        <ele>410.712881</ele>
        <time>2021-11-22T10:40:55.175Z</time>
      </trkpt>
      <trkpt lat="47.344421" lon="7.877117">
        <ele>410.818815</ele>
        <time>2021-11-22T10:40:56.577Z</time>
      </trkpt>
      <trkpt lat="47.344407" lon="7.876955">
        <ele>410.991058</ele>
        <time>2021-11-22T10:40:59.439Z</time>
      </trkpt>
      <trkpt lat="47.344383" lon="7.876551">
        <ele>411.418786</ele>
        <time>2021-11-22T10:41:05.390Z</time>
      </trkpt>
      <trkpt lat="47.344367" lon="7.876062">
        <ele>411.935129</ele>
        <time>2021-11-22T10:41:12.915Z</time>
      </trkpt>
      <trkpt lat="47.344362" lon="7.875838">
        <ele>412.171508</ele>
        <time>2021-11-22T10:41:16.915Z</time>
      </trkpt>
      <trkpt lat="47.344358" lon="7.875415">
        <ele>412.617684</ele>
        <time>2021-11-22T10:41:22.786Z</time>
      </trkpt>
      <trkpt lat="47.344330" lon="7.874895">
        <ele>413.167851</ele>
        <time>2021-11-22T10:41:30.067Z</time>
      </trkpt>
      <trkpt lat="47.344324" lon="7.874843">
        <ele>413.223484</ele>
        <time>2021-11-22T10:41:31.142Z</time>
      </trkpt>
      <trkpt lat="47.344314" lon="7.874774">
        <ele>413.297903</ele>
        <time>2021-11-22T10:41:32.125Z</time>
      </trkpt>
      <trkpt lat="47.344298" lon="7.874648">
        <ele>413.433108</ele>
        <time>2021-11-22T10:41:33.852Z</time>
      </trkpt>
      <trkpt lat="47.344184" lon="7.873960">
        <ele>413.690758</ele>
        <time>2021-11-22T10:41:41.770Z</time>
      </trkpt>
      <trkpt lat="47.344153" lon="7.873821">
        <ele>413.731571</ele>
        <time>2021-11-22T10:41:43.961Z</time>
      </trkpt>
      <trkpt lat="47.344085" lon="7.873557">
        <ele>413.810341</ele>
        <time>2021-11-22T10:41:46.875Z</time>
      </trkpt>
      <trkpt lat="47.344049" lon="7.873443">
        <ele>413.845419</ele>
        <time>2021-11-22T10:41:47.899Z</time>
      </trkpt>
      <trkpt lat="47.343857" lon="7.872943">
        <ele>414.005706</ele>
        <time>2021-11-22T10:41:54.234Z</time>
      </trkpt>
      <trkpt lat="47.343582" lon="7.872499">
        <ele>414.173476</ele>
        <time>2021-11-22T10:42:01.011Z</time>
      </trkpt>
      <trkpt lat="47.343433" lon="7.872283">
        <ele>414.265343</ele>
        <time>2021-11-22T10:42:03.853Z</time>
      </trkpt>
      <trkpt lat="47.343378" lon="7.872187">
        <ele>414.348700</ele>
        <time>2021-11-22T10:42:05.205Z</time>
      </trkpt>
      <trkpt lat="47.343185" lon="7.871551">
        <ele>414.810765</ele>
        <time>2021-11-22T10:42:12.265Z</time>
      </trkpt>
      <trkpt lat="47.343157" lon="7.871413">
        <ele>414.906281</ele>
        <time>2021-11-22T10:42:13.727Z</time>
      </trkpt>
      <trkpt lat="47.343101" lon="7.871151">
        <ele>415.088442</ele>
        <time>2021-11-22T10:42:17.426Z</time>
      </trkpt>
      <trkpt lat="47.342808" lon="7.869978">
        <ele>415.917380</ele>
        <time>2021-11-22T10:42:34.714Z</time>
      </trkpt>
      <trkpt lat="47.342775" lon="7.869865">
        <ele>415.998969</ele>
        <time>2021-11-22T10:42:36.380Z</time>
      </trkpt>
      <trkpt lat="47.342747" lon="7.869739">
        <ele>416.116811</ele>
        <time>2021-11-22T10:42:38.668Z</time>
      </trkpt>
      <trkpt lat="47.342725" lon="7.869601">
        <ele>416.250040</ele>
        <time>2021-11-22T10:42:41.150Z</time>
      </trkpt>
      <trkpt lat="47.342722" lon="7.869510">
        <ele>416.335661</ele>
        <time>2021-11-22T10:42:42.467Z</time>
      </trkpt>
      <trkpt lat="47.342724" lon="7.869422">
        <ele>416.418407</ele>
        <time>2021-11-22T10:42:43.731Z</time>
      </trkpt>
      <trkpt lat="47.342746" lon="7.869202">
        <ele>416.627396</ele>
        <time>2021-11-22T10:42:47.333Z</time>
      </trkpt>
      <trkpt lat="47.342840" lon="7.868637">
        <ele>417.174136</ele>
        <time>2021-11-22T10:42:55.743Z</time>
      </trkpt>
      <trkpt lat="47.342882" lon="7.868466">
        <ele>417.345067</ele>
        <time>2021-11-22T10:42:58.418Z</time>
      </trkpt>
      <trkpt lat="47.342924" lon="7.868257">
        <ele>417.549934</ele>
        <time>2021-11-22T10:43:01.045Z</time>
      </trkpt>
      <trkpt lat="47.342936" lon="7.868112">
        <ele>417.687213</ele>
        <time>2021-11-22T10:43:03.044Z</time>
      </trkpt>
      <trkpt lat="47.342932" lon="7.868019">
        <ele>417.774787</ele>
        <time>2021-11-22T10:43:04.275Z</time>
      </trkpt>
      <trkpt lat="47.342772" lon="7.867360">
        <ele>418.432649</ele>
        <time>2021-11-22T10:43:12.972Z</time>
      </trkpt>
      <trkpt lat="47.342730" lon="7.867199">
        <ele>418.535200</ele>
        <time>2021-11-22T10:43:14.867Z</time>
      </trkpt>
      <trkpt lat="47.342548" lon="7.866516">
        <ele>418.741835</ele>
        <time>2021-11-22T10:43:25.275Z</time>
      </trkpt>
      <trkpt lat="47.342490" lon="7.866232">
        <ele>418.825348</ele>
        <time>2021-11-22T10:43:28.134Z</time>
      </trkpt>
      <trkpt lat="47.342478" lon="7.866167">
        <ele>418.844316</ele>
        <time>2021-11-22T10:43:28.734Z</time>
      </trkpt>
      <trkpt lat="47.342436" lon="7.865931">
        <ele>418.913016</ele>
        <time>2021-11-22T10:43:31.961Z</time>
      </trkpt>
      <trkpt lat="47.342383" lon="7.865605">
        <ele>419.007407</ele>
        <time>2021-11-22T10:43:34.835Z</time>
      </trkpt>
      <trkpt lat="47.342301" lon="7.865156">
        <ele>419.138335</ele>
        <time>2021-11-22T10:43:39.352Z</time>
      </trkpt>
      <trkpt lat="47.342244" lon="7.864849">
        <ele>419.227958</ele>
        <time>2021-11-22T10:43:43.444Z</time>
      </trkpt>
      <trkpt lat="47.342195" lon="7.864565">
        <ele>419.343696</ele>
        <time>2021-11-22T10:43:45.835Z</time>
      </trkpt>
      <trkpt lat="47.342087" lon="7.863983">
        <ele>419.619287</ele>
        <time>2021-11-22T10:43:52.214Z</time>
      </trkpt>
      <trkpt lat="47.342011" lon="7.863595">
        <ele>419.803744</ele>
        <time>2021-11-22T10:43:56.413Z</time>
      </trkpt>
      <trkpt lat="47.341845" lon="7.862790">
        <ele>420.188043</ele>
        <time>2021-11-22T10:44:07.648Z</time>
      </trkpt>
      <trkpt lat="47.341452" lon="7.861373">
        <ele>421.881229</ele>
        <time>2021-11-22T10:44:27.397Z</time>
      </trkpt>
      <trkpt lat="47.341366" lon="7.861082">
        <ele>422.371000</ele>
        <time>2021-11-22T10:44:33.157Z</time>
      </trkpt>
      <trkpt lat="47.341010" lon="7.859843">
        <ele>424.447177</ele>
        <time>2021-11-22T10:44:57.582Z</time>
      </trkpt>
      <trkpt lat="47.340985" lon="7.859674">
        <ele>424.724345</ele>
        <time>2021-11-22T10:45:01.063Z</time>
      </trkpt>
      <trkpt lat="47.340911" lon="7.859350">
        <ele>425.288102</ele>
        <time>2021-11-22T10:45:06.934Z</time>
      </trkpt>
      <trkpt lat="47.340872" lon="7.859181">
        <ele>425.582473</ele>
        <time>2021-11-22T10:45:10.335Z</time>
      </trkpt>
      <trkpt lat="47.340887" lon="7.859132">
        <ele>425.671129</ele>
        <time>2021-11-22T10:45:11.170Z</time>
      </trkpt>
      <trkpt lat="47.340890" lon="7.859079">
        <ele>425.758823</ele>
        <time>2021-11-22T10:45:11.823Z</time>
      </trkpt>
      <trkpt lat="47.340882" lon="7.859027">
        <ele>425.846745</ele>
        <time>2021-11-22T10:45:12.642Z</time>
      </trkpt>
      <trkpt lat="47.340978" lon="7.858978">
        <ele>426.093914</ele>
        <time>2021-11-22T10:45:15.610Z</time>
      </trkpt>
      <trkpt lat="47.341194" lon="7.858765">
        <ele>426.726038</ele>
        <time>2021-11-22T10:45:21.701Z</time>
      </trkpt>
      <trkpt lat="47.341216" lon="7.858711">
        <ele>426.829929</ele>
        <time>2021-11-22T10:45:23.022Z</time>
      </trkpt>
      <trkpt lat="47.341246" lon="7.858602">
        <ele>427.023912</ele>
        <time>2021-11-22T10:45:24.866Z</time>
      </trkpt>
      <trkpt lat="47.341197" lon="7.858257">
        <ele>427.605123</ele>
        <time>2021-11-22T10:45:30.588Z</time>
      </trkpt>
      <trkpt lat="47.341134" lon="7.858111">
        <ele>427.890519</ele>
        <time>2021-11-22T10:45:33.497Z</time>
      </trkpt>
      <trkpt lat="47.341095" lon="7.858020">
        <ele>428.068055</ele>
        <time>2021-11-22T10:45:35.395Z</time>
      </trkpt>
      <trkpt lat="47.340885" lon="7.857513">
        <ele>429.009077</ele>
        <time>2021-11-22T10:45:44.780Z</time>
      </trkpt>
      <trkpt lat="47.340604" lon="7.856829">
        <ele>429.850677</ele>
        <time>2021-11-22T10:45:55.886Z</time>
      </trkpt>
      <trkpt lat="47.340564" lon="7.856728">
        <ele>429.973763</ele>
        <time>2021-11-22T10:45:57.340Z</time>
      </trkpt>
      <trkpt lat="47.340491" lon="7.856550">
        <ele>430.192676</ele>
        <time>2021-11-22T10:45:59.764Z</time>
      </trkpt>
      <trkpt lat="47.340199" lon="7.856113">
        <ele>430.838406</ele>
        <time>2021-11-22T10:46:07.349Z</time>
      </trkpt>
      <trkpt lat="47.340107" lon="7.856010">
        <ele>431.017710</ele>
        <time>2021-11-22T10:46:09.361Z</time>
      </trkpt>
      <trkpt lat="47.340031" lon="7.855909">
        <ele>431.176512</ele>
        <time>2021-11-22T10:46:11.668Z</time>
      </trkpt>
      <trkpt lat="47.339888" lon="7.855710">
        <ele>431.481699</ele>
        <time>2021-11-22T10:46:17.583Z</time>
      </trkpt>
      <trkpt lat="47.339869" lon="7.855686">
        <ele>431.520532</ele>
        <time>2021-11-22T10:46:18.356Z</time>
      </trkpt>
      <trkpt lat="47.339366" lon="7.854935">
        <ele>433.513752</ele>
        <time>2021-11-22T10:46:40.708Z</time>
      </trkpt>
      <trkpt lat="47.339278" lon="7.854786">
        <ele>433.926002</ele>
        <time>2021-11-22T10:46:44.429Z</time>
      </trkpt>
      <trkpt lat="47.339307" lon="7.854723">
        <ele>434.084856</ele>
        <time>2021-11-22T10:46:46.655Z</time>
      </trkpt>
      <trkpt lat="47.339463" lon="7.854140">
        <ele>435.392234</ele>
        <time>2021-11-22T10:47:00.532Z</time>
      </trkpt>
      <trkpt lat="47.339510" lon="7.854044">
        <ele>435.639259</ele>
        <time>2021-11-22T10:47:03.451Z</time>
      </trkpt>
      <trkpt lat="47.339552" lon="7.853957">
        <ele>435.862060</ele>
        <time>2021-11-22T10:47:05.857Z</time>
      </trkpt>
      <trkpt lat="47.339622" lon="7.853856">
        <ele>436.163391</ele>
        <time>2021-11-22T10:47:08.256Z</time>
      </trkpt>
      <trkpt lat="47.339646" lon="7.853806">
        <ele>436.291191</ele>
        <time>2021-11-22T10:47:10.128Z</time>
      </trkpt>
      <trkpt lat="47.339642" lon="7.853600">
        <ele>436.721037</ele>
        <time>2021-11-22T10:47:14.616Z</time>
      </trkpt>
      <trkpt lat="47.339613" lon="7.853269">
        <ele>437.456255</ele>
        <time>2021-11-22T10:47:20.699Z</time>
      </trkpt>
      <trkpt lat="47.339603" lon="7.853091">
        <ele>437.927456</ele>
        <time>2021-11-22T10:47:24.897Z</time>
      </trkpt>
      <trkpt lat="47.339601" lon="7.852927">
        <ele>438.360183</ele>
        <time>2021-11-22T10:47:28.367Z</time>
      </trkpt>
      <trkpt lat="47.339601" lon="7.852525">
        <ele>439.420719</ele>
        <time>2021-11-22T10:47:37.460Z</time>
      </trkpt>
      <trkpt lat="47.339542" lon="7.852225">
        <ele>440.244821</ele>
        <time>2021-11-22T10:47:43.403Z</time>
      </trkpt>
      <trkpt lat="47.339506" lon="7.852137">
        <ele>440.516002</ele>
        <time>2021-11-22T10:47:45.695Z</time>
      </trkpt>
      <trkpt lat="47.339466" lon="7.852058">
        <ele>440.776168</ele>
        <time>2021-11-22T10:47:48.204Z</time>
      </trkpt>
      <trkpt lat="47.339359" lon="7.851917">
        <ele>441.334640</ele>
        <time>2021-11-22T10:47:52.567Z</time>
      </trkpt>
      <trkpt lat="47.339273" lon="7.851839">
        <ele>441.727626</ele>
        <time>2021-11-22T10:47:55.701Z</time>
      </trkpt>
      <trkpt lat="47.339251" lon="7.851821">
        <ele>441.825557</ele>
        <time>2021-11-22T10:47:56.407Z</time>
      </trkpt>
      <trkpt lat="47.339179" lon="7.851767">
        <ele>442.139984</ele>
        <time>2021-11-22T10:47:58.976Z</time>
      </trkpt>
      <trkpt lat="47.339084" lon="7.851554">
        <ele>442.812702</ele>
        <time>2021-11-22T10:48:04.025Z</time>
      </trkpt>
      <trkpt lat="47.338996" lon="7.851269">
        <ele>443.638954</ele>
        <time>2021-11-22T10:48:10.276Z</time>
      </trkpt>
      <trkpt lat="47.338979" lon="7.851219">
        <ele>443.786535</ele>
        <time>2021-11-22T10:48:11.339Z</time>
      </trkpt>
      <trkpt lat="47.338917" lon="7.851028">
        <ele>444.333095</ele>
        <time>2021-11-22T10:48:15.814Z</time>
      </trkpt>
      <trkpt lat="47.338708" lon="7.850240">
        <ele>446.195701</ele>
        <time>2021-11-22T10:48:32.073Z</time>
      </trkpt>
      <trkpt lat="47.338658" lon="7.849999">
        <ele>446.750479</ele>
        <time>2021-11-22T10:48:37.261Z</time>
      </trkpt>
      <trkpt lat="47.338635" lon="7.849875">
        <ele>447.033459</ele>
        <time>2021-11-22T10:48:39.875Z</time>
      </trkpt>
      <trkpt lat="47.338565" lon="7.849463">
        <ele>447.968396</ele>
        <time>2021-11-22T10:48:49.856Z</time>
      </trkpt>
      <trkpt lat="47.338442" lon="7.848576">
        <ele>449.961266</ele>
        <time>2021-11-22T10:49:09.931Z</time>
      </trkpt>
      <trkpt lat="47.338170" lon="7.847526">
        <ele>451.457911</ele>
        <time>2021-11-22T10:49:31.975Z</time>
      </trkpt>
      <trkpt lat="47.337941" lon="7.846833">
        <ele>452.440297</ele>
        <time>2021-11-22T10:49:45.171Z</time>
      </trkpt>
      <trkpt lat="47.337935" lon="7.846707">
        <ele>452.601239</ele>
        <time>2021-11-22T10:49:47.950Z</time>
      </trkpt>
      <trkpt lat="47.337904" lon="7.846625">
        <ele>452.720880</ele>
        <time>2021-11-22T10:49:49.588Z</time>
      </trkpt>
      <trkpt lat="47.337830" lon="7.846501">
        <ele>452.931409</ele>
        <time>2021-11-22T10:49:52.247Z</time>
      </trkpt>
      <trkpt lat="47.337778" lon="7.846407">
        <ele>453.086020</ele>
        <time>2021-11-22T10:49:54.418Z</time>
      </trkpt>
      <trkpt lat="47.337718" lon="7.846302">
        <ele>453.261024</ele>
        <time>2021-11-22T10:49:57.239Z</time>
      </trkpt>
      <trkpt lat="47.337632" lon="7.846241">
        <ele>453.440434</ele>
        <time>2021-11-22T10:49:59.684Z</time>
      </trkpt>
      <trkpt lat="47.337573" lon="7.846253">
        <ele>453.551315</ele>
        <time>2021-11-22T10:50:01.042Z</time>
      </trkpt>
      <trkpt lat="47.337490" lon="7.846284">
        <ele>453.709158</ele>
        <time>2021-11-22T10:50:03.223Z</time>
      </trkpt>
      <trkpt lat="47.337429" lon="7.846324">
        <ele>453.832220</ele>
        <time>2021-11-22T10:50:05.391Z</time>
      </trkpt>
      <trkpt lat="47.337370" lon="7.846246">
        <ele>453.978260</ele>
        <time>2021-11-22T10:50:07.819Z</time>
      </trkpt>
      <trkpt lat="47.337232" lon="7.845997">
        <ele>454.380137</ele>
        <time>2021-11-22T10:50:13.087Z</time>
      </trkpt>
      <trkpt lat="47.337160" lon="7.845902">
        <ele>454.558200</ele>
        <time>2021-11-22T10:50:16.149Z</time>
      </trkpt>
      <trkpt lat="47.337093" lon="7.845720">
        <ele>454.816969</ele>
        <time>2021-11-22T10:50:19.560Z</time>
      </trkpt>
      <trkpt lat="47.337134" lon="7.845642">
        <ele>454.940297</ele>
        <time>2021-11-22T10:50:21.037Z</time>
      </trkpt>
      <trkpt lat="47.337146" lon="7.845589">
        <ele>455.010112</ele>
        <time>2021-11-22T10:50:21.945Z</time>
      </trkpt>
      <trkpt lat="47.337173" lon="7.845465">
        <ele>455.172833</ele>
        <time>2021-11-22T10:50:24.713Z</time>
      </trkpt>
      <trkpt lat="47.337306" lon="7.844941">
        <ele>455.871911</ele>
        <time>2021-11-22T10:50:34.138Z</time>
      </trkpt>
      <trkpt lat="47.337324" lon="7.844567">
        <ele>456.340349</ele>
        <time>2021-11-22T10:50:40.313Z</time>
      </trkpt>
      <trkpt lat="47.337317" lon="7.844438">
        <ele>456.502033</ele>
        <time>2021-11-22T10:50:43.006Z</time>
      </trkpt>
      <trkpt lat="47.337406" lon="7.844334">
        <ele>456.711329</ele>
        <time>2021-11-22T10:50:45.881Z</time>
      </trkpt>
      <trkpt lat="47.337437" lon="7.844290">
        <ele>456.790626</ele>
        <time>2021-11-22T10:50:47.017Z</time>
      </trkpt>
      <trkpt lat="47.337510" lon="7.844188">
        <ele>457.271988</ele>
        <time>2021-11-22T10:50:49.976Z</time>
      </trkpt>
      <trkpt lat="47.337631" lon="7.844026">
        <ele>458.116557</ele>
        <time>2021-11-22T10:50:55.009Z</time>
      </trkpt>
      <trkpt lat="47.337673" lon="7.843956">
        <ele>458.444077</ele>
        <time>2021-11-22T10:50:56.778Z</time>
      </trkpt>
      <trkpt lat="47.337877" lon="7.843614">
        <ele>460.040137</ele>
        <time>2021-11-22T10:51:06.413Z</time>
      </trkpt>
      <trkpt lat="47.337900" lon="7.843503">
        <ele>460.446752</ele>
        <time>2021-11-22T10:51:08.655Z</time>
      </trkpt>
      <trkpt lat="47.337907" lon="7.843369">
        <ele>460.917560</ele>
        <time>2021-11-22T10:51:11.276Z</time>
      </trkpt>
      <trkpt lat="47.337893" lon="7.843241">
        <ele>461.371760</ele>
        <time>2021-11-22T10:51:13.950Z</time>
      </trkpt>
      <trkpt lat="47.337887" lon="7.843180">
        <ele>461.587688</ele>
        <time>2021-11-22T10:51:15.593Z</time>
      </trkpt>
      <trkpt lat="47.337883" lon="7.843156">
        <ele>461.674268</ele>
        <time>2021-11-22T10:51:16.601Z</time>
      </trkpt>
      <trkpt lat="47.337879" lon="7.843125">
        <ele>461.784815</ele>
        <time>2021-11-22T10:51:17.386Z</time>
      </trkpt>
      <trkpt lat="47.337801" lon="7.842585">
        <ele>463.718986</ele>
        <time>2021-11-22T10:51:32.018Z</time>
      </trkpt>
      <trkpt lat="47.337752" lon="7.842239">
        <ele>464.957246</ele>
        <time>2021-11-22T10:51:41.487Z</time>
      </trkpt>
      <trkpt lat="47.337663" lon="7.841555">
        <ele>468.271892</ele>
        <time>2021-11-22T10:52:03.477Z</time>
      </trkpt>
      <trkpt lat="47.337655" lon="7.841149">
        <ele>470.661452</ele>
        <time>2021-11-22T10:52:15.207Z</time>
      </trkpt>
      <trkpt lat="47.337652" lon="7.840972">
        <ele>471.703092</ele>
        <time>2021-11-22T10:52:23.570Z</time>
      </trkpt>
      <trkpt lat="47.337653" lon="7.840888">
        <ele>472.197351</ele>
        <time>2021-11-22T10:52:26.321Z</time>
      </trkpt>
      <trkpt lat="47.337661" lon="7.840801">
        <ele>472.713874</ele>
        <time>2021-11-22T10:52:29.178Z</time>
      </trkpt>
      <trkpt lat="47.337681" lon="7.840594">
        <ele>473.943997</ele>
        <time>2021-11-22T10:52:35.513Z</time>
      </trkpt>
      <trkpt lat="47.337679" lon="7.840593">
        <ele>473.962329</ele>
        <time>2021-11-22T10:52:35.757Z</time>
      </trkpt>
      <trkpt lat="47.337735" lon="7.840206">
        <ele>476.290424</ele>
        <time>2021-11-22T10:52:50.034Z</time>
      </trkpt>
      <trkpt lat="47.337809" lon="7.839635">
        <ele>479.710560</ele>
        <time>2021-11-22T10:53:08.642Z</time>
      </trkpt>
      <trkpt lat="47.337827" lon="7.839499">
        <ele>480.525780</ele>
        <time>2021-11-22T10:53:14.408Z</time>
      </trkpt>
      <trkpt lat="47.337830" lon="7.839424">
        <ele>480.967781</ele>
        <time>2021-11-22T10:53:17.579Z</time>
      </trkpt>
      <trkpt lat="47.337818" lon="7.839076">
        <ele>483.018326</ele>
        <time>2021-11-22T10:53:29.235Z</time>
      </trkpt>
      <trkpt lat="47.337798" lon="7.838939">
        <ele>483.843167</ele>
        <time>2021-11-22T10:53:35.726Z</time>
      </trkpt>
      <trkpt lat="47.337736" lon="7.838665">
        <ele>485.543380</ele>
        <time>2021-11-22T10:53:45.093Z</time>
      </trkpt>
      <trkpt lat="47.337473" lon="7.837404">
        <ele>493.308846</ele>
        <time>2021-11-22T10:54:28.620Z</time>
      </trkpt>
      <trkpt lat="47.337519" lon="7.837172">
        <ele>494.731587</ele>
        <time>2021-11-22T10:54:35.244Z</time>
      </trkpt>
      <trkpt lat="47.337558" lon="7.837132">
        <ele>495.144091</ele>
        <time>2021-11-22T10:54:38.380Z</time>
      </trkpt>
      <trkpt lat="47.337612" lon="7.837111">
        <ele>495.629103</ele>
        <time>2021-11-22T10:54:41.369Z</time>
      </trkpt>
      <trkpt lat="47.337707" lon="7.837162">
        <ele>496.507101</ele>
        <time>2021-11-22T10:54:47.103Z</time>
      </trkpt>
      <trkpt lat="47.337913" lon="7.837561">
        <ele>499.708472</ele>
        <time>2021-11-22T10:55:04.009Z</time>
      </trkpt>
      <trkpt lat="47.338135" lon="7.837793">
        <ele>502.349549</ele>
        <time>2021-11-22T10:55:15.697Z</time>
      </trkpt>
      <trkpt lat="47.338309" lon="7.837925">
        <ele>504.249018</ele>
        <time>2021-11-22T10:55:24.395Z</time>
      </trkpt>
      <trkpt lat="47.338823" lon="7.838289">
        <ele>509.784162</ele>
        <time>2021-11-22T10:55:57.534Z</time>
      </trkpt>
      <trkpt lat="47.338847" lon="7.838306">
        <ele>510.042623</ele>
        <time>2021-11-22T10:56:00.179Z</time>
      </trkpt>
      <trkpt lat="47.339649" lon="7.838833">
        <ele>519.171100</ele>
        <time>2021-11-22T10:56:48.511Z</time>
      </trkpt>
      <trkpt lat="47.339758" lon="7.838858">
        <ele>520.414484</ele>
        <time>2021-11-22T10:56:56.796Z</time>
      </trkpt>
      <trkpt lat="47.339758" lon="7.838858">
        <ele>520.414484</ele>
        <time>2021-11-22T10:56:57.044Z</time>
      </trkpt>
      <trkpt lat="47.339914" lon="7.838880">
        <ele>522.180905</ele>
        <time>2021-11-22T10:57:07.200Z</time>
      </trkpt>
      <trkpt lat="47.340351" lon="7.838828">
        <ele>527.122694</ele>
        <time>2021-11-22T10:57:30.798Z</time>
      </trkpt>
      <trkpt lat="47.340418" lon="7.838794">
        <ele>527.921314</ele>
        <time>2021-11-22T10:57:35.652Z</time>
      </trkpt>
      <trkpt lat="47.340450" lon="7.838777">
        <ele>528.304675</ele>
        <time>2021-11-22T10:57:38.480Z</time>
      </trkpt>
      <trkpt lat="47.340796" lon="7.838524">
        <ele>532.657254</ele>
        <time>2021-11-22T10:58:03.251Z</time>
      </trkpt>
      <trkpt lat="47.340847" lon="7.838470">
        <ele>533.364782</ele>
        <time>2021-11-22T10:58:08.406Z</time>
      </trkpt>
      <trkpt lat="47.340886" lon="7.838420">
        <ele>533.947110</ele>
        <time>2021-11-22T10:58:11.261Z</time>
      </trkpt>
      <trkpt lat="47.340996" lon="7.838283">
        <ele>535.457105</ele>
        <time>2021-11-22T10:58:16.719Z</time>
      </trkpt>
      <trkpt lat="47.341068" lon="7.838186">
        <ele>536.302421</ele>
        <time>2021-11-22T10:58:25.089Z</time>
      </trkpt>
      <trkpt lat="47.341102" lon="7.838135">
        <ele>536.722780</ele>
        <time>2021-11-22T10:58:29.452Z</time>
      </trkpt>
      <trkpt lat="47.341508" lon="7.837426">
        <ele>542.176777</ele>
        <time>2021-11-22T10:59:00.523Z</time>
      </trkpt>
      <trkpt lat="47.341536" lon="7.837315">
        <ele>542.872681</ele>
        <time>2021-11-22T10:59:06.419Z</time>
      </trkpt>
      <trkpt lat="47.341543" lon="7.837141">
        <ele>543.896820</ele>
        <time>2021-11-22T10:59:12.288Z</time>
      </trkpt>
      <trkpt lat="47.341482" lon="7.836789">
        <ele>546.031560</ele>
        <time>2021-11-22T10:59:22.690Z</time>
      </trkpt>
      <trkpt lat="47.340739" lon="7.834302">
        <ele>559.067801</ele>
        <time>2021-11-22T11:00:36.527Z</time>
      </trkpt>
      <trkpt lat="47.340694" lon="7.834086">
        <ele>560.051595</ele>
        <time>2021-11-22T11:00:42.083Z</time>
      </trkpt>
      <trkpt lat="47.340661" lon="7.833894">
        <ele>560.913936</ele>
        <time>2021-11-22T11:00:47.954Z</time>
      </trkpt>
      <trkpt lat="47.340662" lon="7.833559">
        <ele>562.415864</ele>
        <time>2021-11-22T11:00:56.621Z</time>
      </trkpt>
      <trkpt lat="47.340704" lon="7.833385">
        <ele>563.471207</ele>
        <time>2021-11-22T11:01:02.408Z</time>
      </trkpt>
      <trkpt lat="47.340896" lon="7.833095">
        <ele>565.787687</ele>
        <time>2021-11-22T11:01:13.870Z</time>
      </trkpt>
      <trkpt lat="47.341164" lon="7.832933">
        <ele>568.229561</ele>
        <time>2021-11-22T11:01:27.433Z</time>
      </trkpt>
      <trkpt lat="47.341472" lon="7.832843">
        <ele>570.876896</ele>
        <time>2021-11-22T11:01:43.429Z</time>
      </trkpt>
      <trkpt lat="47.341872" lon="7.832955">
        <ele>574.309683</ele>
        <time>2021-11-22T11:02:05.270Z</time>
      </trkpt>
      <trkpt lat="47.342013" lon="7.832923">
        <ele>575.512507</ele>
        <time>2021-11-22T11:02:12.557Z</time>
      </trkpt>
      <trkpt lat="47.342196" lon="7.832742">
        <ele>577.369971</ele>
        <time>2021-11-22T11:02:23.686Z</time>
      </trkpt>
      <trkpt lat="47.342348" lon="7.832471">
        <ele>579.671972</ele>
        <time>2021-11-22T11:02:35.866Z</time>
      </trkpt>
      <trkpt lat="47.342500" lon="7.832197">
        <ele>581.993358</ele>
        <time>2021-11-22T11:02:49.770Z</time>
      </trkpt>
      <trkpt lat="47.342728" lon="7.831854">
        <ele>585.143186</ele>
        <time>2021-11-22T11:03:07.342Z</time>
      </trkpt>
      <trkpt lat="47.342932" lon="7.831603">
        <ele>587.712719</ele>
        <time>2021-11-22T11:03:21.701Z</time>
      </trkpt>
      <trkpt lat="47.343089" lon="7.831399">
        <ele>589.736439</ele>
        <time>2021-11-22T11:03:32.734Z</time>
      </trkpt>
      <trkpt lat="47.343234" lon="7.831211">
        <ele>591.603714</ele>
        <time>2021-11-22T11:03:43.821Z</time>
      </trkpt>
      <trkpt lat="47.343432" lon="7.830961">
        <ele>594.124659</ele>
        <time>2021-11-22T11:03:58.605Z</time>
      </trkpt>
      <trkpt lat="47.343511" lon="7.830820">
        <ele>595.244571</ele>
        <time>2021-11-22T11:04:04.336Z</time>
      </trkpt>
      <trkpt lat="47.343537" lon="7.830746">
        <ele>595.708249</ele>
        <time>2021-11-22T11:04:08.041Z</time>
      </trkpt>
      <trkpt lat="47.343551" lon="7.830694">
        <ele>596.019500</ele>
        <time>2021-11-22T11:04:09.998Z</time>
      </trkpt>
      <trkpt lat="47.343565" lon="7.830623">
        <ele>596.430826</ele>
        <time>2021-11-22T11:04:11.850Z</time>
      </trkpt>
      <trkpt lat="47.343574" lon="7.830553">
        <ele>596.827155</ele>
        <time>2021-11-22T11:04:14.692Z</time>
      </trkpt>
      <trkpt lat="47.343609" lon="7.830032">
        <ele>599.739470</ele>
        <time>2021-11-22T11:04:31.625Z</time>
      </trkpt>
      <trkpt lat="47.343636" lon="7.829556">
        <ele>602.396520</ele>
        <time>2021-11-22T11:04:46.787Z</time>
      </trkpt>
      <trkpt lat="47.343646" lon="7.829499">
        <ele>602.724042</ele>
        <time>2021-11-22T11:04:49.441Z</time>
      </trkpt>
      <trkpt lat="47.343689" lon="7.829402">
        <ele>603.368823</ele>
        <time>2021-11-22T11:04:54.313Z</time>
      </trkpt>
      <trkpt lat="47.344182" lon="7.828761">
        <ele>608.762610</ele>
        <time>2021-11-22T11:05:23.817Z</time>
      </trkpt>
      <trkpt lat="47.344311" lon="7.828371">
        <ele>610.941244</ele>
        <time>2021-11-22T11:05:34.194Z</time>
      </trkpt>
      <trkpt lat="47.344375" lon="7.828177">
        <ele>611.966162</ele>
        <time>2021-11-22T11:05:41.882Z</time>
      </trkpt>
      <trkpt lat="47.344594" lon="7.827628">
        <ele>614.992263</ele>
        <time>2021-11-22T11:05:58.679Z</time>
      </trkpt>
      <trkpt lat="47.344972" lon="7.826631">
        <ele>620.418936</ele>
        <time>2021-11-22T11:06:30.463Z</time>
      </trkpt>
      <trkpt lat="47.345010" lon="7.826147">
        <ele>623.082685</ele>
        <time>2021-11-22T11:06:46.377Z</time>
      </trkpt>
      <trkpt lat="47.344933" lon="7.825532">
        <ele>627.907991</ele>
        <time>2021-11-22T11:07:06.898Z</time>
      </trkpt>
      <trkpt lat="47.344683" lon="7.824857">
        <ele>633.843139</ele>
        <time>2021-11-22T11:07:36.360Z</time>
      </trkpt>
      <trkpt lat="47.344588" lon="7.824376">
        <ele>637.708718</ele>
        <time>2021-11-22T11:07:58.584Z</time>
      </trkpt>
      <trkpt lat="47.344576" lon="7.823827">
        <ele>641.946715</ele>
        <time>2021-11-22T11:08:25.736Z</time>
      </trkpt>
      <trkpt lat="47.344668" lon="7.822494">
        <ele>655.837102</ele>
        <time>2021-11-22T11:09:37.913Z</time>
      </trkpt>
      <trkpt lat="47.344659" lon="7.822343">
        <ele>657.438051</ele>
        <time>2021-11-22T11:09:46.217Z</time>
      </trkpt>
      <trkpt lat="47.344520" lon="7.821905">
        <ele>662.546241</ele>
        <time>2021-11-22T11:10:12.752Z</time>
      </trkpt>
      <trkpt lat="47.344471" lon="7.820925">
        <ele>672.514324</ele>
        <time>2021-11-22T11:11:03.703Z</time>
      </trkpt>
      <trkpt lat="47.344530" lon="7.820567">
        <ele>675.691096</ele>
        <time>2021-11-22T11:11:21.108Z</time>
      </trkpt>
      <trkpt lat="47.344414" lon="7.819740">
        <ele>682.972916</ele>
        <time>2021-11-22T11:12:01.039Z</time>
      </trkpt>
      <trkpt lat="47.344433" lon="7.819174">
        <ele>687.859127</ele>
        <time>2021-11-22T11:12:25.332Z</time>
      </trkpt>
      <trkpt lat="47.344346" lon="7.818231">
        <ele>695.236093</ele>
        <time>2021-11-22T11:13:01.990Z</time>
      </trkpt>
      <trkpt lat="47.344324" lon="7.818141">
        <ele>695.786174</ele>
        <time>2021-11-22T11:13:05.352Z</time>
      </trkpt>
      <trkpt lat="47.344303" lon="7.818078">
        <ele>696.189838</ele>
        <time>2021-11-22T11:13:07.525Z</time>
      </trkpt>
      <trkpt lat="47.344273" lon="7.818012">
        <ele>696.646764</ele>
        <time>2021-11-22T11:13:09.963Z</time>
      </trkpt>
      <trkpt lat="47.344203" lon="7.817903">
        <ele>697.510187</ele>
        <time>2021-11-22T11:13:16.815Z</time>
      </trkpt>
      <trkpt lat="47.343873" lon="7.817395">
        <ele>701.556240</ele>
        <time>2021-11-22T11:13:39.843Z</time>
      </trkpt>
      <trkpt lat="47.343897" lon="7.816527">
        <ele>706.550853</ele>
        <time>2021-11-22T11:14:08.087Z</time>
      </trkpt>
      <trkpt lat="47.343818" lon="7.815263">
        <ele>711.709086</ele>
        <time>2021-11-22T11:14:42.304Z</time>
      </trkpt>
      <trkpt lat="47.343636" lon="7.814350">
        <ele>714.843799</ele>
        <time>2021-11-22T11:15:03.604Z</time>
      </trkpt>
      <trkpt lat="47.343591" lon="7.813348">
        <ele>717.929148</ele>
        <time>2021-11-22T11:15:23.481Z</time>
      </trkpt>
      <trkpt lat="47.343623" lon="7.813055">
        <ele>718.525027</ele>
        <time>2021-11-22T11:15:28.606Z</time>
      </trkpt>
      <trkpt lat="47.343645" lon="7.812967">
        <ele>718.713356</ele>
        <time>2021-11-22T11:15:30.598Z</time>
      </trkpt>
      <trkpt lat="47.343735" lon="7.812609">
        <ele>719.480024</ele>
        <time>2021-11-22T11:15:36.929Z</time>
      </trkpt>
      <trkpt lat="47.343783" lon="7.812357">
        <ele>720.005600</ele>
        <time>2021-11-22T11:15:41.639Z</time>
      </trkpt>
      <trkpt lat="47.343858" lon="7.810961">
        <ele>722.817280</ele>
        <time>2021-11-22T11:16:06.389Z</time>
      </trkpt>
      <trkpt lat="47.343543" lon="7.809210">
        <ele>725.853646</ele>
        <time>2021-11-22T11:16:38.854Z</time>
      </trkpt>
      <trkpt lat="47.343491" lon="7.808920">
        <ele>726.353772</ele>
        <time>2021-11-22T11:16:44.421Z</time>
      </trkpt>
      <trkpt lat="47.343477" lon="7.808674">
        <ele>726.765343</ele>
        <time>2021-11-22T11:16:48.296Z</time>
      </trkpt>
      <trkpt lat="47.343282" lon="7.804807">
        <ele>729.194598</ele>
        <time>2021-11-22T11:17:37.110Z</time>
      </trkpt>
      <trkpt lat="47.343276" lon="7.804626">
        <ele>729.196510</ele>
        <time>2021-11-22T11:17:38.685Z</time>
      </trkpt>
      <trkpt lat="47.343200" lon="7.804075">
        <ele>729.202444</ele>
        <time>2021-11-22T11:17:43.285Z</time>
      </trkpt>
      <trkpt lat="47.342753" lon="7.802308">
        <ele>731.323435</ele>
        <time>2021-11-22T11:18:00.954Z</time>
      </trkpt>
      <trkpt lat="47.342555" lon="7.801719">
        <ele>732.945013</ele>
        <time>2021-11-22T11:18:14.485Z</time>
      </trkpt>
      <trkpt lat="47.342350" lon="7.801273">
        <ele>734.274164</ele>
        <time>2021-11-22T11:18:27.164Z</time>
      </trkpt>
      <trkpt lat="47.342304" lon="7.801173">
        <ele>734.572254</ele>
        <time>2021-11-22T11:18:30.814Z</time>
      </trkpt>
      <trkpt lat="47.342120" lon="7.800763">
        <ele>735.833282</ele>
        <time>2021-11-22T11:18:43.504Z</time>
      </trkpt>
      <trkpt lat="47.342040" lon="7.800542">
        <ele>737.627631</ele>
        <time>2021-11-22T11:18:49.844Z</time>
      </trkpt>
      <trkpt lat="47.341933" lon="7.800266">
        <ele>739.904808</ele>
        <time>2021-11-22T11:19:01.913Z</time>
      </trkpt>
      <trkpt lat="47.341295" lon="7.798559">
        <ele>753.865677</ele>
        <time>2021-11-22T11:20:24.027Z</time>
      </trkpt>
      <trkpt lat="47.341233" lon="7.798428">
        <ele>754.992649</ele>
        <time>2021-11-22T11:20:31.888Z</time>
      </trkpt>
      <trkpt lat="47.341139" lon="7.798248">
        <ele>756.503032</ele>
        <time>2021-11-22T11:20:42.058Z</time>
      </trkpt>
      <trkpt lat="47.340877" lon="7.797698">
        <ele>760.971391</ele>
        <time>2021-11-22T11:21:06.908Z</time>
      </trkpt>
      <trkpt lat="47.340795" lon="7.797342">
        <ele>763.470457</ele>
        <time>2021-11-22T11:21:22.590Z</time>
      </trkpt>
      <trkpt lat="47.340600" lon="7.796294">
        <ele>770.693691</ele>
        <time>2021-11-22T11:22:02.849Z</time>
      </trkpt>
      <trkpt lat="47.340422" lon="7.795302">
        <ele>774.555746</ele>
        <time>2021-11-22T11:22:29.080Z</time>
      </trkpt>
      <trkpt lat="47.339979" lon="7.793658">
        <ele>779.498911</ele>
        <time>2021-11-22T11:23:03.750Z</time>
      </trkpt>
      <trkpt lat="47.339343" lon="7.788972">
        <ele>781.210997</ele>
        <time>2021-11-22T11:24:00.379Z</time>
      </trkpt>
      <trkpt lat="47.339330" lon="7.788877">
        <ele>781.193388</ele>
        <time>2021-11-22T11:24:01.686Z</time>
      </trkpt>
      <trkpt lat="47.339295" lon="7.788663">
        <ele>781.153390</ele>
        <time>2021-11-22T11:24:03.221Z</time>
      </trkpt>
      <trkpt lat="47.339286" lon="7.788558">
        <ele>781.134160</ele>
        <time>2021-11-22T11:24:03.962Z</time>
      </trkpt>
      <trkpt lat="47.339285" lon="7.788421">
        <ele>781.109267</ele>
        <time>2021-11-22T11:24:04.910Z</time>
      </trkpt>
      <trkpt lat="47.339284" lon="7.787585">
        <ele>778.876046</ele>
        <time>2021-11-22T11:24:10.695Z</time>
      </trkpt>
      <trkpt lat="47.339283" lon="7.787466">
        <ele>778.523892</ele>
        <time>2021-11-22T11:24:11.471Z</time>
      </trkpt>
      <trkpt lat="47.339301" lon="7.786846">
        <ele>776.687600</ele>
        <time>2021-11-22T11:24:15.508Z</time>
      </trkpt>
      <trkpt lat="47.339352" lon="7.785813">
        <ele>773.622804</ele>
        <time>2021-11-22T11:24:21.984Z</time>
      </trkpt>
      <trkpt lat="47.339442" lon="7.785250">
        <ele>771.866467</ele>
        <time>2021-11-22T11:24:25.605Z</time>
      </trkpt>
      <trkpt lat="47.339692" lon="7.784069">
        <ele>768.082204</ele>
        <time>2021-11-22T11:24:33.601Z</time>
      </trkpt>
      <trkpt lat="47.340170" lon="7.781791">
        <ele>761.809795</ele>
        <time>2021-11-22T11:24:49.621Z</time>
      </trkpt>
      <trkpt lat="47.340192" lon="7.781684">
        <ele>761.548408</ele>
        <time>2021-11-22T11:24:50.366Z</time>
      </trkpt>
      <trkpt lat="47.340207" lon="7.781563">
        <ele>761.260861</ele>
        <time>2021-11-22T11:24:51.199Z</time>
      </trkpt>
      <trkpt lat="47.340153" lon="7.779719">
        <ele>756.823056</ele>
        <time>2021-11-22T11:25:04.013Z</time>
      </trkpt>
      <trkpt lat="47.340429" lon="7.776997">
        <ele>749.667802</ele>
        <time>2021-11-22T11:25:22.236Z</time>
      </trkpt>
      <trkpt lat="47.340191" lon="7.774536">
        <ele>742.529899</ele>
        <time>2021-11-22T11:25:38.502Z</time>
      </trkpt>
      <trkpt lat="47.340256" lon="7.774156">
        <ele>741.362550</ele>
        <time>2021-11-22T11:25:41.057Z</time>
      </trkpt>
      <trkpt lat="47.340398" lon="7.774030">
        <ele>740.634254</ele>
        <time>2021-11-22T11:25:42.699Z</time>
      </trkpt>
      <trkpt lat="47.340460" lon="7.774022">
        <ele>740.360697</ele>
        <time>2021-11-22T11:25:43.252Z</time>
      </trkpt>
      <trkpt lat="47.340560" lon="7.774027">
        <ele>739.920900</ele>
        <time>2021-11-22T11:25:44.231Z</time>
      </trkpt>
      <trkpt lat="47.341082" lon="7.774273">
        <ele>737.512324</ele>
        <time>2021-11-22T11:25:49.481Z</time>
      </trkpt>
      <trkpt lat="47.341123" lon="7.774286">
        <ele>737.327998</ele>
        <time>2021-11-22T11:25:50.255Z</time>
      </trkpt>
      <trkpt lat="47.341178" lon="7.774292">
        <ele>737.085589</ele>
        <time>2021-11-22T11:25:50.722Z</time>
      </trkpt>
      <trkpt lat="47.341325" lon="7.774204">
        <ele>736.516117</ele>
        <time>2021-11-22T11:25:52.331Z</time>
      </trkpt>
      <trkpt lat="47.341374" lon="7.774058">
        <ele>736.146271</ele>
        <time>2021-11-22T11:25:53.422Z</time>
      </trkpt>
      <trkpt lat="47.341474" lon="7.773020">
        <ele>733.766299</ele>
        <time>2021-11-22T11:26:00.306Z</time>
      </trkpt>
      <trkpt lat="47.341728" lon="7.771392">
        <ele>730.902720</ele>
        <time>2021-11-22T11:26:12.053Z</time>
      </trkpt>
      <trkpt lat="47.342216" lon="7.770720">
        <ele>730.908702</ele>
        <time>2021-11-22T11:26:24.635Z</time>
      </trkpt>
      <trkpt lat="47.342315" lon="7.770663">
        <ele>730.909655</ele>
        <time>2021-11-22T11:26:27.352Z</time>
      </trkpt>
      <trkpt lat="47.342432" lon="7.770693">
        <ele>730.910719</ele>
        <time>2021-11-22T11:26:30.716Z</time>
      </trkpt>
      <trkpt lat="47.343478" lon="7.771550">
        <ele>727.284599</ele>
        <time>2021-11-22T11:26:48.853Z</time>
      </trkpt>
      <trkpt lat="47.343761" lon="7.771721">
        <ele>725.324849</ele>
        <time>2021-11-22T11:26:51.681Z</time>
      </trkpt>
      <trkpt lat="47.344064" lon="7.771784">
        <ele>723.363879</ele>
        <time>2021-11-22T11:26:54.343Z</time>
      </trkpt>
      <trkpt lat="47.344162" lon="7.771780">
        <ele>722.735599</ele>
        <time>2021-11-22T11:26:55.197Z</time>
      </trkpt>
      <trkpt lat="47.344250" lon="7.771775">
        <ele>722.171228</ele>
        <time>2021-11-22T11:26:55.919Z</time>
      </trkpt>
      <trkpt lat="47.344482" lon="7.771725">
        <ele>720.668672</ele>
        <time>2021-11-22T11:26:58.084Z</time>
      </trkpt>
      <trkpt lat="47.344594" lon="7.771683">
        <ele>719.928105</ele>
        <time>2021-11-22T11:26:59.032Z</time>
      </trkpt>
      <trkpt lat="47.344681" lon="7.771648">
        <ele>719.326192</ele>
        <time>2021-11-22T11:26:59.808Z</time>
      </trkpt>
      <trkpt lat="47.344932" lon="7.771527">
        <ele>716.603016</ele>
        <time>2021-11-22T11:27:02.036Z</time>
      </trkpt>
      <trkpt lat="47.344999" lon="7.771491">
        <ele>715.867671</ele>
        <time>2021-11-22T11:27:02.636Z</time>
      </trkpt>
      <trkpt lat="47.345050" lon="7.771455">
        <ele>715.284639</ele>
        <time>2021-11-22T11:27:03.132Z</time>
      </trkpt>
      <trkpt lat="47.345182" lon="7.771346">
        <ele>713.724713</ele>
        <time>2021-11-22T11:27:04.449Z</time>
      </trkpt>
      <trkpt lat="47.345199" lon="7.771332">
        <ele>713.523943</ele>
        <time>2021-11-22T11:27:04.617Z</time>
      </trkpt>
      <trkpt lat="47.345428" lon="7.771129">
        <ele>710.768973</ele>
        <time>2021-11-22T11:27:06.865Z</time>
      </trkpt>
      <trkpt lat="47.345714" lon="7.770880">
        <ele>707.344459</ele>
        <time>2021-11-22T11:27:09.632Z</time>
      </trkpt>
      <trkpt lat="47.346177" lon="7.770480">
        <ele>701.811567</ele>
        <time>2021-11-22T11:27:14.315Z</time>
      </trkpt>
      <trkpt lat="47.346063" lon="7.770121">
        <ele>700.718895</ele>
        <time>2021-11-22T11:27:16.881Z</time>
      </trkpt>
      <trkpt lat="47.346032" lon="7.770007">
        <ele>700.661052</ele>
        <time>2021-11-22T11:27:17.652Z</time>
      </trkpt>
      <trkpt lat="47.346004" lon="7.769899">
        <ele>700.606600</ele>
        <time>2021-11-22T11:27:18.488Z</time>
      </trkpt>
      <trkpt lat="47.345917" lon="7.769616">
        <ele>700.460265</ele>
        <time>2021-11-22T11:27:21.031Z</time>
      </trkpt>
      <trkpt lat="47.346852" lon="7.769196">
        <ele>699.781042</ele>
        <time>2021-11-22T11:27:38.953Z</time>
      </trkpt>
      <trkpt lat="47.347172" lon="7.769120">
        <ele>699.755572</ele>
        <time>2021-11-22T11:27:46.352Z</time>
      </trkpt>
      <trkpt lat="47.347207" lon="7.769113">
        <ele>699.873834</ele>
        <time>2021-11-22T11:27:47.780Z</time>
      </trkpt>
      <trkpt lat="47.347474" lon="7.769064">
        <ele>700.774719</ele>
        <time>2021-11-22T11:27:54.159Z</time>
      </trkpt>
      <trkpt lat="47.347598" lon="7.769044">
        <ele>701.192383</ele>
        <time>2021-11-22T11:27:57.717Z</time>
      </trkpt>
      <trkpt lat="47.347733" lon="7.769019">
        <ele>701.647950</ele>
        <time>2021-11-22T11:28:01.395Z</time>
      </trkpt>
      <trkpt lat="47.347883" lon="7.768952">
        <ele>702.172694</ele>
        <time>2021-11-22T11:28:05.302Z</time>
      </trkpt>
      <trkpt lat="47.348034" lon="7.768874">
        <ele>702.708361</ele>
        <time>2021-11-22T11:28:09.654Z</time>
      </trkpt>
      <trkpt lat="47.348359" lon="7.768664">
        <ele>703.896281</ele>
        <time>2021-11-22T11:28:20.199Z</time>
      </trkpt>
      <trkpt lat="47.348411" lon="7.768632">
        <ele>704.084921</ele>
        <time>2021-11-22T11:28:21.891Z</time>
      </trkpt>
      <trkpt lat="47.348432" lon="7.768618">
        <ele>704.162076</ele>
        <time>2021-11-22T11:28:22.774Z</time>
      </trkpt>
      <trkpt lat="47.348470" lon="7.768595">
        <ele>704.299596</ele>
        <time>2021-11-22T11:28:24.356Z</time>
      </trkpt>
      <trkpt lat="47.348999" lon="7.768255">
        <ele>706.515718</ele>
        <time>2021-11-22T11:28:42.250Z</time>
      </trkpt>
      <trkpt lat="47.349069" lon="7.768196">
        <ele>706.909559</ele>
        <time>2021-11-22T11:28:45.389Z</time>
      </trkpt>
      <trkpt lat="47.349336" lon="7.767844">
        <ele>708.658682</ele>
        <time>2021-11-22T11:28:57.752Z</time>
      </trkpt>
      <trkpt lat="47.349388" lon="7.767753">
        <ele>709.052747</ele>
        <time>2021-11-22T11:29:00.893Z</time>
      </trkpt>
      <trkpt lat="47.349457" lon="7.767605">
        <ele>709.647444</ele>
        <time>2021-11-22T11:29:04.938Z</time>
      </trkpt>
      <trkpt lat="47.349526" lon="7.767381">
        <ele>710.461973</ele>
        <time>2021-11-22T11:29:10.520Z</time>
      </trkpt>
      <trkpt lat="47.349550" lon="7.767265">
        <ele>710.863464</ele>
        <time>2021-11-22T11:29:13.814Z</time>
      </trkpt>
      <trkpt lat="47.349614" lon="7.766878">
        <ele>712.182130</ele>
        <time>2021-11-22T11:29:22.908Z</time>
      </trkpt>
      <trkpt lat="47.349692" lon="7.766459">
        <ele>713.620514</ele>
        <time>2021-11-22T11:29:33.057Z</time>
      </trkpt>
      <trkpt lat="47.349705" lon="7.766380">
        <ele>713.889624</ele>
        <time>2021-11-22T11:29:35.403Z</time>
      </trkpt>
      <trkpt lat="47.349721" lon="7.766282">
        <ele>714.223311</ele>
        <time>2021-11-22T11:29:38.055Z</time>
      </trkpt>
      <trkpt lat="47.349780" lon="7.765953">
        <ele>715.339134</ele>
        <time>2021-11-22T11:29:45.872Z</time>
      </trkpt>
      <trkpt lat="47.349912" lon="7.765369">
        <ele>717.353984</ele>
        <time>2021-11-22T11:30:00.628Z</time>
      </trkpt>
      <trkpt lat="47.350098" lon="7.765068">
        <ele>718.687280</ele>
        <time>2021-11-22T11:30:09.967Z</time>
      </trkpt>
      <trkpt lat="47.351146" lon="7.764519">
        <ele>723.759230</ele>
        <time>2021-11-22T11:30:47.316Z</time>
      </trkpt>
      <trkpt lat="47.351382" lon="7.764309">
        <ele>724.679089</ele>
        <time>2021-11-22T11:30:57.720Z</time>
      </trkpt>
      <trkpt lat="47.351451" lon="7.764228">
        <ele>724.973377</ele>
        <time>2021-11-22T11:30:58.684Z</time>
      </trkpt>
      <trkpt lat="47.351629" lon="7.764018">
        <ele>725.734025</ele>
        <time>2021-11-22T11:31:06.091Z</time>
      </trkpt>
      <trkpt lat="47.351658" lon="7.763983">
        <ele>725.859069</ele>
        <time>2021-11-22T11:31:08.846Z</time>
      </trkpt>
      <trkpt lat="47.351735" lon="7.763895">
        <ele>726.184138</ele>
        <time>2021-11-22T11:31:09.955Z</time>
      </trkpt>
      <trkpt lat="47.351748" lon="7.763878">
        <ele>726.242113</ele>
        <time>2021-11-22T11:31:10.837Z</time>
      </trkpt>
      <trkpt lat="47.351826" lon="7.763777">
        <ele>726.588470</ele>
        <time>2021-11-22T11:31:13.458Z</time>
      </trkpt>
      <trkpt lat="47.351930" lon="7.763646">
        <ele>727.044852</ele>
        <time>2021-11-22T11:31:18.727Z</time>
      </trkpt>
      <trkpt lat="47.352148" lon="7.763507">
        <ele>727.837537</ele>
        <time>2021-11-22T11:31:23.306Z</time>
      </trkpt>
      <trkpt lat="47.352189" lon="7.763487">
        <ele>727.981677</ele>
        <time>2021-11-22T11:31:24.419Z</time>
      </trkpt>
      <trkpt lat="47.352407" lon="7.763381">
        <ele>728.747836</ele>
        <time>2021-11-22T11:31:30.418Z</time>
      </trkpt>
      <trkpt lat="47.352908" lon="7.763033">
        <ele>729.938613</ele>
        <time>2021-11-22T11:31:43.453Z</time>
      </trkpt>
      <trkpt lat="47.353000" lon="7.762937">
        <ele>730.150233</ele>
        <time>2021-11-22T11:31:44.654Z</time>
      </trkpt>
      <trkpt lat="47.353062" lon="7.762868">
        <ele>730.296076</ele>
        <time>2021-11-22T11:31:45.994Z</time>
      </trkpt>
      <trkpt lat="47.353138" lon="7.762778">
        <ele>730.479087</ele>
        <time>2021-11-22T11:31:47.076Z</time>
      </trkpt>
      <trkpt lat="47.353949" lon="7.761596">
        <ele>732.840244</ele>
        <time>2021-11-22T11:32:13.541Z</time>
      </trkpt>
      <trkpt lat="47.354217" lon="7.761201">
        <ele>734.605250</ele>
        <time>2021-11-22T11:32:24.349Z</time>
      </trkpt>
      <trkpt lat="47.354330" lon="7.761048">
        <ele>735.319866</ele>
        <time>2021-11-22T11:32:31.203Z</time>
      </trkpt>
      <trkpt lat="47.354515" lon="7.760905">
        <ele>736.293095</ele>
        <time>2021-11-22T11:32:38.085Z</time>
      </trkpt>
      <trkpt lat="47.354960" lon="7.760707">
        <ele>738.459132</ele>
        <time>2021-11-22T11:32:59.801Z</time>
      </trkpt>
      <trkpt lat="47.355423" lon="7.760365">
        <ele>740.849927</ele>
        <time>2021-11-22T11:33:22.648Z</time>
      </trkpt>
      <trkpt lat="47.356127" lon="7.760648">
        <ele>740.233324</ele>
        <time>2021-11-22T11:33:48.830Z</time>
      </trkpt>
      <trkpt lat="47.356389" lon="7.760772">
        <ele>740.000811</ele>
        <time>2021-11-22T11:33:56.271Z</time>
      </trkpt>
      <trkpt lat="47.357676" lon="7.761373">
        <ele>733.125422</ele>
        <time>2021-11-22T11:34:13.780Z</time>
      </trkpt>
      <trkpt lat="47.358226" lon="7.761547">
        <ele>726.889915</ele>
        <time>2021-11-22T11:34:20.471Z</time>
      </trkpt>
      <trkpt lat="47.358297" lon="7.761558">
        <ele>726.098517</ele>
        <time>2021-11-22T11:34:21.279Z</time>
      </trkpt>
      <trkpt lat="47.358537" lon="7.761582">
        <ele>723.431883</ele>
        <time>2021-11-22T11:34:24.174Z</time>
      </trkpt>
      <trkpt lat="47.358603" lon="7.761580">
        <ele>722.700081</ele>
        <time>2021-11-22T11:34:24.937Z</time>
      </trkpt>
      <trkpt lat="47.358694" lon="7.761576">
        <ele>721.690847</ele>
        <time>2021-11-22T11:34:25.978Z</time>
      </trkpt>
      <trkpt lat="47.359034" lon="7.761428">
        <ele>718.192552</ele>
        <time>2021-11-22T11:34:30.186Z</time>
      </trkpt>
      <trkpt lat="47.359296" lon="7.761144">
        <ele>715.540790</ele>
        <time>2021-11-22T11:34:34.123Z</time>
      </trkpt>
      <trkpt lat="47.359346" lon="7.761072">
        <ele>714.970960</ele>
        <time>2021-11-22T11:34:34.937Z</time>
      </trkpt>
      <trkpt lat="47.359560" lon="7.760802">
        <ele>712.674375</ele>
        <time>2021-11-22T11:34:38.416Z</time>
      </trkpt>
      <trkpt lat="47.359646" lon="7.760729">
        <ele>711.865063</ele>
        <time>2021-11-22T11:34:39.585Z</time>
      </trkpt>
      <trkpt lat="47.359796" lon="7.760632">
        <ele>710.529087</ele>
        <time>2021-11-22T11:34:41.178Z</time>
      </trkpt>
      <trkpt lat="47.359972" lon="7.760553">
        <ele>709.028354</ele>
        <time>2021-11-22T11:34:42.765Z</time>
      </trkpt>
      <trkpt lat="47.360138" lon="7.760481">
        <ele>707.616865</ele>
        <time>2021-11-22T11:34:44.748Z</time>
      </trkpt>
      <trkpt lat="47.360456" lon="7.760322">
        <ele>704.877822</ele>
        <time>2021-11-22T11:34:48.141Z</time>
      </trkpt>
      <trkpt lat="47.361491" lon="7.759613">
        <ele>701.717187</ele>
        <time>2021-11-22T11:35:00.467Z</time>
      </trkpt>
      <trkpt lat="47.361763" lon="7.759323">
        <ele>700.818808</ele>
        <time>2021-11-22T11:35:04.125Z</time>
      </trkpt>
      <trkpt lat="47.362144" lon="7.758772">
        <ele>699.112014</ele>
        <time>2021-11-22T11:35:09.490Z</time>
      </trkpt>
      <trkpt lat="47.362432" lon="7.758068">
        <ele>696.811596</ele>
        <time>2021-11-22T11:35:15.007Z</time>
      </trkpt>
      <trkpt lat="47.362768" lon="7.757595">
        <ele>694.894443</ele>
        <time>2021-11-22T11:35:19.545Z</time>
      </trkpt>
      <trkpt lat="47.362977" lon="7.757393">
        <ele>693.862900</ele>
        <time>2021-11-22T11:35:21.985Z</time>
      </trkpt>
      <trkpt lat="47.364665" lon="7.756398">
        <ele>683.796262</ele>
        <time>2021-11-22T11:35:38.823Z</time>
      </trkpt>
      <trkpt lat="47.365144" lon="7.756010">
        <ele>680.608798</ele>
        <time>2021-11-22T11:35:43.716Z</time>
      </trkpt>
      <trkpt lat="47.365223" lon="7.755923">
        <ele>680.037006</ele>
        <time>2021-11-22T11:35:44.613Z</time>
      </trkpt>
      <trkpt lat="47.365347" lon="7.755739">
        <ele>679.017037</ele>
        <time>2021-11-22T11:35:46.190Z</time>
      </trkpt>
      <trkpt lat="47.365453" lon="7.755538">
        <ele>678.016013</ele>
        <time>2021-11-22T11:35:47.755Z</time>
      </trkpt>
      <trkpt lat="47.365506" lon="7.755428">
        <ele>677.485549</ele>
        <time>2021-11-22T11:35:48.582Z</time>
      </trkpt>
      <trkpt lat="47.365610" lon="7.755187">
        <ele>676.362645</ele>
        <time>2021-11-22T11:35:50.347Z</time>
      </trkpt>
      <trkpt lat="47.365712" lon="7.754953">
        <ele>675.269163</ele>
        <time>2021-11-22T11:35:52.070Z</time>
      </trkpt>
      <trkpt lat="47.366228" lon="7.753823">
        <ele>670.905004</ele>
        <time>2021-11-22T11:36:00.722Z</time>
      </trkpt>
      <trkpt lat="47.366610" lon="7.753012">
        <ele>669.438651</ele>
        <time>2021-11-22T11:36:08.991Z</time>
      </trkpt>
      <trkpt lat="47.366818" lon="7.752705">
        <ele>668.794072</ele>
        <time>2021-11-22T11:36:12.568Z</time>
      </trkpt>
      <trkpt lat="47.366892" lon="7.752633">
        <ele>668.599841</ele>
        <time>2021-11-22T11:36:13.742Z</time>
      </trkpt>
      <trkpt lat="47.367142" lon="7.752434">
        <ele>667.977376</ele>
        <time>2021-11-22T11:36:16.950Z</time>
      </trkpt>
      <trkpt lat="47.367647" lon="7.751948">
        <ele>665.844229</ele>
        <time>2021-11-22T11:36:23.494Z</time>
      </trkpt>
      <trkpt lat="47.367842" lon="7.751673">
        <ele>664.724997</ele>
        <time>2021-11-22T11:36:26.261Z</time>
      </trkpt>
      <trkpt lat="47.368671" lon="7.750109">
        <ele>658.508283</ele>
        <time>2021-11-22T11:36:38.890Z</time>
      </trkpt>
      <trkpt lat="47.369180" lon="7.749821">
        <ele>654.747914</ele>
        <time>2021-11-22T11:36:43.789Z</time>
      </trkpt>
      <trkpt lat="47.370155" lon="7.748818">
        <ele>646.817235</ele>
        <time>2021-11-22T11:36:54.328Z</time>
      </trkpt>
      <trkpt lat="47.370406" lon="7.748697">
        <ele>645.421871</ele>
        <time>2021-11-22T11:36:56.719Z</time>
      </trkpt>
      <trkpt lat="47.371101" lon="7.748488">
        <ele>641.673612</ele>
        <time>2021-11-22T11:37:03.277Z</time>
      </trkpt>
      <trkpt lat="47.371183" lon="7.748465">
        <ele>641.232518</ele>
        <time>2021-11-22T11:37:04.042Z</time>
      </trkpt>
      <trkpt lat="47.371219" lon="7.748456">
        <ele>641.039562</ele>
        <time>2021-11-22T11:37:04.419Z</time>
      </trkpt>
      <trkpt lat="47.371502" lon="7.748381">
        <ele>639.520096</ele>
        <time>2021-11-22T11:37:07.200Z</time>
      </trkpt>
      <trkpt lat="47.372648" lon="7.748213">
        <ele>636.391013</ele>
        <time>2021-11-22T11:37:19.463Z</time>
      </trkpt>
      <trkpt lat="47.373513" lon="7.747993">
        <ele>634.638828</ele>
        <time>2021-11-22T11:37:30.335Z</time>
      </trkpt>
      <trkpt lat="47.374049" lon="7.748038">
        <ele>632.188230</ele>
        <time>2021-11-22T11:37:36.234Z</time>
      </trkpt>
      <trkpt lat="47.374630" lon="7.748215">
        <ele>629.416106</ele>
        <time>2021-11-22T11:37:41.841Z</time>
      </trkpt>
      <trkpt lat="47.374819" lon="7.748274">
        <ele>628.513412</ele>
        <time>2021-11-22T11:37:43.644Z</time>
      </trkpt>
      <trkpt lat="47.374946" lon="7.748312">
        <ele>627.907895</ele>
        <time>2021-11-22T11:37:44.813Z</time>
      </trkpt>
      <trkpt lat="47.375486" lon="7.748472">
        <ele>624.292136</ele>
        <time>2021-11-22T11:37:49.780Z</time>
      </trkpt>
      <trkpt lat="47.375845" lon="7.748573">
        <ele>620.506317</ele>
        <time>2021-11-22T11:37:53.013Z</time>
      </trkpt>
      <trkpt lat="47.376182" lon="7.748757">
        <ele>616.784309</ele>
        <time>2021-11-22T11:37:56.045Z</time>
      </trkpt>
      <trkpt lat="47.376617" lon="7.749424">
        <ele>610.288231</ele>
        <time>2021-11-22T11:38:01.332Z</time>
      </trkpt>
      <trkpt lat="47.376861" lon="7.749523">
        <ele>607.666934</ele>
        <time>2021-11-22T11:38:03.455Z</time>
      </trkpt>
      <trkpt lat="47.377100" lon="7.749472">
        <ele>605.501401</ele>
        <time>2021-11-22T11:38:05.612Z</time>
      </trkpt>
      <trkpt lat="47.377124" lon="7.749452">
        <ele>605.256014</ele>
        <time>2021-11-22T11:38:05.838Z</time>
      </trkpt>
      <trkpt lat="47.377148" lon="7.749427">
        <ele>604.994490</ele>
        <time>2021-11-22T11:38:06.080Z</time>
      </trkpt>
      <trkpt lat="47.377472" lon="7.748880">
        <ele>600.612442</ele>
        <time>2021-11-22T11:38:10.406Z</time>
      </trkpt>
      <trkpt lat="47.377963" lon="7.748725">
        <ele>596.141568</ele>
        <time>2021-11-22T11:38:14.859Z</time>
      </trkpt>
      <trkpt lat="47.378159" lon="7.748462">
        <ele>593.783431</ele>
        <time>2021-11-22T11:38:17.149Z</time>
      </trkpt>
      <trkpt lat="47.378290" lon="7.748370">
        <ele>592.491759</ele>
        <time>2021-11-22T11:38:18.434Z</time>
      </trkpt>
      <trkpt lat="47.380210" lon="7.747910">
        <ele>579.908034</ele>
        <time>2021-11-22T11:38:36.140Z</time>
      </trkpt>
      <trkpt lat="47.380350" lon="7.747778">
        <ele>578.946252</ele>
        <time>2021-11-22T11:38:37.817Z</time>
      </trkpt>
      <trkpt lat="47.380395" lon="7.747571">
        <ele>578.093836</ele>
        <time>2021-11-22T11:38:39.361Z</time>
      </trkpt>
      <trkpt lat="47.380390" lon="7.747520">
        <ele>577.891788</ele>
        <time>2021-11-22T11:38:39.647Z</time>
      </trkpt>
      <trkpt lat="47.380381" lon="7.747474">
        <ele>577.704051</ele>
        <time>2021-11-22T11:38:39.930Z</time>
      </trkpt>
      <trkpt lat="47.380277" lon="7.747302">
        <ele>576.799926</ele>
        <time>2021-11-22T11:38:41.643Z</time>
      </trkpt>
      <trkpt lat="47.380129" lon="7.747267">
        <ele>575.932029</ele>
        <time>2021-11-22T11:38:43.106Z</time>
      </trkpt>
      <trkpt lat="47.378745" lon="7.747711">
        <ele>567.180215</ele>
        <time>2021-11-22T11:38:55.999Z</time>
      </trkpt>
      <trkpt lat="47.378579" lon="7.747764">
        <ele>565.924869</ele>
        <time>2021-11-22T11:38:57.681Z</time>
      </trkpt>
      <trkpt lat="47.378432" lon="7.747810">
        <ele>564.814184</ele>
        <time>2021-11-22T11:38:58.983Z</time>
      </trkpt>
      <trkpt lat="47.378243" lon="7.747826">
        <ele>563.414887</ele>
        <time>2021-11-22T11:39:00.731Z</time>
      </trkpt>
      <trkpt lat="47.378095" lon="7.747758">
        <ele>562.269213</ele>
        <time>2021-11-22T11:39:02.063Z</time>
      </trkpt>
      <trkpt lat="47.378047" lon="7.747688">
        <ele>561.770579</ele>
        <time>2021-11-22T11:39:02.645Z</time>
      </trkpt>
      <trkpt lat="47.378014" lon="7.747587">
        <ele>561.209278</ele>
        <time>2021-11-22T11:39:03.352Z</time>
      </trkpt>
      <trkpt lat="47.377977" lon="7.747459">
        <ele>560.512674</ele>
        <time>2021-11-22T11:39:04.228Z</time>
      </trkpt>
      <trkpt lat="47.377966" lon="7.747320">
        <ele>559.812209</ele>
        <time>2021-11-22T11:39:05.029Z</time>
      </trkpt>
      <trkpt lat="47.378022" lon="7.746968">
        <ele>558.002388</ele>
        <time>2021-11-22T11:39:07.251Z</time>
      </trkpt>
      <trkpt lat="47.378097" lon="7.746822">
        <ele>557.085142</ele>
        <time>2021-11-22T11:39:08.307Z</time>
      </trkpt>
      <trkpt lat="47.378182" lon="7.746723">
        <ele>556.332667</ele>
        <time>2021-11-22T11:39:09.649Z</time>
      </trkpt>
      <trkpt lat="47.378447" lon="7.746546">
        <ele>554.894627</ele>
        <time>2021-11-22T11:39:13.316Z</time>
      </trkpt>
      <trkpt lat="47.378807" lon="7.746334">
        <ele>552.978356</ele>
        <time>2021-11-22T11:39:18.231Z</time>
      </trkpt>
      <trkpt lat="47.378965" lon="7.746248">
        <ele>552.145774</ele>
        <time>2021-11-22T11:39:20.462Z</time>
      </trkpt>
      <trkpt lat="47.379208" lon="7.746134">
        <ele>550.885127</ele>
        <time>2021-11-22T11:39:23.832Z</time>
      </trkpt>
      <trkpt lat="47.379458" lon="7.746042">
        <ele>549.611237</ele>
        <time>2021-11-22T11:39:27.744Z</time>
      </trkpt>
      <trkpt lat="47.379874" lon="7.746053">
        <ele>547.554054</ele>
        <time>2021-11-22T11:39:34.778Z</time>
      </trkpt>
      <trkpt lat="47.379998" lon="7.746071">
        <ele>547.541494</ele>
        <time>2021-11-22T11:39:36.814Z</time>
      </trkpt>
      <trkpt lat="47.380116" lon="7.746085">
        <ele>547.546970</ele>
        <time>2021-11-22T11:39:38.698Z</time>
      </trkpt>
      <trkpt lat="47.380341" lon="7.746169">
        <ele>547.557706</ele>
        <time>2021-11-22T11:39:41.482Z</time>
      </trkpt>
      <trkpt lat="47.380455" lon="7.746245">
        <ele>547.563491</ele>
        <time>2021-11-22T11:39:43.931Z</time>
      </trkpt>
      <trkpt lat="47.380602" lon="7.746339">
        <ele>547.570901</ele>
        <time>2021-11-22T11:39:46.163Z</time>
      </trkpt>
      <trkpt lat="47.380930" lon="7.746559">
        <ele>547.587566</ele>
        <time>2021-11-22T11:39:51.946Z</time>
      </trkpt>
      <trkpt lat="47.381241" lon="7.746772">
        <ele>547.603424</ele>
        <time>2021-11-22T11:39:58.319Z</time>
      </trkpt>
      <trkpt lat="47.381267" lon="7.746790">
        <ele>547.604752</ele>
        <time>2021-11-22T11:39:58.883Z</time>
      </trkpt>
      <trkpt lat="47.381381" lon="7.746868">
        <ele>547.610564</ele>
        <time>2021-11-22T11:40:02.102Z</time>
      </trkpt>
      <trkpt lat="47.381527" lon="7.746969">
        <ele>547.618022</ele>
        <time>2021-11-22T11:40:05.732Z</time>
      </trkpt>
      <trkpt lat="47.381676" lon="7.747081">
        <ele>547.279915</ele>
        <time>2021-11-22T11:40:09.056Z</time>
      </trkpt>
      <trkpt lat="47.381814" lon="7.747196">
        <ele>546.906249</ele>
        <time>2021-11-22T11:40:11.625Z</time>
      </trkpt>
      <trkpt lat="47.382043" lon="7.747403">
        <ele>546.273096</ele>
        <time>2021-11-22T11:40:15.033Z</time>
      </trkpt>
      <trkpt lat="47.382062" lon="7.747423">
        <ele>546.218074</ele>
        <time>2021-11-22T11:40:15.270Z</time>
      </trkpt>
      <trkpt lat="47.382239" lon="7.747642">
        <ele>545.673547</ele>
        <time>2021-11-22T11:40:17.346Z</time>
      </trkpt>
      <trkpt lat="47.382312" lon="7.747733">
        <ele>545.448272</ele>
        <time>2021-11-22T11:40:19.992Z</time>
      </trkpt>
      <trkpt lat="47.382449" lon="7.747914">
        <ele>545.014792</ele>
        <time>2021-11-22T11:40:21.875Z</time>
      </trkpt>
      <trkpt lat="47.382597" lon="7.748100">
        <ele>544.556515</ele>
        <time>2021-11-22T11:40:23.713Z</time>
      </trkpt>
      <trkpt lat="47.382685" lon="7.748193">
        <ele>544.301335</ele>
        <time>2021-11-22T11:40:24.907Z</time>
      </trkpt>
      <trkpt lat="47.382743" lon="7.748269">
        <ele>544.118485</ele>
        <time>2021-11-22T11:40:25.661Z</time>
      </trkpt>
      <trkpt lat="47.382803" lon="7.748331">
        <ele>543.945798</ele>
        <time>2021-11-22T11:40:26.276Z</time>
      </trkpt>
      <trkpt lat="47.382849" lon="7.748375">
        <ele>543.816556</ele>
        <time>2021-11-22T11:40:27.696Z</time>
      </trkpt>
      <trkpt lat="47.383061" lon="7.748496">
        <ele>543.126615</ele>
        <time>2021-11-22T11:40:30.275Z</time>
      </trkpt>
      <trkpt lat="47.383151" lon="7.748589">
        <ele>542.456173</ele>
        <time>2021-11-22T11:40:31.248Z</time>
      </trkpt>
      <trkpt lat="47.383199" lon="7.748630">
        <ele>542.117725</ele>
        <time>2021-11-22T11:40:32.313Z</time>
      </trkpt>
      <trkpt lat="47.383374" lon="7.748782">
        <ele>540.878550</ele>
        <time>2021-11-22T11:40:34.435Z</time>
      </trkpt>
      <trkpt lat="47.383404" lon="7.748808">
        <ele>540.666240</ele>
        <time>2021-11-22T11:40:34.741Z</time>
      </trkpt>
      <trkpt lat="47.383423" lon="7.748826">
        <ele>540.528461</ele>
        <time>2021-11-22T11:40:37.175Z</time>
      </trkpt>
      <trkpt lat="47.383567" lon="7.748952">
        <ele>539.506854</ele>
        <time>2021-11-22T11:40:39.961Z</time>
      </trkpt>
      <trkpt lat="47.383709" lon="7.749053">
        <ele>538.544854</ele>
        <time>2021-11-22T11:40:41.285Z</time>
      </trkpt>
      <trkpt lat="47.383842" lon="7.749130">
        <ele>537.672918</ele>
        <time>2021-11-22T11:40:43.536Z</time>
      </trkpt>
      <trkpt lat="47.383995" lon="7.749183">
        <ele>536.713707</ele>
        <time>2021-11-22T11:40:45.030Z</time>
      </trkpt>
      <trkpt lat="47.384156" lon="7.749222">
        <ele>535.717880</ele>
        <time>2021-11-22T11:40:46.392Z</time>
      </trkpt>
      <trkpt lat="47.384325" lon="7.749225">
        <ele>534.686279</ele>
        <time>2021-11-22T11:40:47.961Z</time>
      </trkpt>
      <trkpt lat="47.384579" lon="7.749203">
        <ele>533.133272</ele>
        <time>2021-11-22T11:40:50.102Z</time>
      </trkpt>
      <trkpt lat="47.384926" lon="7.749167">
        <ele>531.414644</ele>
        <time>2021-11-22T11:40:53.207Z</time>
      </trkpt>
      <trkpt lat="47.385161" lon="7.749138">
        <ele>530.394507</ele>
        <time>2021-11-22T11:40:55.597Z</time>
      </trkpt>
      <trkpt lat="47.385398" lon="7.749124">
        <ele>529.368441</ele>
        <time>2021-11-22T11:40:57.957Z</time>
      </trkpt>
      <trkpt lat="47.385514" lon="7.749117">
        <ele>528.866213</ele>
        <time>2021-11-22T11:40:59.102Z</time>
      </trkpt>
      <trkpt lat="47.385536" lon="7.749116">
        <ele>528.770998</ele>
        <time>2021-11-22T11:40:59.335Z</time>
      </trkpt>
      <trkpt lat="47.385581" lon="7.749115">
        <ele>528.576309</ele>
        <time>2021-11-22T11:40:59.709Z</time>
      </trkpt>
      <trkpt lat="47.385668" lon="7.749119">
        <ele>528.199770</ele>
        <time>2021-11-22T11:41:01.659Z</time>
      </trkpt>
      <trkpt lat="47.386064" lon="7.749150">
        <ele>526.484295</ele>
        <time>2021-11-22T11:41:05.575Z</time>
      </trkpt>
      <trkpt lat="47.386338" lon="7.749170">
        <ele>525.297542</ele>
        <time>2021-11-22T11:41:08.218Z</time>
      </trkpt>
      <trkpt lat="47.386374" lon="7.749172">
        <ele>525.141698</ele>
        <time>2021-11-22T11:41:09.946Z</time>
      </trkpt>
      <trkpt lat="47.386511" lon="7.749180">
        <ele>524.592991</ele>
        <time>2021-11-22T11:41:11.389Z</time>
      </trkpt>
      <trkpt lat="47.386821" lon="7.749197">
        <ele>524.105750</ele>
        <time>2021-11-22T11:41:14.776Z</time>
      </trkpt>
      <trkpt lat="47.386903" lon="7.749201">
        <ele>523.976886</ele>
        <time>2021-11-22T11:41:15.784Z</time>
      </trkpt>
      <trkpt lat="47.387396" lon="7.749237">
        <ele>523.201603</ele>
        <time>2021-11-22T11:41:21.343Z</time>
      </trkpt>
      <trkpt lat="47.387895" lon="7.749294">
        <ele>522.415502</ele>
        <time>2021-11-22T11:41:31.093Z</time>
      </trkpt>
      <trkpt lat="47.388136" lon="7.749319">
        <ele>522.036040</ele>
        <time>2021-11-22T11:41:33.736Z</time>
      </trkpt>
      <trkpt lat="47.388375" lon="7.749336">
        <ele>521.373579</ele>
        <time>2021-11-22T11:41:36.265Z</time>
      </trkpt>
      <trkpt lat="47.388452" lon="7.749336">
        <ele>520.992046</ele>
        <time>2021-11-22T11:41:36.951Z</time>
      </trkpt>
      <trkpt lat="47.388877" lon="7.749281">
        <ele>518.878113</ele>
        <time>2021-11-22T11:41:41.131Z</time>
      </trkpt>
      <trkpt lat="47.389085" lon="7.749218">
        <ele>517.826033</ele>
        <time>2021-11-22T11:41:43.151Z</time>
      </trkpt>
      <trkpt lat="47.389752" lon="7.748905">
        <ele>514.358282</ele>
        <time>2021-11-22T11:41:49.590Z</time>
      </trkpt>
      <trkpt lat="47.389856" lon="7.748856">
        <ele>513.817384</ele>
        <time>2021-11-22T11:41:50.522Z</time>
      </trkpt>
      <trkpt lat="47.390095" lon="7.748771">
        <ele>512.580953</ele>
        <time>2021-11-22T11:41:52.849Z</time>
      </trkpt>
      <trkpt lat="47.390406" lon="7.748760">
        <ele>510.939115</ele>
        <time>2021-11-22T11:41:55.708Z</time>
      </trkpt>
      <trkpt lat="47.390493" lon="7.748774">
        <ele>510.477238</ele>
        <time>2021-11-22T11:41:56.477Z</time>
      </trkpt>
      <trkpt lat="47.390565" lon="7.748791">
        <ele>510.092419</ele>
        <time>2021-11-22T11:41:57.112Z</time>
      </trkpt>
      <trkpt lat="47.390808" lon="7.748872">
        <ele>508.777686</ele>
        <time>2021-11-22T11:41:59.541Z</time>
      </trkpt>
      <trkpt lat="47.391080" lon="7.748952">
        <ele>507.313969</ele>
        <time>2021-11-22T11:42:02.119Z</time>
      </trkpt>
      <trkpt lat="47.391160" lon="7.748974">
        <ele>506.884498</ele>
        <time>2021-11-22T11:42:02.876Z</time>
      </trkpt>
      <trkpt lat="47.391228" lon="7.748985">
        <ele>506.523468</ele>
        <time>2021-11-22T11:42:03.473Z</time>
      </trkpt>
      <trkpt lat="47.391299" lon="7.748990">
        <ele>506.148325</ele>
        <time>2021-11-22T11:42:04.114Z</time>
      </trkpt>
      <trkpt lat="47.391408" lon="7.748990">
        <ele>505.573055</ele>
        <time>2021-11-22T11:42:05.257Z</time>
      </trkpt>
      <trkpt lat="47.391488" lon="7.748988">
        <ele>505.150778</ele>
        <time>2021-11-22T11:42:06.043Z</time>
      </trkpt>
      <trkpt lat="47.391698" lon="7.748986">
        <ele>504.042436</ele>
        <time>2021-11-22T11:42:08.037Z</time>
      </trkpt>
      <trkpt lat="47.392027" lon="7.748980">
        <ele>502.796425</ele>
        <time>2021-11-22T11:42:11.235Z</time>
      </trkpt>
      <trkpt lat="47.392247" lon="7.748975">
        <ele>502.161423</ele>
        <time>2021-11-22T11:42:13.553Z</time>
      </trkpt>
      <trkpt lat="47.392337" lon="7.748974">
        <ele>501.901672</ele>
        <time>2021-11-22T11:42:14.471Z</time>
      </trkpt>
      <trkpt lat="47.392456" lon="7.748972">
        <ele>501.558212</ele>
        <time>2021-11-22T11:42:15.731Z</time>
      </trkpt>
      <trkpt lat="47.392574" lon="7.748979">
        <ele>501.217386</ele>
        <time>2021-11-22T11:42:16.957Z</time>
      </trkpt>
      <trkpt lat="47.392688" lon="7.748995">
        <ele>500.886897</ele>
        <time>2021-11-22T11:42:18.131Z</time>
      </trkpt>
      <trkpt lat="47.392847" lon="7.749023">
        <ele>500.424768</ele>
        <time>2021-11-22T11:42:19.875Z</time>
      </trkpt>
      <trkpt lat="47.393071" lon="7.749070">
        <ele>499.771808</ele>
        <time>2021-11-22T11:42:22.260Z</time>
      </trkpt>
      <trkpt lat="47.393250" lon="7.749113">
        <ele>499.248421</ele>
        <time>2021-11-22T11:42:24.227Z</time>
      </trkpt>
      <trkpt lat="47.393591" lon="7.749263">
        <ele>498.221577</ele>
        <time>2021-11-22T11:42:28.005Z</time>
      </trkpt>
      <trkpt lat="47.393673" lon="7.749292">
        <ele>498.035732</ele>
        <time>2021-11-22T11:42:28.866Z</time>
      </trkpt>
      <trkpt lat="47.393784" lon="7.749301">
        <ele>497.799088</ele>
        <time>2021-11-22T11:42:30.030Z</time>
      </trkpt>
      <trkpt lat="47.393977" lon="7.749297">
        <ele>497.388203</ele>
        <time>2021-11-22T11:42:32.129Z</time>
      </trkpt>
      <trkpt lat="47.394104" lon="7.749291">
        <ele>497.117717</ele>
        <time>2021-11-22T11:42:33.445Z</time>
      </trkpt>
      <trkpt lat="47.394194" lon="7.749289">
        <ele>496.926110</ele>
        <time>2021-11-22T11:42:34.445Z</time>
      </trkpt>
      <trkpt lat="47.394291" lon="7.749282">
        <ele>496.719377</ele>
        <time>2021-11-22T11:42:35.502Z</time>
      </trkpt>
      <trkpt lat="47.394439" lon="7.749248">
        <ele>496.400539</ele>
        <time>2021-11-22T11:42:37.135Z</time>
      </trkpt>
      <trkpt lat="47.394509" lon="7.749215">
        <ele>496.244124</ele>
        <time>2021-11-22T11:42:37.947Z</time>
      </trkpt>
      <trkpt lat="47.394651" lon="7.749144">
        <ele>495.924999</ele>
        <time>2021-11-22T11:42:39.601Z</time>
      </trkpt>
      <trkpt lat="47.394768" lon="7.749104">
        <ele>495.669355</ele>
        <time>2021-11-22T11:42:40.940Z</time>
      </trkpt>
      <trkpt lat="47.395125" lon="7.749053">
        <ele>494.905855</ele>
        <time>2021-11-22T11:42:44.897Z</time>
      </trkpt>
      <trkpt lat="47.395380" lon="7.749021">
        <ele>494.361696</ele>
        <time>2021-11-22T11:42:47.709Z</time>
      </trkpt>
      <trkpt lat="47.395507" lon="7.749005">
        <ele>494.112955</ele>
        <time>2021-11-22T11:42:49.109Z</time>
      </trkpt>
      <trkpt lat="47.395539" lon="7.749002">
        <ele>494.050381</ele>
        <time>2021-11-22T11:42:49.470Z</time>
      </trkpt>
      <trkpt lat="47.395586" lon="7.748999">
        <ele>493.958574</ele>
        <time>2021-11-22T11:42:49.994Z</time>
      </trkpt>
      <trkpt lat="47.395694" lon="7.749002">
        <ele>493.747774</ele>
        <time>2021-11-22T11:42:51.153Z</time>
      </trkpt>
      <trkpt lat="47.396397" lon="7.749134">
        <ele>492.364825</ele>
        <time>2021-11-22T11:42:58.934Z</time>
      </trkpt>
      <trkpt lat="47.396567" lon="7.749140">
        <ele>492.032973</ele>
        <time>2021-11-22T11:43:00.814Z</time>
      </trkpt>
      <trkpt lat="47.396663" lon="7.749150">
        <ele>491.845163</ele>
        <time>2021-11-22T11:43:01.896Z</time>
      </trkpt>
      <trkpt lat="47.396748" lon="7.749161">
        <ele>491.678649</ele>
        <time>2021-11-22T11:43:02.813Z</time>
      </trkpt>
      <trkpt lat="47.397032" lon="7.749214">
        <ele>491.120016</ele>
        <time>2021-11-22T11:43:05.979Z</time>
      </trkpt>
      <trkpt lat="47.397558" lon="7.749325">
        <ele>490.198093</ele>
        <time>2021-11-22T11:43:11.906Z</time>
      </trkpt>
      <trkpt lat="47.398372" lon="7.749516">
        <ele>488.828194</ele>
        <time>2021-11-22T11:43:21.142Z</time>
      </trkpt>
      <trkpt lat="47.399500" lon="7.749781">
        <ele>487.259310</ele>
        <time>2021-11-22T11:43:34.419Z</time>
      </trkpt>
      <trkpt lat="47.399567" lon="7.749788">
        <ele>487.186840</ele>
        <time>2021-11-22T11:43:35.195Z</time>
      </trkpt>
      <trkpt lat="47.399717" lon="7.749806">
        <ele>487.024466</ele>
        <time>2021-11-22T11:43:37.062Z</time>
      </trkpt>
      <trkpt lat="47.400091" lon="7.749776">
        <ele>486.620349</ele>
        <time>2021-11-22T11:43:41.694Z</time>
      </trkpt>
      <trkpt lat="47.400244" lon="7.749736">
        <ele>486.452707</ele>
        <time>2021-11-22T11:43:43.609Z</time>
      </trkpt>
      <trkpt lat="47.400432" lon="7.749686">
        <ele>486.246606</ele>
        <time>2021-11-22T11:43:46.020Z</time>
      </trkpt>
      <trkpt lat="47.400598" lon="7.749617">
        <ele>486.060548</ele>
        <time>2021-11-22T11:43:48.173Z</time>
      </trkpt>
      <trkpt lat="47.400800" lon="7.749492">
        <ele>485.779404</ele>
        <time>2021-11-22T11:43:50.987Z</time>
      </trkpt>
      <trkpt lat="47.401019" lon="7.749360">
        <ele>485.414234</ele>
        <time>2021-11-22T11:43:53.973Z</time>
      </trkpt>
      <trkpt lat="47.401293" lon="7.749291">
        <ele>484.985104</ele>
        <time>2021-11-22T11:43:57.326Z</time>
      </trkpt>
      <trkpt lat="47.401590" lon="7.749360">
        <ele>484.520930</ele>
        <time>2021-11-22T11:44:00.874Z</time>
      </trkpt>
      <trkpt lat="47.402330" lon="7.749957">
        <ele>483.219209</ele>
        <time>2021-11-22T11:44:10.317Z</time>
      </trkpt>
      <trkpt lat="47.402454" lon="7.750070">
        <ele>482.816309</ele>
        <time>2021-11-22T11:44:11.846Z</time>
      </trkpt>
      <trkpt lat="47.403097" lon="7.750650">
        <ele>480.335817</ele>
        <time>2021-11-22T11:44:19.588Z</time>
      </trkpt>
      <trkpt lat="47.403730" lon="7.751223">
        <ele>477.891561</ele>
        <time>2021-11-22T11:44:26.867Z</time>
      </trkpt>
      <trkpt lat="47.404048" lon="7.751509">
        <ele>476.699420</ele>
        <time>2021-11-22T11:44:30.488Z</time>
      </trkpt>
      <trkpt lat="47.404214" lon="7.751646">
        <ele>476.110721</ele>
        <time>2021-11-22T11:44:32.372Z</time>
      </trkpt>
      <trkpt lat="47.404311" lon="7.751716">
        <ele>475.776490</ele>
        <time>2021-11-22T11:44:33.448Z</time>
      </trkpt>
      <trkpt lat="47.404398" lon="7.751774">
        <ele>475.480978</ele>
        <time>2021-11-22T11:44:34.383Z</time>
      </trkpt>
      <trkpt lat="47.404757" lon="7.751955">
        <ele>474.306544</ele>
        <time>2021-11-22T11:44:38.221Z</time>
      </trkpt>
      <trkpt lat="47.404962" lon="7.752020">
        <ele>473.657392</ele>
        <time>2021-11-22T11:44:40.373Z</time>
      </trkpt>
      <trkpt lat="47.405135" lon="7.752076">
        <ele>473.109061</ele>
        <time>2021-11-22T11:44:42.201Z</time>
      </trkpt>
      <trkpt lat="47.405318" lon="7.752130">
        <ele>472.531285</ele>
        <time>2021-11-22T11:44:44.145Z</time>
      </trkpt>
      <trkpt lat="47.405500" lon="7.752177">
        <ele>471.959251</ele>
        <time>2021-11-22T11:44:46.094Z</time>
      </trkpt>
      <trkpt lat="47.406028" lon="7.752259">
        <ele>471.409507</ele>
        <time>2021-11-22T11:44:51.892Z</time>
      </trkpt>
      <trkpt lat="47.406458" lon="7.752320">
        <ele>471.159932</ele>
        <time>2021-11-22T11:44:56.984Z</time>
      </trkpt>
      <trkpt lat="47.406667" lon="7.752359">
        <ele>471.038223</ele>
        <time>2021-11-22T11:44:59.691Z</time>
      </trkpt>
      <trkpt lat="47.406774" lon="7.752394">
        <ele>470.974907</ele>
        <time>2021-11-22T11:45:01.025Z</time>
      </trkpt>
      <trkpt lat="47.406921" lon="7.752457">
        <ele>470.886477</ele>
        <time>2021-11-22T11:45:03.324Z</time>
      </trkpt>
      <trkpt lat="47.407064" lon="7.752527">
        <ele>470.799443</ele>
        <time>2021-11-22T11:45:06.490Z</time>
      </trkpt>
      <trkpt lat="47.407314" lon="7.752624">
        <ele>470.650109</ele>
        <time>2021-11-22T11:45:11.226Z</time>
      </trkpt>
      <trkpt lat="47.407314" lon="7.752624">
        <ele>470.650109</ele>
        <time>2021-11-22T11:45:11.227Z</time>
      </trkpt>
      <trkpt lat="47.407673" lon="7.752793">
        <ele>471.273693</ele>
        <time>2021-11-22T11:45:19.489Z</time>
      </trkpt>
      <trkpt lat="47.408184" lon="7.753119">
        <ele>472.384265</ele>
        <time>2021-11-22T11:45:33.630Z</time>
      </trkpt>
      <trkpt lat="47.408293" lon="7.753211">
        <ele>472.634734</ele>
        <time>2021-11-22T11:45:38.059Z</time>
      </trkpt>
      <trkpt lat="47.408436" lon="7.753348">
        <ele>472.974787</ele>
        <time>2021-11-22T11:45:43.401Z</time>
      </trkpt>
      <trkpt lat="47.409359" lon="7.754282">
        <ele>473.185168</ele>
        <time>2021-11-22T11:46:04.840Z</time>
      </trkpt>
      <trkpt lat="47.409489" lon="7.754401">
        <ele>472.871401</ele>
        <time>2021-11-22T11:46:06.624Z</time>
      </trkpt>
      <trkpt lat="47.409608" lon="7.754510">
        <ele>472.584134</ele>
        <time>2021-11-22T11:46:08.952Z</time>
      </trkpt>
      <trkpt lat="47.409760" lon="7.754676">
        <ele>472.196328</ele>
        <time>2021-11-22T11:46:10.839Z</time>
      </trkpt>
      <trkpt lat="47.409869" lon="7.754792">
        <ele>471.920718</ele>
        <time>2021-11-22T11:46:12.260Z</time>
      </trkpt>
      <trkpt lat="47.410249" lon="7.755193">
        <ele>470.962632</ele>
        <time>2021-11-22T11:46:16.765Z</time>
      </trkpt>
      <trkpt lat="47.410819" lon="7.755776">
        <ele>468.289422</ele>
        <time>2021-11-22T11:46:23.289Z</time>
      </trkpt>
      <trkpt lat="47.411231" lon="7.756194">
        <ele>465.954453</ele>
        <time>2021-11-22T11:46:27.832Z</time>
      </trkpt>
      <trkpt lat="47.412140" lon="7.757109">
        <ele>461.469219</ele>
        <time>2021-11-22T11:46:38.623Z</time>
      </trkpt>
      <trkpt lat="47.412976" lon="7.757506">
        <ele>459.428210</ele>
        <time>2021-11-22T11:46:48.396Z</time>
      </trkpt>
      <trkpt lat="47.413130" lon="7.757630">
        <ele>459.020576</ele>
        <time>2021-11-22T11:46:50.396Z</time>
      </trkpt>
      <trkpt lat="47.413354" lon="7.757794">
        <ele>458.439529</ele>
        <time>2021-11-22T11:46:53.168Z</time>
      </trkpt>
      <trkpt lat="47.414242" lon="7.758407">
        <ele>456.063778</ele>
        <time>2021-11-22T11:47:03.855Z</time>
      </trkpt>
      <trkpt lat="47.415402" lon="7.758996">
        <ele>452.982570</ele>
        <time>2021-11-22T11:47:16.648Z</time>
      </trkpt>
      <trkpt lat="47.415747" lon="7.759291">
        <ele>451.852209</ele>
        <time>2021-11-22T11:47:20.743Z</time>
      </trkpt>
      <trkpt lat="47.416052" lon="7.759740">
        <ele>450.631335</ele>
        <time>2021-11-22T11:47:25.143Z</time>
      </trkpt>
      <trkpt lat="47.416792" lon="7.761347">
        <ele>447.165950</ele>
        <time>2021-11-22T11:47:38.776Z</time>
      </trkpt>
      <trkpt lat="47.417126" lon="7.761784">
        <ele>446.120803</ele>
        <time>2021-11-22T11:47:43.558Z</time>
      </trkpt>
      <trkpt lat="47.417666" lon="7.762248">
        <ele>444.657321</ele>
        <time>2021-11-22T11:47:50.340Z</time>
      </trkpt>
      <trkpt lat="47.417792" lon="7.762365">
        <ele>444.308678</ele>
        <time>2021-11-22T11:47:51.995Z</time>
      </trkpt>
      <trkpt lat="47.418108" lon="7.762666">
        <ele>443.601341</ele>
        <time>2021-11-22T11:47:56.232Z</time>
      </trkpt>
      <trkpt lat="47.418350" lon="7.762893">
        <ele>443.078758</ele>
        <time>2021-11-22T11:47:59.485Z</time>
      </trkpt>
      <trkpt lat="47.418427" lon="7.762968">
        <ele>442.910625</ele>
        <time>2021-11-22T11:48:00.481Z</time>
      </trkpt>
      <trkpt lat="47.419279" lon="7.763797">
        <ele>441.050830</ele>
        <time>2021-11-22T11:48:11.864Z</time>
      </trkpt>
      <trkpt lat="47.419772" lon="7.764298">
        <ele>439.919128</ele>
        <time>2021-11-22T11:48:18.487Z</time>
      </trkpt>
      <trkpt lat="47.420157" lon="7.764659">
        <ele>439.052832</ele>
        <time>2021-11-22T11:48:23.540Z</time>
      </trkpt>
      <trkpt lat="47.421282" lon="7.765827">
        <ele>436.457300</ele>
        <time>2021-11-22T11:48:38.697Z</time>
      </trkpt>
      <trkpt lat="47.421552" lon="7.766115">
        <ele>435.834470</ele>
        <time>2021-11-22T11:48:42.483Z</time>
      </trkpt>
      <trkpt lat="47.422000" lon="7.766596">
        <ele>434.798710</ele>
        <time>2021-11-22T11:48:48.702Z</time>
      </trkpt>
      <trkpt lat="47.422420" lon="7.767061">
        <ele>433.759718</ele>
        <time>2021-11-22T11:48:54.458Z</time>
      </trkpt>
      <trkpt lat="47.422830" lon="7.767512">
        <ele>432.638283</ele>
        <time>2021-11-22T11:49:00.035Z</time>
      </trkpt>
      <trkpt lat="47.423119" lon="7.767830">
        <ele>431.847721</ele>
        <time>2021-11-22T11:49:03.952Z</time>
      </trkpt>
      <trkpt lat="47.423232" lon="7.767959">
        <ele>431.534428</ele>
        <time>2021-11-22T11:49:05.458Z</time>
      </trkpt>
      <trkpt lat="47.423761" lon="7.768539">
        <ele>430.084623</ele>
        <time>2021-11-22T11:49:12.558Z</time>
      </trkpt>
      <trkpt lat="47.423979" lon="7.768752">
        <ele>429.488033</ele>
        <time>2021-11-22T11:49:15.311Z</time>
      </trkpt>
      <trkpt lat="47.424097" lon="7.768835">
        <ele>429.189699</ele>
        <time>2021-11-22T11:49:16.633Z</time>
      </trkpt>
      <trkpt lat="47.424202" lon="7.768896">
        <ele>428.932140</ele>
        <time>2021-11-22T11:49:17.871Z</time>
      </trkpt>
      <trkpt lat="47.424384" lon="7.769015">
        <ele>428.477808</ele>
        <time>2021-11-22T11:49:19.937Z</time>
      </trkpt>
      <trkpt lat="47.424448" lon="7.769050">
        <ele>428.322020</ele>
        <time>2021-11-22T11:49:20.662Z</time>
      </trkpt>
      <trkpt lat="47.424599" lon="7.769145">
        <ele>427.947369</ele>
        <time>2021-11-22T11:49:22.431Z</time>
      </trkpt>
      <trkpt lat="47.424704" lon="7.769209">
        <ele>427.688080</ele>
        <time>2021-11-22T11:49:23.625Z</time>
      </trkpt>
      <trkpt lat="47.424861" lon="7.769306">
        <ele>427.299607</ele>
        <time>2021-11-22T11:49:25.511Z</time>
      </trkpt>
      <trkpt lat="47.424876" lon="7.769315">
        <ele>427.262649</ele>
        <time>2021-11-22T11:49:25.666Z</time>
      </trkpt>
      <trkpt lat="47.425140" lon="7.769501">
        <ele>426.594989</ele>
        <time>2021-11-22T11:49:28.866Z</time>
      </trkpt>
      <trkpt lat="47.425372" lon="7.769666">
        <ele>426.029582</ele>
        <time>2021-11-22T11:49:31.659Z</time>
      </trkpt>
      <trkpt lat="47.425665" lon="7.769858">
        <ele>425.482036</ele>
        <time>2021-11-22T11:49:35.293Z</time>
      </trkpt>
      <trkpt lat="47.425937" lon="7.770017">
        <ele>424.982334</ele>
        <time>2021-11-22T11:49:38.602Z</time>
      </trkpt>
      <trkpt lat="47.426137" lon="7.770135">
        <ele>424.614441</ele>
        <time>2021-11-22T11:49:41.018Z</time>
      </trkpt>
      <trkpt lat="47.426442" lon="7.770325">
        <ele>424.048996</ele>
        <time>2021-11-22T11:49:44.648Z</time>
      </trkpt>
      <trkpt lat="47.426561" lon="7.770421">
        <ele>423.817390</ele>
        <time>2021-11-22T11:49:46.177Z</time>
      </trkpt>
      <trkpt lat="47.426586" lon="7.770441">
        <ele>423.768826</ele>
        <time>2021-11-22T11:49:46.516Z</time>
      </trkpt>
      <trkpt lat="47.426821" lon="7.770734">
        <ele>423.243602</ele>
        <time>2021-11-22T11:49:50.035Z</time>
      </trkpt>
      <trkpt lat="47.426977" lon="7.770973">
        <ele>422.866731</ele>
        <time>2021-11-22T11:49:52.720Z</time>
      </trkpt>
      <trkpt lat="47.426997" lon="7.771000">
        <ele>422.822429</ele>
        <time>2021-11-22T11:49:53.010Z</time>
      </trkpt>
      <trkpt lat="47.427112" lon="7.771125">
        <ele>422.588955</ele>
        <time>2021-11-22T11:49:54.757Z</time>
      </trkpt>
      <trkpt lat="47.427175" lon="7.771179">
        <ele>422.469841</ele>
        <time>2021-11-22T11:49:55.661Z</time>
      </trkpt>
      <trkpt lat="47.427296" lon="7.771252">
        <ele>422.256084</ele>
        <time>2021-11-22T11:49:57.175Z</time>
      </trkpt>
      <trkpt lat="47.427593" lon="7.771328">
        <ele>421.763086</ele>
        <time>2021-11-22T11:50:00.851Z</time>
      </trkpt>
      <trkpt lat="47.427702" lon="7.771335">
        <ele>421.584638</ele>
        <time>2021-11-22T11:50:02.070Z</time>
      </trkpt>
      <trkpt lat="47.427740" lon="7.771340">
        <ele>421.522240</ele>
        <time>2021-11-22T11:50:02.517Z</time>
      </trkpt>
      <trkpt lat="47.427870" lon="7.771359">
        <ele>421.308575</ele>
        <time>2021-11-22T11:50:04.078Z</time>
      </trkpt>
      <trkpt lat="47.428770" lon="7.771707">
        <ele>419.659620</ele>
        <time>2021-11-22T11:50:14.252Z</time>
      </trkpt>
      <trkpt lat="47.429020" lon="7.771862">
        <ele>419.024344</ele>
        <time>2021-11-22T11:50:17.156Z</time>
      </trkpt>
      <trkpt lat="47.430283" lon="7.772555">
        <ele>415.867412</ele>
        <time>2021-11-22T11:50:31.312Z</time>
      </trkpt>
      <trkpt lat="47.431011" lon="7.772908">
        <ele>415.610051</ele>
        <time>2021-11-22T11:50:40.131Z</time>
      </trkpt>
      <trkpt lat="47.431423" lon="7.773118">
        <ele>415.464055</ele>
        <time>2021-11-22T11:50:46.276Z</time>
      </trkpt>
      <trkpt lat="47.432060" lon="7.773355">
        <ele>415.432810</ele>
        <time>2021-11-22T11:50:58.294Z</time>
      </trkpt>
      <trkpt lat="47.432741" lon="7.773429">
        <ele>417.358336</ele>
        <time>2021-11-22T11:51:15.002Z</time>
      </trkpt>
      <trkpt lat="47.433246" lon="7.773363">
        <ele>418.787935</ele>
        <time>2021-11-22T11:51:29.983Z</time>
      </trkpt>
      <trkpt lat="47.433941" lon="7.773088">
        <ele>420.722768</ele>
        <time>2021-11-22T11:51:50.922Z</time>
      </trkpt>
      <trkpt lat="47.434119" lon="7.772984">
        <ele>421.156976</ele>
        <time>2021-11-22T11:51:55.743Z</time>
      </trkpt>
      <trkpt lat="47.434141" lon="7.773072">
        <ele>421.300947</ele>
        <time>2021-11-22T11:51:58.573Z</time>
      </trkpt>
      <trkpt lat="47.434841" lon="7.772600">
        <ele>423.046364</ele>
        <time>2021-11-22T11:52:18.005Z</time>
      </trkpt>
      <trkpt lat="47.435116" lon="7.772391">
        <ele>423.747845</ele>
        <time>2021-11-22T11:52:24.991Z</time>
      </trkpt>
      <trkpt lat="47.435223" lon="7.772310">
        <ele>424.020561</ele>
        <time>2021-11-22T11:52:27.163Z</time>
      </trkpt>
      <trkpt lat="47.435758" lon="7.771905">
        <ele>423.785512</ele>
        <time>2021-11-22T11:52:37.923Z</time>
      </trkpt>
      <trkpt lat="47.437200" lon="7.770210">
        <ele>420.219783</ele>
        <time>2021-11-22T11:52:57.528Z</time>
      </trkpt>
      <trkpt lat="47.437408" lon="7.770018">
        <ele>419.418583</ele>
        <time>2021-11-22T11:52:59.949Z</time>
      </trkpt>
      <trkpt lat="47.437853" lon="7.769608">
        <ele>417.705380</ele>
        <time>2021-11-22T11:53:05.142Z</time>
      </trkpt>
      <trkpt lat="47.438768" lon="7.768399">
        <ele>414.353301</ele>
        <time>2021-11-22T11:53:17.363Z</time>
      </trkpt>
      <trkpt lat="47.439506" lon="7.767200">
        <ele>411.849559</ele>
        <time>2021-11-22T11:53:29.806Z</time>
      </trkpt>
      <trkpt lat="47.439603" lon="7.767042">
        <ele>411.663261</ele>
        <time>2021-11-22T11:53:31.419Z</time>
      </trkpt>
      <trkpt lat="47.440245" lon="7.765985">
        <ele>410.715942</ele>
        <time>2021-11-22T11:53:43.700Z</time>
      </trkpt>
      <trkpt lat="47.440724" lon="7.765190">
        <ele>410.005982</ele>
        <time>2021-11-22T11:53:52.554Z</time>
      </trkpt>
      <trkpt lat="47.441114" lon="7.764541">
        <ele>408.810729</ele>
        <time>2021-11-22T11:53:59.898Z</time>
      </trkpt>
      <trkpt lat="47.441500" lon="7.763896">
        <ele>407.617354</ele>
        <time>2021-11-22T11:54:06.574Z</time>
      </trkpt>
      <trkpt lat="47.442382" lon="7.762437">
        <ele>403.852081</ele>
        <time>2021-11-22T11:54:19.758Z</time>
      </trkpt>
      <trkpt lat="47.442389" lon="7.762334">
        <ele>403.601294</ele>
        <time>2021-11-22T11:54:20.498Z</time>
      </trkpt>
      <trkpt lat="47.442562" lon="7.762024">
        <ele>402.627625</ele>
        <time>2021-11-22T11:54:23.150Z</time>
      </trkpt>
      <trkpt lat="47.442864" lon="7.761411">
        <ele>400.790339</ele>
        <time>2021-11-22T11:54:28.601Z</time>
      </trkpt>
      <trkpt lat="47.442878" lon="7.761382">
        <ele>400.704022</ele>
        <time>2021-11-22T11:54:28.806Z</time>
      </trkpt>
      <trkpt lat="47.443049" lon="7.760704">
        <ele>398.734992</ele>
        <time>2021-11-22T11:54:33.420Z</time>
      </trkpt>
      <trkpt lat="47.443112" lon="7.760477">
        <ele>398.001014</ele>
        <time>2021-11-22T11:54:35.326Z</time>
      </trkpt>
      <trkpt lat="47.443178" lon="7.760281">
        <ele>397.346065</ele>
        <time>2021-11-22T11:54:36.623Z</time>
      </trkpt>
      <trkpt lat="47.443255" lon="7.760116">
        <ele>396.746405</ele>
        <time>2021-11-22T11:54:37.968Z</time>
      </trkpt>
      <trkpt lat="47.443311" lon="7.760032">
        <ele>396.393582</ele>
        <time>2021-11-22T11:54:39.246Z</time>
      </trkpt>
      <trkpt lat="47.443553" lon="7.759787">
        <ele>395.096378</ele>
        <time>2021-11-22T11:54:41.984Z</time>
      </trkpt>
      <trkpt lat="47.443616" lon="7.759700">
        <ele>394.715105</ele>
        <time>2021-11-22T11:54:43.087Z</time>
      </trkpt>
      <trkpt lat="47.443690" lon="7.759577">
        <ele>394.222668</ele>
        <time>2021-11-22T11:54:44.047Z</time>
      </trkpt>
      <trkpt lat="47.443867" lon="7.758907">
        <ele>392.071037</ele>
        <time>2021-11-22T11:54:48.718Z</time>
      </trkpt>
      <trkpt lat="47.444252" lon="7.758365">
        <ele>389.970871</ele>
        <time>2021-11-22T11:54:53.970Z</time>
      </trkpt>
      <trkpt lat="47.444749" lon="7.757695">
        <ele>387.336242</ele>
        <time>2021-11-22T11:55:00.341Z</time>
      </trkpt>
      <trkpt lat="47.444843" lon="7.757585">
        <ele>386.866646</ele>
        <time>2021-11-22T11:55:01.527Z</time>
      </trkpt>
      <trkpt lat="47.445278" lon="7.757084">
        <ele>384.851702</ele>
        <time>2021-11-22T11:55:07.095Z</time>
      </trkpt>
      <trkpt lat="47.445339" lon="7.757015">
        <ele>384.818000</ele>
        <time>2021-11-22T11:55:07.901Z</time>
      </trkpt>
      <trkpt lat="47.445858" lon="7.756435">
        <ele>384.532530</ele>
        <time>2021-11-22T11:55:15.299Z</time>
      </trkpt>
      <trkpt lat="47.446148" lon="7.756104">
        <ele>384.371774</ele>
        <time>2021-11-22T11:55:20.900Z</time>
      </trkpt>
      <trkpt lat="47.446380" lon="7.755845">
        <ele>384.244213</ele>
        <time>2021-11-22T11:55:26.149Z</time>
      </trkpt>
      <trkpt lat="47.446908" lon="7.755161">
        <ele>384.742184</ele>
        <time>2021-11-22T11:55:40.761Z</time>
      </trkpt>
      <trkpt lat="47.447682" lon="7.753856">
        <ele>387.099256</ele>
        <time>2021-11-22T11:56:08.997Z</time>
      </trkpt>
      <trkpt lat="47.448053" lon="7.753318">
        <ele>387.784799</ele>
        <time>2021-11-22T11:56:21.162Z</time>
      </trkpt>
      <trkpt lat="47.448903" lon="7.752305">
        <ele>388.234792</ele>
        <time>2021-11-22T11:56:42.912Z</time>
      </trkpt>
      <trkpt lat="47.450098" lon="7.751078">
        <ele>384.933529</ele>
        <time>2021-11-22T11:56:58.619Z</time>
      </trkpt>
      <trkpt lat="47.450300" lon="7.750889">
        <ele>384.072845</ele>
        <time>2021-11-22T11:57:00.889Z</time>
      </trkpt>
      <trkpt lat="47.450534" lon="7.750678">
        <ele>383.086018</ele>
        <time>2021-11-22T11:57:03.447Z</time>
      </trkpt>
      <trkpt lat="47.450829" lon="7.750425">
        <ele>381.808867</ele>
        <time>2021-11-22T11:57:06.601Z</time>
      </trkpt>
      <trkpt lat="47.451102" lon="7.750197">
        <ele>380.120415</ele>
        <time>2021-11-22T11:57:09.506Z</time>
      </trkpt>
      <trkpt lat="47.451310" lon="7.750030">
        <ele>378.845822</ele>
        <time>2021-11-22T11:57:11.689Z</time>
      </trkpt>
      <trkpt lat="47.451732" lon="7.749739">
        <ele>376.338285</ele>
        <time>2021-11-22T11:57:15.923Z</time>
      </trkpt>
      <trkpt lat="47.452067" lon="7.749491">
        <ele>374.320775</ele>
        <time>2021-11-22T11:57:19.407Z</time>
      </trkpt>
      <trkpt lat="47.452651" lon="7.749069">
        <ele>371.619267</ele>
        <time>2021-11-22T11:57:25.675Z</time>
      </trkpt>
      <trkpt lat="47.452785" lon="7.748985">
        <ele>371.267059</ele>
        <time>2021-11-22T11:57:27.079Z</time>
      </trkpt>
      <trkpt lat="47.453184" lon="7.748733">
        <ele>370.217117</ele>
        <time>2021-11-22T11:57:31.577Z</time>
      </trkpt>
      <trkpt lat="47.455618" lon="7.747172">
        <ele>365.759161</ele>
        <time>2021-11-22T11:58:03.095Z</time>
      </trkpt>
      <trkpt lat="47.456072" lon="7.746683">
        <ele>364.807878</ele>
        <time>2021-11-22T11:58:09.715Z</time>
      </trkpt>
      <trkpt lat="47.457103" lon="7.745266">
        <ele>362.383354</ele>
        <time>2021-11-22T11:58:25.089Z</time>
      </trkpt>
      <trkpt lat="47.457302" lon="7.744993">
        <ele>362.197158</ele>
        <time>2021-11-22T11:58:28.067Z</time>
      </trkpt>
      <trkpt lat="47.457850" lon="7.744234">
        <ele>361.682138</ele>
        <time>2021-11-22T11:58:37.194Z</time>
      </trkpt>
      <trkpt lat="47.458097" lon="7.743895">
        <ele>361.450985</ele>
        <time>2021-11-22T11:58:42.717Z</time>
      </trkpt>
      <trkpt lat="47.458209" lon="7.743781">
        <ele>361.357719</ele>
        <time>2021-11-22T11:58:45.121Z</time>
      </trkpt>
      <trkpt lat="47.458441" lon="7.743496">
        <ele>361.216018</ele>
        <time>2021-11-22T11:58:49.578Z</time>
      </trkpt>
      <trkpt lat="47.458615" lon="7.743258">
        <ele>361.264885</ele>
        <time>2021-11-22T11:58:53.938Z</time>
      </trkpt>
      <trkpt lat="47.458936" lon="7.742817">
        <ele>361.355219</ele>
        <time>2021-11-22T11:59:01.821Z</time>
      </trkpt>
      <trkpt lat="47.459046" lon="7.742666">
        <ele>361.386163</ele>
        <time>2021-11-22T11:59:04.454Z</time>
      </trkpt>
      <trkpt lat="47.459076" lon="7.742623">
        <ele>361.394777</ele>
        <time>2021-11-22T11:59:05.059Z</time>
      </trkpt>
      <trkpt lat="47.459181" lon="7.742476">
        <ele>361.424587</ele>
        <time>2021-11-22T11:59:07.521Z</time>
      </trkpt>
      <trkpt lat="47.459214" lon="7.742435">
        <ele>361.433473</ele>
        <time>2021-11-22T11:59:08.087Z</time>
      </trkpt>
      <trkpt lat="47.459352" lon="7.742262">
        <ele>361.470773</ele>
        <time>2021-11-22T11:59:11.058Z</time>
      </trkpt>
      <trkpt lat="47.459421" lon="7.742151">
        <ele>361.491793</ele>
        <time>2021-11-22T11:59:12.714Z</time>
      </trkpt>
      <trkpt lat="47.459496" lon="7.742033">
        <ele>361.514371</ele>
        <time>2021-11-22T11:59:14.132Z</time>
      </trkpt>
      <trkpt lat="47.459941" lon="7.741395">
        <ele>361.149991</ele>
        <time>2021-11-22T11:59:22.398Z</time>
      </trkpt>
      <trkpt lat="47.459971" lon="7.741305">
        <ele>361.066111</ele>
        <time>2021-11-22T11:59:23.217Z</time>
      </trkpt>
      <trkpt lat="47.460198" lon="7.741001">
        <ele>360.687497</ele>
        <time>2021-11-22T11:59:26.870Z</time>
      </trkpt>
      <trkpt lat="47.460849" lon="7.740105">
        <ele>359.588030</ele>
        <time>2021-11-22T11:59:36.951Z</time>
      </trkpt>
      <trkpt lat="47.460986" lon="7.739937">
        <ele>359.368000</ele>
        <time>2021-11-22T11:59:38.911Z</time>
      </trkpt>
      <trkpt lat="47.461070" lon="7.739839">
        <ele>359.230790</ele>
        <time>2021-11-22T11:59:40.255Z</time>
      </trkpt>
      <trkpt lat="47.461511" lon="7.739436">
        <ele>358.561703</ele>
        <time>2021-11-22T11:59:46.170Z</time>
      </trkpt>
      <trkpt lat="47.461764" lon="7.739271">
        <ele>358.204814</ele>
        <time>2021-11-22T11:59:49.538Z</time>
      </trkpt>
      <trkpt lat="47.462058" lon="7.739121">
        <ele>357.803399</ele>
        <time>2021-11-22T11:59:53.224Z</time>
      </trkpt>
      <trkpt lat="47.462257" lon="7.739044">
        <ele>357.537901</ele>
        <time>2021-11-22T11:59:55.589Z</time>
      </trkpt>
      <trkpt lat="47.462428" lon="7.738996">
        <ele>357.313247</ele>
        <time>2021-11-22T11:59:57.832Z</time>
      </trkpt>
      <trkpt lat="47.462754" lon="7.738927">
        <ele>356.884641</ele>
        <time>2021-11-22T12:00:01.929Z</time>
      </trkpt>
      <trkpt lat="47.464246" lon="7.738800">
        <ele>354.906249</ele>
        <time>2021-11-22T12:00:19.356Z</time>
      </trkpt>
      <trkpt lat="47.464525" lon="7.738789">
        <ele>354.515743</ele>
        <time>2021-11-22T12:00:22.617Z</time>
      </trkpt>
      <trkpt lat="47.464818" lon="7.738771">
        <ele>354.052342</ele>
        <time>2021-11-22T12:00:26.023Z</time>
      </trkpt>
      <trkpt lat="47.465111" lon="7.738724">
        <ele>353.586627</ele>
        <time>2021-11-22T12:00:29.473Z</time>
      </trkpt>
      <trkpt lat="47.465278" lon="7.738667">
        <ele>353.315798</ele>
        <time>2021-11-22T12:00:31.440Z</time>
      </trkpt>
      <trkpt lat="47.466017" lon="7.738617">
        <ele>352.146803</ele>
        <time>2021-11-22T12:00:39.868Z</time>
      </trkpt>
      <trkpt lat="47.466070" lon="7.738615">
        <ele>352.063024</ele>
        <time>2021-11-22T12:00:40.467Z</time>
      </trkpt>
      <trkpt lat="47.466320" lon="7.738600">
        <ele>351.623017</ele>
        <time>2021-11-22T12:00:43.207Z</time>
      </trkpt>
      <trkpt lat="47.467080" lon="7.738726">
        <ele>350.016460</ele>
        <time>2021-11-22T12:00:51.582Z</time>
      </trkpt>
      <trkpt lat="47.467174" lon="7.738757">
        <ele>349.814142</ele>
        <time>2021-11-22T12:00:52.623Z</time>
      </trkpt>
      <trkpt lat="47.467405" lon="7.738857">
        <ele>349.308519</ele>
        <time>2021-11-22T12:00:55.216Z</time>
      </trkpt>
      <trkpt lat="47.467978" lon="7.739203">
        <ele>348.007498</ele>
        <time>2021-11-22T12:01:01.859Z</time>
      </trkpt>
      <trkpt lat="47.470256" lon="7.740990">
        <ele>342.806045</ele>
        <time>2021-11-22T12:01:29.732Z</time>
      </trkpt>
      <trkpt lat="47.470851" lon="7.741453">
        <ele>341.749683</ele>
        <time>2021-11-22T12:01:37.478Z</time>
      </trkpt>
      <trkpt lat="47.472097" lon="7.742408">
        <ele>340.762546</ele>
        <time>2021-11-22T12:01:55.974Z</time>
      </trkpt>
      <trkpt lat="47.472647" lon="7.742849">
        <ele>340.495254</ele>
        <time>2021-11-22T12:02:04.970Z</time>
      </trkpt>
      <trkpt lat="47.472975" lon="7.743113">
        <ele>340.216921</ele>
        <time>2021-11-22T12:02:10.271Z</time>
      </trkpt>
      <trkpt lat="47.473017" lon="7.743146">
        <ele>340.175273</ele>
        <time>2021-11-22T12:02:10.956Z</time>
      </trkpt>
      <trkpt lat="47.473167" lon="7.743264">
        <ele>340.026492</ele>
        <time>2021-11-22T12:02:13.383Z</time>
      </trkpt>
      <trkpt lat="47.473525" lon="7.743542">
        <ele>339.672404</ele>
        <time>2021-11-22T12:02:18.562Z</time>
      </trkpt>
      <trkpt lat="47.473623" lon="7.743618">
        <ele>339.575502</ele>
        <time>2021-11-22T12:02:19.997Z</time>
      </trkpt>
      <trkpt lat="47.474415" lon="7.744233">
        <ele>338.648042</ele>
        <time>2021-11-22T12:02:30.484Z</time>
      </trkpt>
      <trkpt lat="47.474802" lon="7.744534">
        <ele>337.588302</ele>
        <time>2021-11-22T12:02:35.242Z</time>
      </trkpt>
      <trkpt lat="47.474825" lon="7.744552">
        <ele>337.525235</ele>
        <time>2021-11-22T12:02:35.535Z</time>
      </trkpt>
      <trkpt lat="47.474911" lon="7.744614">
        <ele>337.293356</ele>
        <time>2021-11-22T12:02:36.666Z</time>
      </trkpt>
      <trkpt lat="47.475040" lon="7.744695">
        <ele>336.953690</ele>
        <time>2021-11-22T12:02:38.132Z</time>
      </trkpt>
      <trkpt lat="47.475240" lon="7.744800">
        <ele>336.439311</ele>
        <time>2021-11-22T12:02:40.427Z</time>
      </trkpt>
      <trkpt lat="47.475301" lon="7.744824">
        <ele>336.286320</ele>
        <time>2021-11-22T12:02:41.075Z</time>
      </trkpt>
      <trkpt lat="47.475512" lon="7.744926">
        <ele>335.748287</ele>
        <time>2021-11-22T12:02:43.359Z</time>
      </trkpt>
      <trkpt lat="47.476298" lon="7.745084">
        <ele>333.610204</ele>
        <time>2021-11-22T12:02:51.477Z</time>
      </trkpt>
      <trkpt lat="47.476587" lon="7.745147">
        <ele>332.680566</ele>
        <time>2021-11-22T12:02:54.404Z</time>
      </trkpt>
      <trkpt lat="47.476791" lon="7.745201">
        <ele>332.021052</ele>
        <time>2021-11-22T12:02:56.489Z</time>
      </trkpt>
      <trkpt lat="47.476839" lon="7.745235">
        <ele>331.851694</ele>
        <time>2021-11-22T12:02:57.020Z</time>
      </trkpt>
      <trkpt lat="47.477022" lon="7.745305">
        <ele>331.250169</ele>
        <time>2021-11-22T12:02:58.982Z</time>
      </trkpt>
      <trkpt lat="47.477122" lon="7.745341">
        <ele>330.922646</ele>
        <time>2021-11-22T12:03:00.006Z</time>
      </trkpt>
      <trkpt lat="47.477525" lon="7.745516">
        <ele>329.586050</ele>
        <time>2021-11-22T12:03:04.284Z</time>
      </trkpt>
      <trkpt lat="47.477688" lon="7.745598">
        <ele>329.038157</ele>
        <time>2021-11-22T12:03:06.052Z</time>
      </trkpt>
      <trkpt lat="47.477739" lon="7.745618">
        <ele>328.870251</ele>
        <time>2021-11-22T12:03:06.576Z</time>
      </trkpt>
      <trkpt lat="47.477786" lon="7.745592">
        <ele>328.730690</ele>
        <time>2021-11-22T12:03:07.060Z</time>
      </trkpt>
      <trkpt lat="47.477825" lon="7.745563">
        <ele>328.626907</ele>
        <time>2021-11-22T12:03:07.485Z</time>
      </trkpt>
      <trkpt lat="47.477880" lon="7.745253">
        <ele>328.111850</ele>
        <time>2021-11-22T12:03:09.686Z</time>
      </trkpt>
      <trkpt lat="47.477896" lon="7.745170">
        <ele>327.973147</ele>
        <time>2021-11-22T12:03:10.268Z</time>
      </trkpt>
      <trkpt lat="47.477909" lon="7.745102">
        <ele>327.859582</ele>
        <time>2021-11-22T12:03:10.740Z</time>
      </trkpt>
      <trkpt lat="47.478002" lon="7.744565">
        <ele>326.968729</ele>
        <time>2021-11-22T12:03:14.605Z</time>
      </trkpt>
      <trkpt lat="47.478055" lon="7.744302">
        <ele>326.527694</ele>
        <time>2021-11-22T12:03:16.633Z</time>
      </trkpt>
      <trkpt lat="47.478062" lon="7.744180">
        <ele>326.330932</ele>
        <time>2021-11-22T12:03:17.515Z</time>
      </trkpt>
      <trkpt lat="47.478089" lon="7.744093">
        <ele>326.177086</ele>
        <time>2021-11-22T12:03:18.234Z</time>
      </trkpt>
      <trkpt lat="47.478130" lon="7.743970">
        <ele>325.956690</ele>
        <time>2021-11-22T12:03:19.260Z</time>
      </trkpt>
      <trkpt lat="47.478238" lon="7.743706">
        <ele>325.460774</ele>
        <time>2021-11-22T12:03:21.508Z</time>
      </trkpt>
      <trkpt lat="47.478402" lon="7.743393">
        <ele>324.824331</ele>
        <time>2021-11-22T12:03:24.530Z</time>
      </trkpt>
      <trkpt lat="47.478481" lon="7.743277">
        <ele>324.559693</ele>
        <time>2021-11-22T12:03:25.794Z</time>
      </trkpt>
      <trkpt lat="47.478673" lon="7.743018">
        <ele>324.278500</ele>
        <time>2021-11-22T12:03:28.856Z</time>
      </trkpt>
      <trkpt lat="47.478747" lon="7.742916">
        <ele>324.179628</ele>
        <time>2021-11-22T12:03:30.031Z</time>
      </trkpt>
      <trkpt lat="47.478848" lon="7.742778">
        <ele>324.045229</ele>
        <time>2021-11-22T12:03:31.692Z</time>
      </trkpt>
      <trkpt lat="47.478895" lon="7.742714">
        <ele>323.982785</ele>
        <time>2021-11-22T12:03:32.458Z</time>
      </trkpt>
      <trkpt lat="47.478949" lon="7.742644">
        <ele>323.912599</ele>
        <time>2021-11-22T12:03:33.349Z</time>
      </trkpt>
      <trkpt lat="47.479105" lon="7.742414">
        <ele>323.697304</ele>
        <time>2021-11-22T12:03:36.132Z</time>
      </trkpt>
      <trkpt lat="47.479130" lon="7.742380">
        <ele>323.664108</ele>
        <time>2021-11-22T12:03:36.529Z</time>
      </trkpt>
      <trkpt lat="47.479629" lon="7.741696">
        <ele>322.999113</ele>
        <time>2021-11-22T12:03:45.677Z</time>
      </trkpt>
      <trkpt lat="47.479843" lon="7.741440">
        <ele>322.715611</ele>
        <time>2021-11-22T12:03:49.020Z</time>
      </trkpt>
      <trkpt lat="47.479963" lon="7.741350">
        <ele>322.508152</ele>
        <time>2021-11-22T12:03:50.704Z</time>
      </trkpt>
      <trkpt lat="47.480104" lon="7.741241">
        <ele>322.262837</ele>
        <time>2021-11-22T12:03:52.550Z</time>
      </trkpt>
      <trkpt lat="47.480294" lon="7.741119">
        <ele>321.943451</ele>
        <time>2021-11-22T12:03:55.042Z</time>
      </trkpt>
      <trkpt lat="47.480539" lon="7.740961">
        <ele>321.531327</ele>
        <time>2021-11-22T12:03:58.127Z</time>
      </trkpt>
      <trkpt lat="47.480591" lon="7.740959">
        <ele>321.451114</ele>
        <time>2021-11-22T12:03:58.922Z</time>
      </trkpt>
      <trkpt lat="47.480648" lon="7.741012">
        <ele>321.347304</ele>
        <time>2021-11-22T12:03:59.588Z</time>
      </trkpt>
      <trkpt lat="47.481177" lon="7.741735">
        <ele>320.236824</ele>
        <time>2021-11-22T12:04:07.528Z</time>
      </trkpt>
      <trkpt lat="47.481605" lon="7.742324">
        <ele>319.394259</ele>
        <time>2021-11-22T12:04:14.149Z</time>
      </trkpt>
      <trkpt lat="47.481698" lon="7.742446">
        <ele>319.220034</ele>
        <time>2021-11-22T12:04:15.467Z</time>
      </trkpt>
      <trkpt lat="47.481898" lon="7.742719">
        <ele>318.838598</ele>
        <time>2021-11-22T12:04:18.648Z</time>
      </trkpt>
      <trkpt lat="47.481963" lon="7.742814">
        <ele>318.710526</ele>
        <time>2021-11-22T12:04:19.650Z</time>
      </trkpt>
      <trkpt lat="47.482182" lon="7.743222">
        <ele>318.216919</ele>
        <time>2021-11-22T12:04:23.828Z</time>
      </trkpt>
      <trkpt lat="47.482351" lon="7.743039">
        <ele>317.923354</ele>
        <time>2021-11-22T12:04:26.468Z</time>
      </trkpt>
      <trkpt lat="47.482599" lon="7.742771">
        <ele>317.492866</ele>
        <time>2021-11-22T12:04:30.143Z</time>
      </trkpt>
      <trkpt lat="47.482889" lon="7.742461">
        <ele>317.203483</ele>
        <time>2021-11-22T12:04:34.584Z</time>
      </trkpt>
      <trkpt lat="47.482927" lon="7.742421">
        <ele>317.167687</ele>
        <time>2021-11-22T12:04:35.285Z</time>
      </trkpt>
      <trkpt lat="47.483275" lon="7.742050">
        <ele>316.838449</ele>
        <time>2021-11-22T12:04:40.581Z</time>
      </trkpt>
      <trkpt lat="47.483828" lon="7.741475">
        <ele>316.319642</ele>
        <time>2021-11-22T12:04:49.406Z</time>
      </trkpt>
      <trkpt lat="47.483946" lon="7.741362">
        <ele>316.211751</ele>
        <time>2021-11-22T12:04:51.163Z</time>
      </trkpt>
      <trkpt lat="47.484154" lon="7.741142">
        <ele>316.067430</ele>
        <time>2021-11-22T12:04:54.392Z</time>
      </trkpt>
      <trkpt lat="47.484268" lon="7.741010">
        <ele>316.046367</ele>
        <time>2021-11-22T12:04:56.148Z</time>
      </trkpt>
      <trkpt lat="47.484365" lon="7.740878">
        <ele>316.027191</ele>
        <time>2021-11-22T12:04:57.726Z</time>
      </trkpt>
      <trkpt lat="47.484807" lon="7.739866">
        <ele>315.908702</ele>
        <time>2021-11-22T12:05:09.567Z</time>
      </trkpt>
      <trkpt lat="47.484997" lon="7.738871">
        <ele>315.770111</ele>
        <time>2021-11-22T12:05:21.139Z</time>
      </trkpt>
      <trkpt lat="47.485014" lon="7.738715">
        <ele>315.701593</ele>
        <time>2021-11-22T12:05:22.669Z</time>
      </trkpt>
      <trkpt lat="47.485032" lon="7.738535">
        <ele>315.622692</ele>
        <time>2021-11-22T12:05:24.626Z</time>
      </trkpt>
      <trkpt lat="47.485045" lon="7.738427">
        <ele>315.575125</ele>
        <time>2021-11-22T12:05:25.507Z</time>
      </trkpt>
      <trkpt lat="47.485067" lon="7.738278">
        <ele>315.508992</ele>
        <time>2021-11-22T12:05:26.953Z</time>
      </trkpt>
      <trkpt lat="47.485088" lon="7.738190">
        <ele>315.468524</ele>
        <time>2021-11-22T12:05:27.703Z</time>
      </trkpt>
      <trkpt lat="47.485121" lon="7.738124">
        <ele>315.432924</ele>
        <time>2021-11-22T12:05:28.702Z</time>
      </trkpt>
      <trkpt lat="47.485202" lon="7.737978">
        <ele>315.351014</ele>
        <time>2021-11-22T12:05:30.279Z</time>
      </trkpt>
      <trkpt lat="47.485384" lon="7.737678">
        <ele>315.176202</ele>
        <time>2021-11-22T12:05:33.663Z</time>
      </trkpt>
      <trkpt lat="47.485415" lon="7.737626">
        <ele>315.146134</ele>
        <time>2021-11-22T12:05:34.231Z</time>
      </trkpt>
      <trkpt lat="47.485631" lon="7.737265">
        <ele>314.937060</ele>
        <time>2021-11-22T12:05:38.139Z</time>
      </trkpt>
      <trkpt lat="47.485696" lon="7.737158">
        <ele>314.874673</ele>
        <time>2021-11-22T12:05:39.335Z</time>
      </trkpt>
      <trkpt lat="47.485750" lon="7.737070">
        <ele>314.823131</ele>
        <time>2021-11-22T12:05:40.338Z</time>
      </trkpt>
      <trkpt lat="47.485806" lon="7.737111">
        <ele>314.783041</ele>
        <time>2021-11-22T12:05:41.040Z</time>
      </trkpt>
      <trkpt lat="47.485875" lon="7.737156">
        <ele>314.734658</ele>
        <time>2021-11-22T12:05:42.336Z</time>
      </trkpt>
      <trkpt lat="47.485976" lon="7.737217">
        <ele>314.664662</ele>
        <time>2021-11-22T12:05:43.659Z</time>
      </trkpt>
      <trkpt lat="47.486087" lon="7.737329">
        <ele>314.587135</ele>
        <time>2021-11-22T12:05:45.292Z</time>
      </trkpt>
      <trkpt lat="47.486287" lon="7.737642">
        <ele>314.419353</ele>
        <time>2021-11-22T12:05:48.889Z</time>
      </trkpt>
      <trkpt lat="47.486314" lon="7.737686">
        <ele>314.396204</ele>
        <time>2021-11-22T12:05:49.300Z</time>
      </trkpt>
      <trkpt lat="47.486354" lon="7.737753">
        <ele>314.361382</ele>
        <time>2021-11-22T12:05:49.939Z</time>
      </trkpt>
      <trkpt lat="47.486384" lon="7.737805">
        <ele>314.334752</ele>
        <time>2021-11-22T12:05:50.666Z</time>
      </trkpt>
      <trkpt lat="47.486495" lon="7.737981">
        <ele>314.240984</ele>
        <time>2021-11-22T12:05:53.108Z</time>
      </trkpt>
      <trkpt lat="47.486621" lon="7.738169">
        <ele>314.137853</ele>
        <time>2021-11-22T12:05:55.127Z</time>
      </trkpt>
      <trkpt lat="47.486676" lon="7.738293">
        <ele>314.080082</ele>
        <time>2021-11-22T12:05:57.069Z</time>
      </trkpt>
      <trkpt lat="47.486689" lon="7.738358">
        <ele>314.053680</ele>
        <time>2021-11-22T12:05:57.587Z</time>
      </trkpt>
      <trkpt lat="47.486827" lon="7.738319">
        <ele>313.972703</ele>
        <time>2021-11-22T12:05:59.217Z</time>
      </trkpt>
      <trkpt lat="47.487288" lon="7.738117">
        <ele>313.695591</ele>
        <time>2021-11-22T12:06:05.704Z</time>
      </trkpt>
      <trkpt lat="47.487552" lon="7.737858">
        <ele>313.631966</ele>
        <time>2021-11-22T12:06:10.640Z</time>
      </trkpt>
      <trkpt lat="47.487621" lon="7.737779">
        <ele>313.634128</ele>
        <time>2021-11-22T12:06:12.638Z</time>
      </trkpt>
      <trkpt lat="47.487864" lon="7.737500">
        <ele>313.641749</ele>
        <time>2021-11-22T12:06:17.973Z</time>
      </trkpt>
      <trkpt lat="47.488046" lon="7.737266">
        <ele>313.647723</ele>
        <time>2021-11-22T12:06:22.482Z</time>
      </trkpt>
      <trkpt lat="47.488606" lon="7.735964">
        <ele>313.555761</ele>
        <time>2021-11-22T12:06:37.484Z</time>
      </trkpt>
      <trkpt lat="47.488804" lon="7.735382">
        <ele>312.901867</ele>
        <time>2021-11-22T12:06:42.642Z</time>
      </trkpt>
      <trkpt lat="47.488949" lon="7.734979">
        <ele>312.443692</ele>
        <time>2021-11-22T12:06:46.207Z</time>
      </trkpt>
      <trkpt lat="47.489032" lon="7.734791">
        <ele>312.218334</ele>
        <time>2021-11-22T12:06:47.884Z</time>
      </trkpt>
      <trkpt lat="47.489918" lon="7.732395">
        <ele>309.254471</ele>
        <time>2021-11-22T12:07:08.287Z</time>
      </trkpt>
      <trkpt lat="47.489972" lon="7.732312">
        <ele>309.121922</ele>
        <time>2021-11-22T12:07:09.102Z</time>
      </trkpt>
      <trkpt lat="47.491123" lon="7.730521">
        <ele>306.723044</ele>
        <time>2021-11-22T12:07:28.791Z</time>
      </trkpt>
      <trkpt lat="47.491189" lon="7.730425">
        <ele>306.607690</ele>
        <time>2021-11-22T12:07:29.947Z</time>
      </trkpt>
      <trkpt lat="47.491229" lon="7.730369">
        <ele>306.539055</ele>
        <time>2021-11-22T12:07:30.635Z</time>
      </trkpt>
      <trkpt lat="47.491274" lon="7.730304">
        <ele>306.460672</ele>
        <time>2021-11-22T12:07:31.422Z</time>
      </trkpt>
      <trkpt lat="47.491352" lon="7.730195">
        <ele>306.326948</ele>
        <time>2021-11-22T12:07:32.647Z</time>
      </trkpt>
      <trkpt lat="47.491749" lon="7.729641">
        <ele>305.651578</ele>
        <time>2021-11-22T12:07:39.204Z</time>
      </trkpt>
      <trkpt lat="47.491764" lon="7.729620">
        <ele>305.628336</ele>
        <time>2021-11-22T12:07:39.396Z</time>
      </trkpt>
      <trkpt lat="47.492018" lon="7.729265">
        <ele>305.235070</ele>
        <time>2021-11-22T12:07:43.588Z</time>
      </trkpt>
      <trkpt lat="47.492160" lon="7.729079">
        <ele>305.021611</ele>
        <time>2021-11-22T12:07:45.762Z</time>
      </trkpt>
      <trkpt lat="47.492253" lon="7.728955">
        <ele>304.880705</ele>
        <time>2021-11-22T12:07:47.303Z</time>
      </trkpt>
      <trkpt lat="47.492640" lon="7.728394">
        <ele>304.270915</ele>
        <time>2021-11-22T12:07:53.804Z</time>
      </trkpt>
      <trkpt lat="47.493051" lon="7.727844">
        <ele>303.660122</ele>
        <time>2021-11-22T12:08:00.549Z</time>
      </trkpt>
      <trkpt lat="47.493304" lon="7.727627">
        <ele>303.505434</ele>
        <time>2021-11-22T12:08:04.121Z</time>
      </trkpt>
      <trkpt lat="47.493736" lon="7.727441">
        <ele>303.267433</ele>
        <time>2021-11-22T12:08:09.917Z</time>
      </trkpt>
      <trkpt lat="47.493928" lon="7.727382">
        <ele>303.163699</ele>
        <time>2021-11-22T12:08:12.496Z</time>
      </trkpt>
      <trkpt lat="47.495388" lon="7.727405">
        <ele>302.408412</ele>
        <time>2021-11-22T12:08:33.055Z</time>
      </trkpt>
      <trkpt lat="47.495736" lon="7.727409">
        <ele>302.233887</ele>
        <time>2021-11-22T12:08:37.661Z</time>
      </trkpt>
      <trkpt lat="47.495777" lon="7.727410">
        <ele>302.213323</ele>
        <time>2021-11-22T12:08:38.213Z</time>
      </trkpt>
      <trkpt lat="47.495921" lon="7.727411">
        <ele>302.141107</ele>
        <time>2021-11-22T12:08:40.028Z</time>
      </trkpt>
      <trkpt lat="47.496039" lon="7.727411">
        <ele>302.081930</ele>
        <time>2021-11-22T12:08:41.596Z</time>
      </trkpt>
      <trkpt lat="47.496162" lon="7.727414">
        <ele>302.020238</ele>
        <time>2021-11-22T12:08:43.186Z</time>
      </trkpt>
      <trkpt lat="47.496367" lon="7.727420">
        <ele>301.917412</ele>
        <time>2021-11-22T12:08:45.775Z</time>
      </trkpt>
      <trkpt lat="47.496689" lon="7.727441">
        <ele>301.739009</ele>
        <time>2021-11-22T12:08:49.816Z</time>
      </trkpt>
      <trkpt lat="47.498171" lon="7.727736">
        <ele>300.787397</ele>
        <time>2021-11-22T12:09:08.945Z</time>
      </trkpt>
      <trkpt lat="47.499222" lon="7.727694">
        <ele>300.285241</ele>
        <time>2021-11-22T12:09:23.307Z</time>
      </trkpt>
      <trkpt lat="47.500808" lon="7.727366">
        <ele>298.909378</ele>
        <time>2021-11-22T12:09:44.794Z</time>
      </trkpt>
      <trkpt lat="47.501683" lon="7.727114">
        <ele>297.637039</ele>
        <time>2021-11-22T12:09:54.527Z</time>
      </trkpt>
      <trkpt lat="47.502070" lon="7.727002">
        <ele>297.079349</ele>
        <time>2021-11-22T12:09:58.830Z</time>
      </trkpt>
      <trkpt lat="47.502089" lon="7.726997">
        <ele>297.052417</ele>
        <time>2021-11-22T12:09:59.054Z</time>
      </trkpt>
      <trkpt lat="47.502204" lon="7.726964">
        <ele>296.888934</ele>
        <time>2021-11-22T12:10:00.368Z</time>
      </trkpt>
      <trkpt lat="47.502204" lon="7.726964">
        <ele>296.888934</ele>
        <time>2021-11-22T12:10:00.579Z</time>
      </trkpt>
      <trkpt lat="47.502204" lon="7.726964">
        <ele>296.888934</ele>
        <time>2021-11-22T12:10:00.660Z</time>
      </trkpt>
      <trkpt lat="47.502189" lon="7.726824">
        <ele>296.755290</ele>
        <time>2021-11-22T12:10:01.638Z</time>
      </trkpt>
      <trkpt lat="47.502177" lon="7.726706">
        <ele>296.642784</ele>
        <time>2021-11-22T12:10:02.622Z</time>
      </trkpt>
      <trkpt lat="47.502122" lon="7.726303">
        <ele>296.255153</ele>
        <time>2021-11-22T12:10:05.664Z</time>
      </trkpt>
      <trkpt lat="47.502115" lon="7.726246">
        <ele>296.200531</ele>
        <time>2021-11-22T12:10:06.336Z</time>
      </trkpt>
      <trkpt lat="47.502048" lon="7.725782">
        <ele>295.753182</ele>
        <time>2021-11-22T12:10:09.938Z</time>
      </trkpt>
      <trkpt lat="47.502031" lon="7.725427">
        <ele>295.417641</ele>
        <time>2021-11-22T12:10:12.994Z</time>
      </trkpt>
      <trkpt lat="47.502031" lon="7.725298">
        <ele>295.296017</ele>
        <time>2021-11-22T12:10:13.949Z</time>
      </trkpt>
      <trkpt lat="47.502029" lon="7.725074">
        <ele>295.084806</ele>
        <time>2021-11-22T12:10:15.870Z</time>
      </trkpt>
      <trkpt lat="47.502040" lon="7.724902">
        <ele>294.921916</ele>
        <time>2021-11-22T12:10:17.472Z</time>
      </trkpt>
      <trkpt lat="47.502055" lon="7.724669">
        <ele>294.789732</ele>
        <time>2021-11-22T12:10:19.384Z</time>
      </trkpt>
      <trkpt lat="47.502172" lon="7.724685">
        <ele>294.779612</ele>
        <time>2021-11-22T12:10:21.475Z</time>
      </trkpt>
      <trkpt lat="47.502179" lon="7.724686">
        <ele>294.779006</ele>
        <time>2021-11-22T12:10:21.609Z</time>
      </trkpt>
      <trkpt lat="47.502205" lon="7.724690">
        <ele>294.776754</ele>
        <time>2021-11-22T12:10:22.082Z</time>
      </trkpt>
      <trkpt lat="47.502283" lon="7.724703">
        <ele>294.769994</ele>
        <time>2021-11-22T12:10:23.595Z</time>
      </trkpt>
      <trkpt lat="47.502584" lon="7.724671">
        <ele>294.744001</ele>
        <time>2021-11-22T12:10:30.154Z</time>
      </trkpt>
      <trkpt lat="47.502584" lon="7.724671">
        <ele>294.744001</ele>
        <time>2021-11-22T12:10:30.185Z</time>
      </trkpt>
      <trkpt lat="47.502794" lon="7.724635">
        <ele>294.725792</ele>
        <time>2021-11-22T12:10:34.905Z</time>
      </trkpt>
      <trkpt lat="47.503201" lon="7.724541">
        <ele>294.690311</ele>
        <time>2021-11-22T12:10:44.384Z</time>
      </trkpt>
      <trkpt lat="47.503333" lon="7.724502">
        <ele>294.678717</ele>
        <time>2021-11-22T12:10:47.333Z</time>
      </trkpt>
      <trkpt lat="47.503457" lon="7.724469">
        <ele>294.667866</ele>
        <time>2021-11-22T12:10:49.906Z</time>
      </trkpt>
      <trkpt lat="47.503494" lon="7.724462">
        <ele>294.664653</ele>
        <time>2021-11-22T12:10:50.702Z</time>
      </trkpt>
      <trkpt lat="47.503945" lon="7.724377">
        <ele>294.368737</ele>
        <time>2021-11-22T12:10:58.947Z</time>
      </trkpt>
      <trkpt lat="47.504048" lon="7.724357">
        <ele>294.208010</ele>
        <time>2021-11-22T12:11:00.689Z</time>
      </trkpt>
      <trkpt lat="47.504396" lon="7.724291">
        <ele>293.665184</ele>
        <time>2021-11-22T12:11:06.578Z</time>
      </trkpt>
      <trkpt lat="47.504514" lon="7.724269">
        <ele>293.481172</ele>
        <time>2021-11-22T12:11:08.598Z</time>
      </trkpt>
      <trkpt lat="47.504610" lon="7.724250">
        <ele>293.331320</ele>
        <time>2021-11-22T12:11:10.262Z</time>
      </trkpt>
      <trkpt lat="47.504856" lon="7.724220">
        <ele>292.949419</ele>
        <time>2021-11-22T12:11:14.172Z</time>
      </trkpt>
      <trkpt lat="47.505012" lon="7.724231">
        <ele>292.707783</ele>
        <time>2021-11-22T12:11:16.727Z</time>
      </trkpt>
      <trkpt lat="47.505073" lon="7.724246">
        <ele>292.612110</ele>
        <time>2021-11-22T12:11:17.619Z</time>
      </trkpt>
      <trkpt lat="47.505161" lon="7.724267">
        <ele>292.474199</ele>
        <time>2021-11-22T12:11:19.039Z</time>
      </trkpt>
      <trkpt lat="47.505365" lon="7.724317">
        <ele>292.154274</ele>
        <time>2021-11-22T12:11:22.393Z</time>
      </trkpt>
      <trkpt lat="47.505646" lon="7.724350">
        <ele>291.662463</ele>
        <time>2021-11-22T12:11:26.692Z</time>
      </trkpt>
      <trkpt lat="47.505783" lon="7.724344">
        <ele>291.365837</ele>
        <time>2021-11-22T12:11:28.726Z</time>
      </trkpt>
      <trkpt lat="47.505851" lon="7.724341">
        <ele>291.218606</ele>
        <time>2021-11-22T12:11:29.807Z</time>
      </trkpt>
      <trkpt lat="47.505891" lon="7.724339">
        <ele>291.131988</ele>
        <time>2021-11-22T12:11:30.403Z</time>
      </trkpt>
      <trkpt lat="47.505930" lon="7.724337">
        <ele>291.047533</ele>
        <time>2021-11-22T12:11:31.006Z</time>
      </trkpt>
      <trkpt lat="47.506453" lon="7.724284">
        <ele>289.913004</ele>
        <time>2021-11-22T12:11:38.974Z</time>
      </trkpt>
      <trkpt lat="47.506607" lon="7.724268">
        <ele>289.578897</ele>
        <time>2021-11-22T12:11:41.291Z</time>
      </trkpt>
      <trkpt lat="47.506921" lon="7.724257">
        <ele>288.899145</ele>
        <time>2021-11-22T12:11:46.289Z</time>
      </trkpt>
      <trkpt lat="47.506945" lon="7.724261">
        <ele>288.846876</ele>
        <time>2021-11-22T12:11:46.668Z</time>
      </trkpt>
      <trkpt lat="47.507064" lon="7.724278">
        <ele>288.588139</ele>
        <time>2021-11-22T12:11:48.544Z</time>
      </trkpt>
      <trkpt lat="47.507444" lon="7.724343">
        <ele>287.840884</ele>
        <time>2021-11-22T12:11:54.668Z</time>
      </trkpt>
      <trkpt lat="47.507810" lon="7.724326">
        <ele>287.360238</ele>
        <time>2021-11-22T12:12:00.650Z</time>
      </trkpt>
      <trkpt lat="47.508175" lon="7.724311">
        <ele>286.880956</ele>
        <time>2021-11-22T12:12:06.690Z</time>
      </trkpt>
      <trkpt lat="47.508425" lon="7.724317">
        <ele>286.552765</ele>
        <time>2021-11-22T12:12:10.915Z</time>
      </trkpt>
      <trkpt lat="47.508629" lon="7.724301">
        <ele>286.284620</ele>
        <time>2021-11-22T12:12:14.285Z</time>
      </trkpt>
      <trkpt lat="47.508823" lon="7.724215">
        <ele>286.018806</ele>
        <time>2021-11-22T12:12:16.767Z</time>
      </trkpt>
      <trkpt lat="47.509150" lon="7.724070">
        <ele>285.601403</ele>
        <time>2021-11-22T12:12:20.942Z</time>
      </trkpt>
      <trkpt lat="47.509672" lon="7.723906">
        <ele>285.541939</ele>
        <time>2021-11-22T12:12:27.865Z</time>
      </trkpt>
      <trkpt lat="47.509849" lon="7.723882">
        <ele>285.522132</ele>
        <time>2021-11-22T12:12:31.469Z</time>
      </trkpt>
      <trkpt lat="47.510349" lon="7.724011">
        <ele>285.465575</ele>
        <time>2021-11-22T12:12:42.436Z</time>
      </trkpt>
      <trkpt lat="47.510952" lon="7.724263">
        <ele>285.439667</ele>
        <time>2021-11-22T12:12:56.496Z</time>
      </trkpt>
      <trkpt lat="47.511606" lon="7.724590">
        <ele>285.781748</ele>
        <time>2021-11-22T12:13:08.966Z</time>
      </trkpt>
      <trkpt lat="47.511791" lon="7.724622">
        <ele>285.874050</ele>
        <time>2021-11-22T12:13:12.535Z</time>
      </trkpt>
      <trkpt lat="47.511979" lon="7.724618">
        <ele>285.967225</ele>
        <time>2021-11-22T12:13:16.378Z</time>
      </trkpt>
      <trkpt lat="47.512214" lon="7.724543">
        <ele>286.086357</ele>
        <time>2021-11-22T12:13:22.446Z</time>
      </trkpt>
      <trkpt lat="47.512277" lon="7.724501">
        <ele>286.120597</ele>
        <time>2021-11-22T12:13:23.546Z</time>
      </trkpt>
      <trkpt lat="47.512857" lon="7.723931">
        <ele>286.732353</ele>
        <time>2021-11-22T12:13:44.303Z</time>
      </trkpt>
      <trkpt lat="47.512888" lon="7.724074">
        <ele>286.861309</ele>
        <time>2021-11-22T12:13:46.430Z</time>
      </trkpt>
      <trkpt lat="47.512910" lon="7.724174">
        <ele>286.951615</ele>
        <time>2021-11-22T12:13:48.355Z</time>
      </trkpt>
      <trkpt lat="47.512976" lon="7.724418">
        <ele>287.177302</ele>
        <time>2021-11-22T12:13:51.926Z</time>
      </trkpt>
      <trkpt lat="47.513078" lon="7.724821">
        <ele>287.546836</ele>
        <time>2021-11-22T12:13:57.769Z</time>
      </trkpt>
      <trkpt lat="47.513150" lon="7.725105">
        <ele>287.807304</ele>
        <time>2021-11-22T12:14:00.158Z</time>
      </trkpt>
      <trkpt lat="47.513193" lon="7.725244">
        <ele>287.938580</ele>
        <time>2021-11-22T12:14:03.057Z</time>
      </trkpt>
      <trkpt lat="47.513232" lon="7.725318">
        <ele>288.019174</ele>
        <time>2021-11-22T12:14:04.276Z</time>
      </trkpt>
      <trkpt lat="47.513538" lon="7.725582">
        <ele>288.469412</ele>
        <time>2021-11-22T12:14:11.369Z</time>
      </trkpt>
      <trkpt lat="47.513681" lon="7.725617">
        <ele>288.536210</ele>
        <time>2021-11-22T12:14:13.840Z</time>
      </trkpt>
      <trkpt lat="47.514048" lon="7.725554">
        <ele>288.239022</ele>
        <time>2021-11-22T12:14:21.485Z</time>
      </trkpt>
      <trkpt lat="47.514143" lon="7.725538">
        <ele>288.162113</ele>
        <time>2021-11-22T12:14:23.224Z</time>
      </trkpt>
      <trkpt lat="47.515140" lon="7.725368">
        <ele>287.354840</ele>
        <time>2021-11-22T12:14:35.219Z</time>
      </trkpt>
      <trkpt lat="47.515697" lon="7.725255">
        <ele>286.467724</ele>
        <time>2021-11-22T12:14:40.973Z</time>
      </trkpt>
      <trkpt lat="47.515959" lon="7.725102">
        <ele>285.817086</ele>
        <time>2021-11-22T12:14:43.956Z</time>
      </trkpt>
      <trkpt lat="47.516416" lon="7.724623">
        <ele>284.523588</ele>
        <time>2021-11-22T12:14:49.913Z</time>
      </trkpt>
      <trkpt lat="47.517269" lon="7.723372">
        <ele>282.124986</ele>
        <time>2021-11-22T12:15:02.976Z</time>
      </trkpt>
      <trkpt lat="47.517885" lon="7.722793">
        <ele>280.953389</ele>
        <time>2021-11-22T12:15:11.310Z</time>
      </trkpt>
      <trkpt lat="47.518038" lon="7.722700">
        <ele>280.687817</ele>
        <time>2021-11-22T12:15:13.190Z</time>
      </trkpt>
      <trkpt lat="47.518237" lon="7.722578">
        <ele>280.341970</ele>
        <time>2021-11-22T12:15:15.808Z</time>
      </trkpt>
      <trkpt lat="47.519305" lon="7.722165">
        <ele>279.742430</ele>
        <time>2021-11-22T12:15:29.408Z</time>
      </trkpt>
      <trkpt lat="47.520760" lon="7.721667">
        <ele>281.386886</ele>
        <time>2021-11-22T12:15:53.406Z</time>
      </trkpt>
      <trkpt lat="47.521121" lon="7.721544">
        <ele>282.515448</ele>
        <time>2021-11-22T12:16:02.847Z</time>
      </trkpt>
      <trkpt lat="47.521455" lon="7.721426">
        <ele>283.561572</ele>
        <time>2021-11-22T12:16:14.018Z</time>
      </trkpt>
      <trkpt lat="47.521722" lon="7.721283">
        <ele>284.426585</ele>
        <time>2021-11-22T12:16:23.616Z</time>
      </trkpt>
      <trkpt lat="47.521846" lon="7.721211">
        <ele>284.832368</ele>
        <time>2021-11-22T12:16:29.891Z</time>
      </trkpt>
      <trkpt lat="47.521984" lon="7.721168">
        <ele>285.643410</ele>
        <time>2021-11-22T12:16:34.646Z</time>
      </trkpt>
      <trkpt lat="47.522249" lon="7.721165">
        <ele>287.322563</ele>
        <time>2021-11-22T12:16:46.702Z</time>
      </trkpt>
      <trkpt lat="47.522498" lon="7.721207">
        <ele>288.910490</ele>
        <time>2021-11-22T12:16:57.339Z</time>
      </trkpt>
      <trkpt lat="47.522682" lon="7.721170">
        <ele>290.087059</ele>
        <time>2021-11-22T12:17:04.791Z</time>
      </trkpt>
      <trkpt lat="47.522888" lon="7.721170">
        <ele>291.392325</ele>
        <time>2021-11-22T12:17:14.524Z</time>
      </trkpt>
      <trkpt lat="47.523111" lon="7.721224">
        <ele>292.824074</ele>
        <time>2021-11-22T12:17:22.888Z</time>
      </trkpt>
      <trkpt lat="47.523300" lon="7.721328">
        <ele>294.101629</ele>
        <time>2021-11-22T12:17:32.213Z</time>
      </trkpt>
      <trkpt lat="47.523671" lon="7.721634">
        <ele>296.485644</ele>
        <time>2021-11-22T12:17:48.129Z</time>
      </trkpt>
      <trkpt lat="47.523902" lon="7.721670">
        <ele>297.030310</ele>
        <time>2021-11-22T12:17:56.944Z</time>
      </trkpt>
      <trkpt lat="47.524263" lon="7.721598">
        <ele>297.884465</ele>
        <time>2021-11-22T12:18:08.287Z</time>
      </trkpt>
      <trkpt lat="47.524632" lon="7.721805">
        <ele>298.809739</ele>
        <time>2021-11-22T12:18:17.647Z</time>
      </trkpt>
      <trkpt lat="47.524884" lon="7.722022">
        <ele>299.493296</ele>
        <time>2021-11-22T12:18:22.895Z</time>
      </trkpt>
      <trkpt lat="47.525258" lon="7.722384">
        <ele>300.513588</ele>
        <time>2021-11-22T12:18:29.032Z</time>
      </trkpt>
      <trkpt lat="47.525373" lon="7.722545">
        <ele>300.317196</ele>
        <time>2021-11-22T12:18:31.039Z</time>
      </trkpt>
      <trkpt lat="47.526099" lon="7.723563">
        <ele>299.076448</ele>
        <time>2021-11-22T12:18:42.453Z</time>
      </trkpt>
      <trkpt lat="47.526744" lon="7.724750">
        <ele>298.176701</ele>
        <time>2021-11-22T12:18:54.483Z</time>
      </trkpt>
      <trkpt lat="47.526894" lon="7.725042">
        <ele>298.105184</ele>
        <time>2021-11-22T12:18:57.510Z</time>
      </trkpt>
      <trkpt lat="47.527231" lon="7.725764">
        <ele>297.934096</ele>
        <time>2021-11-22T12:19:05.723Z</time>
      </trkpt>
      <trkpt lat="47.527300" lon="7.725911">
        <ele>297.899199</ele>
        <time>2021-11-22T12:19:07.454Z</time>
      </trkpt>
      <trkpt lat="47.527862" lon="7.727114">
        <ele>297.986031</ele>
        <time>2021-11-22T12:19:25.872Z</time>
      </trkpt>
      <trkpt lat="47.528009" lon="7.727429">
        <ele>298.087443</ele>
        <time>2021-11-22T12:19:30.692Z</time>
      </trkpt>
      <trkpt lat="47.528065" lon="7.727556">
        <ele>298.127615</ele>
        <time>2021-11-22T12:19:32.443Z</time>
      </trkpt>
      <trkpt lat="47.528164" lon="7.727824">
        <ele>298.208521</ele>
        <time>2021-11-22T12:19:35.881Z</time>
      </trkpt>
      <trkpt lat="47.528320" lon="7.728136">
        <ele>298.311340</ele>
        <time>2021-11-22T12:19:39.983Z</time>
      </trkpt>
      <trkpt lat="47.528408" lon="7.728307">
        <ele>298.368282</ele>
        <time>2021-11-22T12:19:42.087Z</time>
      </trkpt>
      <trkpt lat="47.528552" lon="7.728411">
        <ele>298.431121</ele>
        <time>2021-11-22T12:19:44.320Z</time>
      </trkpt>
      <trkpt lat="47.528614" lon="7.728431">
        <ele>298.456010</ele>
        <time>2021-11-22T12:19:45.216Z</time>
      </trkpt>
      <trkpt lat="47.528688" lon="7.728441">
        <ele>298.461326</ele>
        <time>2021-11-22T12:19:46.206Z</time>
      </trkpt>
      <trkpt lat="47.528715" lon="7.728334">
        <ele>298.400528</ele>
        <time>2021-11-22T12:19:47.208Z</time>
      </trkpt>
      <trkpt lat="47.528746" lon="7.728265">
        <ele>298.356416</ele>
        <time>2021-11-22T12:19:47.971Z</time>
      </trkpt>
      <trkpt lat="47.528803" lon="7.728159">
        <ele>298.284293</ele>
        <time>2021-11-22T12:19:49.202Z</time>
      </trkpt>
      <trkpt lat="47.528848" lon="7.728118">
        <ele>298.242646</ele>
        <time>2021-11-22T12:19:49.907Z</time>
      </trkpt>
      <trkpt lat="47.528941" lon="7.728048">
        <ele>298.160413</ele>
        <time>2021-11-22T12:19:51.257Z</time>
      </trkpt>
      <trkpt lat="47.529269" lon="7.727844">
        <ele>297.879991</ele>
        <time>2021-11-22T12:19:55.720Z</time>
      </trkpt>
      <trkpt lat="47.529976" lon="7.727410">
        <ele>297.276715</ele>
        <time>2021-11-22T12:20:05.009Z</time>
      </trkpt>
      <trkpt lat="47.530372" lon="7.727161">
        <ele>296.947420</ele>
        <time>2021-11-22T12:20:10.356Z</time>
      </trkpt>
      <trkpt lat="47.530756" lon="7.726844">
        <ele>296.628824</ele>
        <time>2021-11-22T12:20:15.743Z</time>
      </trkpt>
      <trkpt lat="47.531031" lon="7.726569">
        <ele>296.388356</ele>
        <time>2021-11-22T12:20:19.879Z</time>
      </trkpt>
      <trkpt lat="47.531193" lon="7.726888">
        <ele>296.193041</ele>
        <time>2021-11-22T12:20:23.276Z</time>
      </trkpt>
      <trkpt lat="47.531296" lon="7.727089">
        <ele>296.069571</ele>
        <time>2021-11-22T12:20:25.826Z</time>
      </trkpt>
      <trkpt lat="47.531623" lon="7.727725">
        <ele>295.720730</ele>
        <time>2021-11-22T12:20:32.885Z</time>
      </trkpt>
      <trkpt lat="47.531815" lon="7.728165">
        <ele>295.604283</ele>
        <time>2021-11-22T12:20:37.640Z</time>
      </trkpt>
      <trkpt lat="47.531944" lon="7.728603">
        <ele>295.498070</ele>
        <time>2021-11-22T12:20:42.012Z</time>
      </trkpt>
      <trkpt lat="47.532193" lon="7.730459">
        <ele>295.201508</ele>
        <time>2021-11-22T12:20:59.579Z</time>
      </trkpt>
      <trkpt lat="47.532405" lon="7.731493">
        <ele>295.306275</ele>
        <time>2021-11-22T12:21:11.536Z</time>
      </trkpt>
      <trkpt lat="47.532473" lon="7.731703">
        <ele>295.328855</ele>
        <time>2021-11-22T12:21:14.004Z</time>
      </trkpt>
      <trkpt lat="47.532665" lon="7.732105">
        <ele>295.376595</ele>
        <time>2021-11-22T12:21:19.488Z</time>
      </trkpt>
      <trkpt lat="47.532776" lon="7.732283">
        <ele>295.400086</ele>
        <time>2021-11-22T12:21:22.064Z</time>
      </trkpt>
      <trkpt lat="47.532853" lon="7.732416">
        <ele>295.417072</ele>
        <time>2021-11-22T12:21:23.980Z</time>
      </trkpt>
      <trkpt lat="47.532961" lon="7.732599">
        <ele>295.371728</ele>
        <time>2021-11-22T12:21:26.270Z</time>
      </trkpt>
      <trkpt lat="47.533220" lon="7.733022">
        <ele>295.221168</ele>
        <time>2021-11-22T12:21:31.805Z</time>
      </trkpt>
      <trkpt lat="47.533324" lon="7.733190">
        <ele>295.161072</ele>
        <time>2021-11-22T12:21:34.109Z</time>
      </trkpt>
      <trkpt lat="47.533436" lon="7.733399">
        <ele>295.090719</ele>
        <time>2021-11-22T12:21:36.454Z</time>
      </trkpt>
      <trkpt lat="47.533577" lon="7.733712">
        <ele>294.991511</ele>
        <time>2021-11-22T12:21:39.967Z</time>
      </trkpt>
      <trkpt lat="47.533685" lon="7.734026">
        <ele>294.898599</ele>
        <time>2021-11-22T12:21:43.079Z</time>
      </trkpt>
      <trkpt lat="47.533860" lon="7.734479">
        <ele>294.760993</ele>
        <time>2021-11-22T12:21:47.574Z</time>
      </trkpt>
      <trkpt lat="47.534301" lon="7.735625">
        <ele>294.216981</ele>
        <time>2021-11-22T12:21:58.406Z</time>
      </trkpt>
      <trkpt lat="47.534450" lon="7.736026">
        <ele>294.019041</ele>
        <time>2021-11-22T12:22:02.184Z</time>
      </trkpt>
      <trkpt lat="47.534670" lon="7.736644">
        <ele>293.716913</ele>
        <time>2021-11-22T12:22:08.208Z</time>
      </trkpt>
      <trkpt lat="47.534765" lon="7.736911">
        <ele>293.586397</ele>
        <time>2021-11-22T12:22:10.872Z</time>
      </trkpt>
      <trkpt lat="47.534914" lon="7.737321">
        <ele>294.719786</ele>
        <time>2021-11-22T12:22:15.980Z</time>
      </trkpt>
      <trkpt lat="47.535216" lon="7.738157">
        <ele>297.306876</ele>
        <time>2021-11-22T12:22:30.290Z</time>
      </trkpt>
      <trkpt lat="47.534755" lon="7.738529">
        <ele>299.428557</ele>
        <time>2021-11-22T12:22:50.513Z</time>
      </trkpt>
      <trkpt lat="47.534011" lon="7.739126">
        <ele>304.668442</ele>
        <time>2021-11-22T12:23:32.306Z</time>
      </trkpt>
      <trkpt lat="47.533446" lon="7.739598">
        <ele>309.662246</ele>
        <time>2021-11-22T12:24:04.225Z</time>
      </trkpt>
      <trkpt lat="47.533226" lon="7.739781">
        <ele>311.604732</ele>
        <time>2021-11-22T12:24:15.562Z</time>
      </trkpt>
      <trkpt lat="47.533191" lon="7.739816">
        <ele>311.929842</ele>
        <time>2021-11-22T12:24:18.813Z</time>
      </trkpt>
      <trkpt lat="47.533352" lon="7.740430">
        <ele>314.903652</ele>
        <time>2021-11-22T12:24:37.496Z</time>
      </trkpt>
      <trkpt lat="47.533707" lon="7.742025">
        <ele>317.770594</ele>
        <time>2021-11-22T12:25:09.781Z</time>
      </trkpt>
      <trkpt lat="47.533870" lon="7.743466">
        <ele>319.078961</ele>
        <time>2021-11-22T12:25:21.859Z</time>
      </trkpt>
      <trkpt lat="47.534043" lon="7.744207">
        <ele>318.881518</ele>
        <time>2021-11-22T12:25:28.942Z</time>
      </trkpt>
      <trkpt lat="47.534097" lon="7.744343">
        <ele>318.841787</ele>
        <time>2021-11-22T12:25:30.390Z</time>
      </trkpt>
      <trkpt lat="47.534179" lon="7.744495">
        <ele>318.792791</ele>
        <time>2021-11-22T12:25:32.269Z</time>
      </trkpt>
      <trkpt lat="47.534370" lon="7.744709">
        <ele>318.703464</ele>
        <time>2021-11-22T12:25:35.563Z</time>
      </trkpt>
      <trkpt lat="47.534429" lon="7.744856">
        <ele>318.660399</ele>
        <time>2021-11-22T12:25:37.325Z</time>
      </trkpt>
      <trkpt lat="47.534874" lon="7.746551">
        <ele>318.646785</ele>
        <time>2021-11-22T12:25:54.875Z</time>
      </trkpt>
      <trkpt lat="47.535912" lon="7.749669">
        <ele>319.249939</ele>
        <time>2021-11-22T12:26:33.215Z</time>
      </trkpt>
      <trkpt lat="47.537134" lon="7.752309">
        <ele>319.914110</ele>
        <time>2021-11-22T12:27:07.368Z</time>
      </trkpt>
      <trkpt lat="47.537371" lon="7.752851">
        <ele>320.680451</ele>
        <time>2021-11-22T12:27:14.017Z</time>
      </trkpt>
      <trkpt lat="47.537564" lon="7.753073">
        <ele>321.109993</ele>
        <time>2021-11-22T12:27:17.832Z</time>
      </trkpt>
      <trkpt lat="47.537715" lon="7.753194">
        <ele>321.411777</ele>
        <time>2021-11-22T12:27:21.677Z</time>
      </trkpt>
      <trkpt lat="47.538052" lon="7.753460">
        <ele>322.083023</ele>
        <time>2021-11-22T12:27:30.762Z</time>
      </trkpt>
      <trkpt lat="47.538359" lon="7.753900">
        <ele>322.833936</ele>
        <time>2021-11-22T12:27:41.993Z</time>
      </trkpt>
      <trkpt lat="47.538494" lon="7.754103">
        <ele>323.613771</ele>
        <time>2021-11-22T12:27:47.798Z</time>
      </trkpt>
      <trkpt lat="47.538723" lon="7.754445">
        <ele>325.316244</ele>
        <time>2021-11-22T12:27:57.991Z</time>
      </trkpt>
      <trkpt lat="47.538792" lon="7.754549">
        <ele>325.831609</ele>
        <time>2021-11-22T12:28:01.852Z</time>
      </trkpt>
      <trkpt lat="47.539079" lon="7.754976">
        <ele>327.961208</ele>
        <time>2021-11-22T12:28:17.551Z</time>
      </trkpt>
      <trkpt lat="47.539230" lon="7.755294">
        <ele>329.335298</ele>
        <time>2021-11-22T12:28:28.211Z</time>
      </trkpt>
      <trkpt lat="47.539346" lon="7.755736">
        <ele>331.011352</ele>
        <time>2021-11-22T12:28:41.502Z</time>
      </trkpt>
      <trkpt lat="47.539595" lon="7.757548">
        <ele>335.397058</ele>
        <time>2021-11-22T12:29:25.424Z</time>
      </trkpt>
      <trkpt lat="47.539722" lon="7.758107">
        <ele>336.616738</ele>
        <time>2021-11-22T12:29:34.431Z</time>
      </trkpt>
      <trkpt lat="47.539949" lon="7.758688">
        <ele>337.727015</ele>
        <time>2021-11-22T12:29:41.644Z</time>
      </trkpt>
      <trkpt lat="47.540447" lon="7.759585">
        <ele>334.990724</ele>
        <time>2021-11-22T12:29:50.168Z</time>
      </trkpt>
      <trkpt lat="47.540567" lon="7.759901">
        <ele>334.136499</ele>
        <time>2021-11-22T12:29:52.554Z</time>
      </trkpt>
      <trkpt lat="47.540921" lon="7.761599">
        <ele>327.542206</ele>
        <time>2021-11-22T12:30:03.676Z</time>
      </trkpt>
      <trkpt lat="47.541004" lon="7.762306">
        <ele>323.381915</ele>
        <time>2021-11-22T12:30:07.897Z</time>
      </trkpt>
      <trkpt lat="47.541023" lon="7.762922">
        <ele>319.806985</ele>
        <time>2021-11-22T12:30:11.480Z</time>
      </trkpt>
      <trkpt lat="47.541219" lon="7.763853">
        <ele>314.332903</ele>
        <time>2021-11-22T12:30:17.104Z</time>
      </trkpt>
      <trkpt lat="47.541334" lon="7.764020">
        <ele>313.074282</ele>
        <time>2021-11-22T12:30:18.570Z</time>
      </trkpt>
      <trkpt lat="47.541377" lon="7.764045">
        <ele>312.713258</ele>
        <time>2021-11-22T12:30:18.943Z</time>
      </trkpt>
      <trkpt lat="47.541364" lon="7.764150">
        <ele>312.150044</ele>
        <time>2021-11-22T12:30:19.554Z</time>
      </trkpt>
      <trkpt lat="47.541443" lon="7.764512">
        <ele>310.142834</ele>
        <time>2021-11-22T12:30:21.865Z</time>
      </trkpt>
      <trkpt lat="47.541552" lon="7.764869">
        <ele>308.075634</ele>
        <time>2021-11-22T12:30:24.159Z</time>
      </trkpt>
      <trkpt lat="47.541697" lon="7.765479">
        <ele>304.663631</ele>
        <time>2021-11-22T12:30:28.041Z</time>
      </trkpt>
      <trkpt lat="47.542317" lon="7.768533">
        <ele>296.020669</ele>
        <time>2021-11-22T12:30:49.466Z</time>
      </trkpt>
      <trkpt lat="47.542450" lon="7.769311">
        <ele>295.892781</ele>
        <time>2021-11-22T12:30:57.301Z</time>
      </trkpt>
      <trkpt lat="47.542692" lon="7.770615">
        <ele>295.677279</ele>
        <time>2021-11-22T12:31:11.789Z</time>
      </trkpt>
      <trkpt lat="47.542719" lon="7.770763">
        <ele>295.652850</ele>
        <time>2021-11-22T12:31:13.484Z</time>
      </trkpt>
      <trkpt lat="47.542720" lon="7.770771">
        <ele>295.651553</ele>
        <time>2021-11-22T12:31:13.874Z</time>
      </trkpt>
      <trkpt lat="47.543108" lon="7.773069">
        <ele>296.115397</ele>
        <time>2021-11-22T12:31:40.975Z</time>
      </trkpt>
      <trkpt lat="47.543145" lon="7.773277">
        <ele>296.169044</ele>
        <time>2021-11-22T12:31:43.101Z</time>
      </trkpt>
      <trkpt lat="47.543350" lon="7.774507">
        <ele>296.397748</ele>
        <time>2021-11-22T12:31:55.564Z</time>
      </trkpt>
      <trkpt lat="47.543402" lon="7.775016">
        <ele>296.474835</ele>
        <time>2021-11-22T12:32:00.628Z</time>
      </trkpt>
      <trkpt lat="47.543449" lon="7.775478">
        <ele>296.544797</ele>
        <time>2021-11-22T12:32:05.321Z</time>
      </trkpt>
      <trkpt lat="47.543482" lon="7.776095">
        <ele>296.637477</ele>
        <time>2021-11-22T12:32:12.029Z</time>
      </trkpt>
      <trkpt lat="47.543527" lon="7.776532">
        <ele>297.090814</ele>
        <time>2021-11-22T12:32:17.187Z</time>
      </trkpt>
      <trkpt lat="47.543707" lon="7.777394">
        <ele>298.600090</ele>
        <time>2021-11-22T12:32:29.474Z</time>
      </trkpt>
      <trkpt lat="47.543933" lon="7.778374">
        <ele>300.332346</ele>
        <time>2021-11-22T12:32:47.801Z</time>
      </trkpt>
      <trkpt lat="47.544100" lon="7.779438">
        <ele>303.624113</ele>
        <time>2021-11-22T12:33:12.001Z</time>
      </trkpt>
      <trkpt lat="47.544461" lon="7.782254">
        <ele>312.583659</ele>
        <time>2021-11-22T12:34:32.602Z</time>
      </trkpt>
      <trkpt lat="47.544469" lon="7.782455">
        <ele>312.757494</ele>
        <time>2021-11-22T12:34:37.636Z</time>
      </trkpt>
      <trkpt lat="47.544474" lon="7.782623">
        <ele>312.902679</ele>
        <time>2021-11-22T12:34:40.024Z</time>
      </trkpt>
      <trkpt lat="47.544490" lon="7.783060">
        <ele>313.280519</ele>
        <time>2021-11-22T12:34:43.915Z</time>
      </trkpt>
      <trkpt lat="47.544555" lon="7.783372">
        <ele>313.562422</ele>
        <time>2021-11-22T12:34:46.400Z</time>
      </trkpt>
      <trkpt lat="47.544627" lon="7.783499">
        <ele>313.705609</ele>
        <time>2021-11-22T12:34:47.797Z</time>
      </trkpt>
      <trkpt lat="47.544950" lon="7.784008">
        <ele>313.549048</ele>
        <time>2021-11-22T12:34:54.609Z</time>
      </trkpt>
      <trkpt lat="47.545054" lon="7.784227">
        <ele>312.469997</ele>
        <time>2021-11-22T12:34:57.181Z</time>
      </trkpt>
      <trkpt lat="47.545240" lon="7.784746">
        <ele>310.102028</ele>
        <time>2021-11-22T12:35:02.336Z</time>
      </trkpt>
      <trkpt lat="47.545250" lon="7.784778">
        <ele>309.959925</ele>
        <time>2021-11-22T12:35:02.610Z</time>
      </trkpt>
      <trkpt lat="47.545624" lon="7.785548">
        <ele>306.137163</ele>
        <time>2021-11-22T12:35:10.773Z</time>
      </trkpt>
      <trkpt lat="47.545672" lon="7.785654">
        <ele>305.622791</ele>
        <time>2021-11-22T12:35:11.782Z</time>
      </trkpt>
      <trkpt lat="47.545856" lon="7.785973">
        <ele>303.931889</ele>
        <time>2021-11-22T12:35:15.623Z</time>
      </trkpt>
      <trkpt lat="47.546102" lon="7.786217">
        <ele>302.952547</ele>
        <time>2021-11-22T12:35:19.607Z</time>
      </trkpt>
      <trkpt lat="47.546417" lon="7.786331">
        <ele>302.215732</ele>
        <time>2021-11-22T12:35:24.178Z</time>
      </trkpt>
      <trkpt lat="47.546464" lon="7.786335">
        <ele>302.108759</ele>
        <time>2021-11-22T12:35:24.938Z</time>
      </trkpt>
      <trkpt lat="47.546526" lon="7.786353">
        <ele>301.965198</ele>
        <time>2021-11-22T12:35:25.936Z</time>
      </trkpt>
      <trkpt lat="47.546913" lon="7.786470">
        <ele>301.067703</ele>
        <time>2021-11-22T12:35:32.092Z</time>
      </trkpt>
      <trkpt lat="47.546952" lon="7.786540">
        <ele>300.928491</ele>
        <time>2021-11-22T12:35:33.030Z</time>
      </trkpt>
      <trkpt lat="47.546959" lon="7.786598">
        <ele>300.838122</ele>
        <time>2021-11-22T12:35:33.732Z</time>
      </trkpt>
      <trkpt lat="47.546897" lon="7.787133">
        <ele>300.005556</ele>
        <time>2021-11-22T12:35:40.907Z</time>
      </trkpt>
      <trkpt lat="47.546806" lon="7.787868">
        <ele>299.482171</ele>
        <time>2021-11-22T12:35:51.404Z</time>
      </trkpt>
      <trkpt lat="47.546695" lon="7.788763">
        <ele>299.858985</ele>
        <time>2021-11-22T12:36:04.704Z</time>
      </trkpt>
      <trkpt lat="47.546673" lon="7.788921">
        <ele>299.925789</ele>
        <time>2021-11-22T12:36:07.306Z</time>
      </trkpt>
      <trkpt lat="47.546460" lon="7.790482">
        <ele>300.659088</ele>
        <time>2021-11-22T12:36:32.813Z</time>
      </trkpt>
      <trkpt lat="47.546253" lon="7.791998">
        <ele>301.657657</ele>
        <time>2021-11-22T12:36:59.625Z</time>
      </trkpt>
      <trkpt lat="47.546027" lon="7.793254">
        <ele>302.069990</ele>
        <time>2021-11-22T12:37:19.293Z</time>
      </trkpt>
      <trkpt lat="47.545969" lon="7.793663">
        <ele>301.983560</ele>
        <time>2021-11-22T12:37:24.452Z</time>
      </trkpt>
      <trkpt lat="47.545948" lon="7.794007">
        <ele>301.912128</ele>
        <time>2021-11-22T12:37:28.696Z</time>
      </trkpt>
      <trkpt lat="47.545921" lon="7.794468">
        <ele>301.816432</ele>
        <time>2021-11-22T12:37:34.306Z</time>
      </trkpt>
      <trkpt lat="47.545947" lon="7.794710">
        <ele>301.765754</ele>
        <time>2021-11-22T12:37:37.139Z</time>
      </trkpt>
      <trkpt lat="47.546019" lon="7.795020">
        <ele>301.697955</ele>
        <time>2021-11-22T12:37:41.164Z</time>
      </trkpt>
      <trkpt lat="47.546165" lon="7.795511">
        <ele>301.611895</ele>
        <time>2021-11-22T12:37:48.120Z</time>
      </trkpt>
      <trkpt lat="47.546170" lon="7.795612">
        <ele>301.605646</ele>
        <time>2021-11-22T12:37:49.173Z</time>
      </trkpt>
      <trkpt lat="47.546154" lon="7.795747">
        <ele>301.597188</ele>
        <time>2021-11-22T12:37:50.991Z</time>
      </trkpt>
      <trkpt lat="47.546105" lon="7.795928">
        <ele>301.585155</ele>
        <time>2021-11-22T12:37:54.133Z</time>
      </trkpt>
      <trkpt lat="47.546038" lon="7.796107">
        <ele>301.572525</ele>
        <time>2021-11-22T12:37:56.459Z</time>
      </trkpt>
      <trkpt lat="47.545889" lon="7.796500">
        <ele>301.544711</ele>
        <time>2021-11-22T12:38:03.342Z</time>
      </trkpt>
      <trkpt lat="47.545788" lon="7.796748">
        <ele>301.526838</ele>
        <time>2021-11-22T12:38:06.974Z</time>
      </trkpt>
      <trkpt lat="47.545728" lon="7.796950">
        <ele>301.513220</ele>
        <time>2021-11-22T12:38:10.321Z</time>
      </trkpt>
      <trkpt lat="47.545689" lon="7.797076">
        <ele>301.504666</ele>
        <time>2021-11-22T12:38:11.779Z</time>
      </trkpt>
      <trkpt lat="47.545670" lon="7.797142">
        <ele>301.500239</ele>
        <time>2021-11-22T12:38:12.829Z</time>
      </trkpt>
      <trkpt lat="47.545645" lon="7.797258">
        <ele>301.492725</ele>
        <time>2021-11-22T12:38:14.578Z</time>
      </trkpt>
      <trkpt lat="47.545637" lon="7.797310">
        <ele>301.489434</ele>
        <time>2021-11-22T12:38:15.919Z</time>
      </trkpt>
      <trkpt lat="47.545617" lon="7.797517">
        <ele>301.476530</ele>
        <time>2021-11-22T12:38:18.413Z</time>
      </trkpt>
      <trkpt lat="47.545558" lon="7.798144">
        <ele>301.423179</ele>
        <time>2021-11-22T12:38:27.337Z</time>
      </trkpt>
      <trkpt lat="47.545511" lon="7.798680">
        <ele>301.366686</ele>
        <time>2021-11-22T12:38:35.406Z</time>
      </trkpt>
      <trkpt lat="47.545581" lon="7.798713">
        <ele>301.355311</ele>
        <time>2021-11-22T12:38:36.904Z</time>
      </trkpt>
      <trkpt lat="47.545731" lon="7.798810">
        <ele>301.329968</ele>
        <time>2021-11-22T12:38:40.929Z</time>
      </trkpt>
      <trkpt lat="47.545807" lon="7.798846">
        <ele>301.317613</ele>
        <time>2021-11-22T12:38:42.270Z</time>
      </trkpt>
      <trkpt lat="47.546418" lon="7.798980">
        <ele>301.221972</ele>
        <time>2021-11-22T12:38:54.281Z</time>
      </trkpt>
      <trkpt lat="47.547540" lon="7.799538">
        <ele>300.720896</ele>
        <time>2021-11-22T12:39:14.909Z</time>
      </trkpt>
      <trkpt lat="47.547912" lon="7.799646">
        <ele>300.529743</ele>
        <time>2021-11-22T12:39:22.290Z</time>
      </trkpt>
      <trkpt lat="47.548459" lon="7.799691">
        <ele>300.270011</ele>
        <time>2021-11-22T12:39:33.228Z</time>
      </trkpt>
      <trkpt lat="47.548535" lon="7.799720">
        <ele>300.264723</ele>
        <time>2021-11-22T12:39:34.748Z</time>
      </trkpt>
      <trkpt lat="47.548514" lon="7.799795">
        <ele>300.261030</ele>
        <time>2021-11-22T12:39:35.812Z</time>
      </trkpt>
      <trkpt lat="47.548519" lon="7.799896">
        <ele>300.256425</ele>
        <time>2021-11-22T12:39:37.166Z</time>
      </trkpt>
      <trkpt lat="47.548545" lon="7.800404">
        <ele>300.233256</ele>
        <time>2021-11-22T12:39:43.957Z</time>
      </trkpt>
      <trkpt lat="47.548560" lon="7.800672">
        <ele>300.221027</ele>
        <time>2021-11-22T12:39:47.649Z</time>
      </trkpt>
      <trkpt lat="47.548569" lon="7.800838">
        <ele>300.213453</ele>
        <time>2021-11-22T12:39:49.893Z</time>
      </trkpt>
      <trkpt lat="47.548576" lon="7.800968">
        <ele>300.207523</ele>
        <time>2021-11-22T12:39:51.669Z</time>
      </trkpt>
      <trkpt lat="47.548596" lon="7.801213">
        <ele>300.196300</ele>
        <time>2021-11-22T12:39:55.048Z</time>
      </trkpt>
      <trkpt lat="47.548607" lon="7.801690">
        <ele>300.174595</ele>
        <time>2021-11-22T12:40:01.548Z</time>
      </trkpt>
      <trkpt lat="47.548626" lon="7.802129">
        <ele>300.154589</ele>
        <time>2021-11-22T12:40:07.467Z</time>
      </trkpt>
      <trkpt lat="47.548877" lon="7.802168">
        <ele>300.091004</ele>
        <time>2021-11-22T12:40:12.459Z</time>
      </trkpt>
      <trkpt lat="47.549410" lon="7.802226">
        <ele>299.933343</ele>
        <time>2021-11-22T12:40:22.849Z</time>
      </trkpt>
      <trkpt lat="47.549481" lon="7.802234">
        <ele>299.912338</ele>
        <time>2021-11-22T12:40:24.189Z</time>
      </trkpt>
      <trkpt lat="47.549879" lon="7.802247">
        <ele>299.794898</ele>
        <time>2021-11-22T12:40:31.649Z</time>
      </trkpt>
      <trkpt lat="47.550146" lon="7.802262">
        <ele>299.716076</ele>
        <time>2021-11-22T12:40:36.718Z</time>
      </trkpt>
      <trkpt lat="47.550134" lon="7.803051">
        <ele>299.584522</ele>
        <time>2021-11-22T12:40:46.953Z</time>
      </trkpt>
      <trkpt lat="47.550196" lon="7.803120">
        <ele>299.571112</ele>
        <time>2021-11-22T12:40:48.417Z</time>
      </trkpt>
      <trkpt lat="47.550288" lon="7.803121">
        <ele>299.555202</ele>
        <time>2021-11-22T12:40:50.152Z</time>
      </trkpt>
      <trkpt lat="47.550981" lon="7.803132">
        <ele>299.435353</ele>
        <time>2021-11-22T12:41:03.054Z</time>
      </trkpt>
      <trkpt lat="47.551163" lon="7.803129">
        <ele>299.403877</ele>
        <time>2021-11-22T12:41:06.461Z</time>
      </trkpt>
      <trkpt lat="47.551598" lon="7.803160">
        <ele>299.328564</ele>
        <time>2021-11-22T12:41:15.059Z</time>
      </trkpt>
      <trkpt lat="47.551666" lon="7.803144">
        <ele>299.316657</ele>
        <time>2021-11-22T12:41:19.804Z</time>
      </trkpt>
      <trkpt lat="47.551732" lon="7.803125">
        <ele>299.330207</ele>
        <time>2021-11-22T12:41:24.470Z</time>
      </trkpt>
      <trkpt lat="47.551744" lon="7.803277">
        <ele>299.408181</ele>
        <time>2021-11-22T12:41:26.173Z</time>
      </trkpt>
      <trkpt lat="47.551751" lon="7.803369">
        <ele>299.455353</ele>
        <time>2021-11-22T12:41:27.252Z</time>
      </trkpt>
      <trkpt lat="47.551692" lon="7.803510">
        <ele>299.539881</ele>
        <time>2021-11-22T12:41:29.855Z</time>
      </trkpt>
      <trkpt lat="47.551741" lon="7.804294">
        <ele>299.941047</ele>
        <time>2021-11-22T12:41:42.891Z</time>
      </trkpt>
      <trkpt lat="47.551744" lon="7.804473">
        <ele>300.032277</ele>
        <time>2021-11-22T12:41:45.411Z</time>
      </trkpt>
      <trkpt lat="47.551731" lon="7.804667">
        <ele>300.131609</ele>
        <time>2021-11-22T12:41:49.391Z</time>
      </trkpt>
      <trkpt lat="47.551709" lon="7.805000">
        <ele>300.302087</ele>
        <time>2021-11-22T12:41:53.883Z</time>
      </trkpt>
      <trkpt lat="47.551681" lon="7.805477">
        <ele>300.546041</ele>
        <time>2021-11-22T12:42:01.619Z</time>
      </trkpt>
      <trkpt lat="47.551671" lon="7.806117">
        <ele>300.693055</ele>
        <time>2021-11-22T12:42:11.708Z</time>
      </trkpt>
      <trkpt lat="47.551651" lon="7.806246">
        <ele>300.701460</ele>
        <time>2021-11-22T12:42:14.611Z</time>
      </trkpt>
      <trkpt lat="47.551895" lon="7.806278">
        <ele>300.724505</ele>
        <time>2021-11-22T12:42:18.137Z</time>
      </trkpt>
      <trkpt lat="47.552015" lon="7.806307">
        <ele>300.735945</ele>
        <time>2021-11-22T12:42:21.007Z</time>
      </trkpt>
      <trkpt lat="47.552068" lon="7.806445">
        <ele>300.746027</ele>
        <time>2021-11-22T12:42:22.464Z</time>
      </trkpt>
      <trkpt lat="47.552398" lon="7.808880">
        <ele>300.384034</ele>
        <time>2021-11-22T12:42:44.606Z</time>
      </trkpt>
      <trkpt lat="47.552566" lon="7.810386">
        <ele>299.728718</ele>
        <time>2021-11-22T12:42:57.618Z</time>
      </trkpt>
      <trkpt lat="47.552711" lon="7.812955">
        <ele>298.600243</ele>
        <time>2021-11-22T12:43:20.226Z</time>
      </trkpt>
      <trkpt lat="47.552844" lon="7.816432">
        <ele>297.437526</ele>
        <time>2021-11-22T12:43:50.719Z</time>
      </trkpt>
      <trkpt lat="47.552948" lon="7.819358">
        <ele>297.817832</ele>
        <time>2021-11-22T12:44:21.949Z</time>
      </trkpt>
      <trkpt lat="47.552896" lon="7.820699">
        <ele>298.350834</ele>
        <time>2021-11-22T12:44:38.033Z</time>
      </trkpt>
      <trkpt lat="47.552567" lon="7.824508">
        <ele>300.238682</ele>
        <time>2021-11-22T12:45:24.518Z</time>
      </trkpt>
      <trkpt lat="47.552491" lon="7.827227">
        <ele>301.776623</ele>
        <time>2021-11-22T12:45:56.258Z</time>
      </trkpt>
      <trkpt lat="47.552515" lon="7.828094">
        <ele>302.498500</ele>
        <time>2021-11-22T12:46:07.968Z</time>
      </trkpt>
      <trkpt lat="47.552477" lon="7.828294">
        <ele>302.671351</ele>
        <time>2021-11-22T12:46:10.585Z</time>
      </trkpt>
      <trkpt lat="47.552421" lon="7.828481">
        <ele>302.841546</ele>
        <time>2021-11-22T12:46:13.516Z</time>
      </trkpt>
      <trkpt lat="47.552404" lon="7.828582">
        <ele>302.928143</ele>
        <time>2021-11-22T12:46:15.200Z</time>
      </trkpt>
      <trkpt lat="47.552416" lon="7.828822">
        <ele>303.128351</ele>
        <time>2021-11-22T12:46:18.434Z</time>
      </trkpt>
      <trkpt lat="47.552554" lon="7.829266">
        <ele>303.772746</ele>
        <time>2021-11-22T12:46:25.786Z</time>
      </trkpt>
      <trkpt lat="47.552645" lon="7.830686">
        <ele>306.216149</ele>
        <time>2021-11-22T12:46:49.092Z</time>
      </trkpt>
      <trkpt lat="47.552690" lon="7.832598">
        <ele>309.759938</ele>
        <time>2021-11-22T12:47:24.569Z</time>
      </trkpt>
      <trkpt lat="47.552616" lon="7.832891">
        <ele>310.384136</ele>
        <time>2021-11-22T12:47:29.933Z</time>
      </trkpt>
      <trkpt lat="47.552556" lon="7.832977">
        <ele>310.630928</ele>
        <time>2021-11-22T12:47:32.664Z</time>
      </trkpt>
      <trkpt lat="47.552511" lon="7.833072">
        <ele>310.862502</ele>
        <time>2021-11-22T12:47:34.690Z</time>
      </trkpt>
      <trkpt lat="47.552467" lon="7.833198">
        <ele>311.145562</ele>
        <time>2021-11-22T12:47:37.091Z</time>
      </trkpt>
      <trkpt lat="47.552452" lon="7.833284">
        <ele>311.322791</ele>
        <time>2021-11-22T12:47:38.702Z</time>
      </trkpt>
      <trkpt lat="47.552696" lon="7.833789">
        <ele>312.561977</ele>
        <time>2021-11-22T12:47:49.734Z</time>
      </trkpt>
      <trkpt lat="47.552700" lon="7.833938">
        <ele>312.859503</ele>
        <time>2021-11-22T12:47:52.678Z</time>
      </trkpt>
      <trkpt lat="47.552714" lon="7.835010">
        <ele>314.396568</ele>
        <time>2021-11-22T12:48:11.155Z</time>
      </trkpt>
      <trkpt lat="47.552719" lon="7.836790">
        <ele>316.757137</ele>
        <time>2021-11-22T12:48:36.439Z</time>
      </trkpt>
      <trkpt lat="47.552697" lon="7.838068">
        <ele>318.040376</ele>
        <time>2021-11-22T12:48:54.081Z</time>
      </trkpt>
      <trkpt lat="47.552736" lon="7.838578">
        <ele>318.555575</ele>
        <time>2021-11-22T12:49:01.207Z</time>
      </trkpt>
      <trkpt lat="47.552802" lon="7.839009">
        <ele>318.999197</ele>
        <time>2021-11-22T12:49:07.426Z</time>
      </trkpt>
      <trkpt lat="47.552939" lon="7.839526">
        <ele>319.568266</ele>
        <time>2021-11-22T12:49:15.216Z</time>
      </trkpt>
      <trkpt lat="47.553231" lon="7.841529">
        <ele>321.789461</ele>
        <time>2021-11-22T12:49:45.346Z</time>
      </trkpt>
      <trkpt lat="47.553216" lon="7.841849">
        <ele>322.137155</ele>
        <time>2021-11-22T12:49:49.870Z</time>
      </trkpt>
      <trkpt lat="47.553123" lon="7.842222">
        <ele>322.467627</ele>
        <time>2021-11-22T12:49:55.100Z</time>
      </trkpt>
      <trkpt lat="47.553133" lon="7.842431">
        <ele>322.609341</ele>
        <time>2021-11-22T12:49:58.229Z</time>
      </trkpt>
      <trkpt lat="47.552833" lon="7.842495">
        <ele>322.913087</ele>
        <time>2021-11-22T12:50:05.538Z</time>
      </trkpt>
      <trkpt lat="47.552380" lon="7.842592">
        <ele>323.371779</ele>
        <time>2021-11-22T12:50:16.586Z</time>
      </trkpt>
      <trkpt lat="47.551922" lon="7.842704">
        <ele>323.836974</ele>
        <time>2021-11-22T12:50:27.153Z</time>
      </trkpt>
      <trkpt lat="47.551668" lon="7.842770">
        <ele>324.095406</ele>
        <time>2021-11-22T12:50:33.111Z</time>
      </trkpt>
      <trkpt lat="47.551454" lon="7.842815">
        <ele>324.301820</ele>
        <time>2021-11-22T12:50:37.894Z</time>
      </trkpt>
      <trkpt lat="47.551344" lon="7.844621">
        <ele>325.468413</ele>
        <time>2021-11-22T12:51:00.730Z</time>
      </trkpt>
      <trkpt lat="47.551294" lon="7.845372">
        <ele>326.017738</ele>
        <time>2021-11-22T12:51:10.982Z</time>
      </trkpt>
      <trkpt lat="47.551205" lon="7.846694">
        <ele>327.273171</ele>
        <time>2021-11-22T12:51:28.719Z</time>
      </trkpt>
      <trkpt lat="47.551184" lon="7.847206">
        <ele>327.757882</ele>
        <time>2021-11-22T12:51:36.110Z</time>
      </trkpt>
      <trkpt lat="47.551196" lon="7.847517">
        <ele>328.052244</ele>
        <time>2021-11-22T12:51:40.647Z</time>
      </trkpt>
      <trkpt lat="47.551669" lon="7.848083">
        <ele>328.936374</ele>
        <time>2021-11-22T12:51:53.405Z</time>
      </trkpt>
      <trkpt lat="47.551242" lon="7.848702">
        <ele>329.821230</ele>
        <time>2021-11-22T12:52:05.919Z</time>
      </trkpt>
      <trkpt lat="47.550975" lon="7.849066">
        <ele>330.358658</ele>
        <time>2021-11-22T12:52:13.234Z</time>
      </trkpt>
      <trkpt lat="47.550810" lon="7.849346">
        <ele>330.730260</ele>
        <time>2021-11-22T12:52:19.627Z</time>
      </trkpt>
      <trkpt lat="47.550488" lon="7.850081">
        <ele>331.377260</ele>
        <time>2021-11-22T12:52:35.087Z</time>
      </trkpt>
      <trkpt lat="47.550333" lon="7.850434">
        <ele>331.639191</ele>
        <time>2021-11-22T12:52:42.417Z</time>
      </trkpt>
      <trkpt lat="47.550009" lon="7.851173">
        <ele>332.187295</ele>
        <time>2021-11-22T12:52:57.011Z</time>
      </trkpt>
      <trkpt lat="47.549815" lon="7.851605">
        <ele>332.510030</ele>
        <time>2021-11-22T12:53:04.794Z</time>
      </trkpt>
      <trkpt lat="47.549652" lon="7.851969">
        <ele>332.625288</ele>
        <time>2021-11-22T12:53:10.889Z</time>
      </trkpt>
      <trkpt lat="47.549535" lon="7.852225">
        <ele>332.575089</ele>
        <time>2021-11-22T12:53:14.946Z</time>
      </trkpt>
      <trkpt lat="47.549285" lon="7.852784">
        <ele>332.466206</ele>
        <time>2021-11-22T12:53:23.580Z</time>
      </trkpt>
      <trkpt lat="47.549708" lon="7.853279">
        <ele>332.336533</ele>
        <time>2021-11-22T12:53:33.980Z</time>
      </trkpt>
      <trkpt lat="47.550221" lon="7.853833">
        <ele>332.130828</ele>
        <time>2021-11-22T12:53:45.906Z</time>
      </trkpt>
      <trkpt lat="47.549883" lon="7.854434">
        <ele>331.840282</ele>
        <time>2021-11-22T12:53:52.584Z</time>
      </trkpt>
      <trkpt lat="47.549566" lon="7.855225">
        <ele>331.498616</ele>
        <time>2021-11-22T12:54:03.729Z</time>
      </trkpt>
      <trkpt lat="47.549362" lon="7.855774">
        <ele>331.265856</ele>
        <time>2021-11-22T12:54:11.650Z</time>
      </trkpt>
      <trkpt lat="47.548887" lon="7.857308">
        <ele>331.191104</ele>
        <time>2021-11-22T12:54:33.758Z</time>
      </trkpt>
      <trkpt lat="47.548743" lon="7.857692">
        <ele>331.179026</ele>
        <time>2021-11-22T12:54:39.730Z</time>
      </trkpt>
      <trkpt lat="47.548701" lon="7.857893">
        <ele>331.173241</ele>
        <time>2021-11-22T12:54:42.701Z</time>
      </trkpt>
      <trkpt lat="47.548686" lon="7.857973">
        <ele>331.170958</ele>
        <time>2021-11-22T12:54:43.825Z</time>
      </trkpt>
      <trkpt lat="47.548611" lon="7.858381">
        <ele>331.224474</ele>
        <time>2021-11-22T12:54:50.039Z</time>
      </trkpt>
      <trkpt lat="47.548334" lon="7.859801">
        <ele>332.186166</ele>
        <time>2021-11-22T12:55:13.076Z</time>
      </trkpt>
      <trkpt lat="47.548049" lon="7.860929">
        <ele>333.026250</ele>
        <time>2021-11-22T12:55:34.095Z</time>
      </trkpt>
      <trkpt lat="47.547930" lon="7.861711">
        <ele>333.945326</ele>
        <time>2021-11-22T12:55:48.858Z</time>
      </trkpt>
      <trkpt lat="47.547568" lon="7.863151">
        <ele>335.707099</ele>
        <time>2021-11-22T12:56:17.986Z</time>
      </trkpt>
      <trkpt lat="47.547320" lon="7.863864">
        <ele>336.083954</ele>
        <time>2021-11-22T12:56:31.926Z</time>
      </trkpt>
      <trkpt lat="47.546974" lon="7.864423">
        <ele>336.255126</ele>
        <time>2021-11-22T12:56:42.749Z</time>
      </trkpt>
      <trkpt lat="47.546885" lon="7.864500">
        <ele>336.289587</ele>
        <time>2021-11-22T12:56:45.834Z</time>
      </trkpt>
      <trkpt lat="47.546894" lon="7.864837">
        <ele>336.365703</ele>
        <time>2021-11-22T12:56:49.718Z</time>
      </trkpt>
      <trkpt lat="47.546889" lon="7.865225">
        <ele>336.453286</ele>
        <time>2021-11-22T12:56:55.143Z</time>
      </trkpt>
      <trkpt lat="47.546819" lon="7.865489">
        <ele>336.517300</ele>
        <time>2021-11-22T12:56:59.088Z</time>
      </trkpt>
      <trkpt lat="47.546510" lon="7.865766">
        <ele>336.332944</ele>
        <time>2021-11-22T12:57:05.722Z</time>
      </trkpt>
      <trkpt lat="47.546327" lon="7.865959">
        <ele>336.140765</ele>
        <time>2021-11-22T12:57:09.237Z</time>
      </trkpt>
      <trkpt lat="47.546096" lon="7.866147">
        <ele>335.915284</ele>
        <time>2021-11-22T12:57:13.793Z</time>
      </trkpt>
      <trkpt lat="47.545240" lon="7.866887">
        <ele>335.067395</ele>
        <time>2021-11-22T12:57:30.466Z</time>
      </trkpt>
      <trkpt lat="47.545160" lon="7.866985">
        <ele>335.055538</ele>
        <time>2021-11-22T12:57:32.422Z</time>
      </trkpt>
      <trkpt lat="47.545003" lon="7.867278">
        <ele>335.315040</ele>
        <time>2021-11-22T12:57:38.091Z</time>
      </trkpt>
      <trkpt lat="47.544568" lon="7.867693">
        <ele>335.846746</ele>
        <time>2021-11-22T12:57:50.881Z</time>
      </trkpt>
      <trkpt lat="47.544469" lon="7.867776">
        <ele>335.963647</ele>
        <time>2021-11-22T12:57:53.662Z</time>
      </trkpt>
      <trkpt lat="47.544410" lon="7.867825">
        <ele>336.033156</ele>
        <time>2021-11-22T12:57:55.832Z</time>
      </trkpt>
      <trkpt lat="47.544246" lon="7.867967">
        <ele>336.228368</ele>
        <time>2021-11-22T12:58:00.515Z</time>
      </trkpt>
      <trkpt lat="47.544214" lon="7.867988">
        <ele>336.264335</ele>
        <time>2021-11-22T12:58:01.363Z</time>
      </trkpt>
      <trkpt lat="47.543801" lon="7.868269">
        <ele>336.731381</ele>
        <time>2021-11-22T12:58:13.138Z</time>
      </trkpt>
      <trkpt lat="47.543657" lon="7.868359">
        <ele>336.861937</ele>
        <time>2021-11-22T12:58:17.643Z</time>
      </trkpt>
      <trkpt lat="47.543201" lon="7.868657">
        <ele>336.861937</ele>
        <time>2021-11-22T12:58:28.689Z</time>
      </trkpt>
      <trkpt lat="47.543105" lon="7.868711">
        <ele>336.861937</ele>
        <time>2021-11-22T12:58:31.138Z</time>
      </trkpt>
      <trkpt lat="47.543105" lon="7.868711">
        <ele>336.861937</ele>
        <time>2021-11-22T12:58:31.194Z</time>
      </trkpt>
      <trkpt lat="47.543049" lon="7.868759">
        <ele>336.861937</ele>
        <time>2021-11-22T12:58:32.578Z</time>
      </trkpt>
      <trkpt lat="47.542722" lon="7.869201">
        <ele>336.861937</ele>
        <time>2021-11-22T12:58:42.508Z</time>
      </trkpt>
      <trkpt lat="47.542696" lon="7.869257">
        <ele>336.861937</ele>
        <time>2021-11-22T12:58:43.253Z</time>
      </trkpt>
      <trkpt lat="47.542696" lon="7.869257">
        <ele>336.861937</ele>
        <time>2021-11-22T12:58:43.298Z</time>
      </trkpt>
    </trkseg>
  </trk>
</gpx>